[[{"header":{"parameterUnit":"m.s-1","parameterCategory":1,"la1":31.0,"la2":29.5877,"lo1":-88.7671,"lo2":-86.6584,"dy":0.0162,"dx":0.0185,"nx":115,"ny":88,"refTime":"2023-07-27T06:00:00:Z","depth":0,"parameterNumber":2,"parameterNumberName":"U-component_of_WINDS"},"data":[0.0,0.0,0.0,0.0,0.0,0.0,0.0,0.0,0.0,0.0,0.0,0.0,0.0,0.0,0.0,0.0,0.0,0.0,0.0,0.0,0.0,0.0,0.0,0.0,0.0,0.0,0.0,0.0,0.0,0.0,0.0,0.0,0.0,0.0,0.0,0.0,0.0,0.0,0.0,0.0,0.0,0.0,0.0,0.0,0.0,0.0,0.0,0.0,0.0,0.0,0.0,0.0,0.0,0.0,0.0,0.0,0.0,0.0,0.0,0.0,0.0,0.0,0.0,0.0,0.0,0.0,0.0,0.0,0.0,0.0,0.0,0.0,0.0,0.0,0.0,0.0,0.0,0.0,0.0,0.0,0.0,0.0,0.0,0.0,0.0,0.0,0.0,0.0,0.0,0.0,0.0,0.0,0.0,0.0,0.0,0.0,0.0,0.0,0.0,0.0,0.0,0.0,0.0,0.0,0.0,0.0,0.0,0.0,0.0,0.0,0.0,0.0,0.0,0.0,0.0,0.0,0.0,0.0,0.0,0.0,0.0,0.0,0.0,0.0,0.0,0.0,0.0,0.0,0.0,0.0,0.0,0.0,0.0,0.0,0.0,0.0,0.0,0.0,0.0,0.0,0.0,0.0,0.0,0.0,0.0,0.0,0.0,0.0,0.0,0.0,0.0,0.0,0.0,0.0,0.0,0.0,0.0,0.0,0.0,0.0,0.0,0.0,0.0,0.0,0.0,0.0,0.0,0.0,0.0,0.0,0.0,0.0,0.0,0.0,0.0,0.0,0.0,0.0,0.0,0.0,0.0,0.0,0.0,0.0,0.0,0.0,0.0,0.0,0.0,0.0,0.0,0.0,0.0,0.0,0.0,0.0,0.0,0.0,0.0,0.0,0.0,0.0,0.0,0.0,0.0,0.0,0.0,0.0,0.0,0.0,0.0,0.0,0.0,0.0,0.0,0.0,0.0,0.0,0.0,0.0,0.0,0.0,0.0,0.0,0.0,0.0,0.0,0.0,0.0,0.0,0.0,0.0,0.0,0.0,0.0,0.0,0.0,0.0,0.0,0.0,0.0,0.0,0.0,0.0,0.0,0.0,0.0,0.0,0.0,0.0,0.0,0.0,0.0,0.0,0.0,0.0,0.0,0.0,0.0,0.0,0.0,0.0,0.0,0.0,0.0,0.0,0.0,0.0,0.0,0.0,0.0,0.0,0.0,0.0,0.0,0.0,0.0,0.0,0.0,0.0,0.0,0.0,0.0,0.0,0.0,0.0,0.0,0.0,0.0,0.0,0.0,0.0,0.0,0.0,0.0,0.0,0.0,0.0,0.0,0.0,0.0,0.0,0.0,0.0,0.0,0.0,0.0,0.0,0.0,0.0,0.0,0.0,0.0,0.0,0.0,0.0,0.0,0.0,0.0,0.0,0.0,0.0,0.0,0.0,0.0,0.0,0.0,0.0,0.0,0.0,0.0,0.0,0.0,0.0,0.0,0.0,0.0,0.0,0.0,0.0,0.0,0.0,0.0,0.0,0.0,0.0,0.0,0.0,0.0,0.0,0.0,0.0,0.0,0.0,0.0,0.0,0.0,0.0,0.0,0.0,0.0,0.0,0.0,0.0,0.0,0.0,0.0,0.0,0.0,0.0,0.0,0.0,0.0,0.0,0.0,0.0,0.0,0.0,0.0,0.0,0.0,0.0,0.0,0.0,0.0,0.0,0.0,0.0,0.0,0.0,0.0,0.0,0.0,0.0,0.0,0.0,0.0,0.0,0.0,0.0,0.0,0.0,0.0,0.0,0.0,0.0,0.0,0.0,0.0,0.0,0.0,0.0,0.0,0.0,0.0,0.0,0.0,0.0,0.0,0.0,0.0,0.0,0.0,0.0,0.0,0.0,0.0,0.0,0.0,0.0,0.0,0.0,0.0,0.0,0.0,0.0,0.0,0.0,0.0,0.0,0.0,0.0,0.0,0.0,0.0,0.0,0.0,0.0,0.0,0.0,0.0,0.0,0.0,0.0,0.0,0.0,0.0,0.0,0.0,0.0,0.0,0.0,0.0,0.0,0.0,0.0,0.0,0.0,0.0,0.0,0.0,0.0,0.0,0.0,0.0,0.0,0.0,0.0,0.0,0.0,0.0,0.0,0.0,0.0,0.0,0.0,0.0,0.0,0.0,0.0,0.0,0.0,0.0,0.0,0.0,0.0,0.0,0.0,0.0,0.0,0.0,0.0,0.0,0.0,0.0,0.0,0.0,0.0,0.0,0.0,0.0,0.0,0.0,0.0,0.0,0.0,0.0,0.0,0.0,0.0,0.0,0.0,0.0,0.0,0.0,0.0,0.0,0.0,0.0,0.0,0.0,0.0,0.0,0.0,0.0,0.0,0.0,0.0,0.0,0.0,0.0,0.0,0.0,0.0,0.0,0.0,0.0,0.0,0.0,0.0,0.0,0.0,0.0,0.0,0.0,0.0,0.0,0.0,0.0,0.0,0.0,0.0,0.0,0.0,0.0,0.0,0.0,0.0,0.0,0.0,0.0,0.0,0.0,0.0,0.0,0.0,0.0,0.0,0.0,0.0,0.0,0.0,0.0,0.0,0.0,0.0,0.0,0.0,0.0,0.0,0.0,0.0,0.0,0.0,0.0,0.0,0.0,0.0,0.0,0.0,0.0,0.0,0.0,0.0,0.0,0.0,0.0,0.0,0.0,0.0,0.0,0.0,0.0,0.0,0.0,0.0,0.0,0.0,0.0,0.0,0.0,0.0,0.0,0.0,0.0,0.0,0.0,0.0,0.0,0.0,0.0,0.0,0.0,0.0,0.0,0.0,0.0,0.0,0.0,0.0,0.0,0.0,0.0,0.0,0.0,0.0,0.0,0.0,0.0,0.0,0.0,0.0,0.0,0.0,0.0,0.0,0.0,0.0,0.0,0.0,0.0,0.0,0.0,0.0,0.0,0.0,0.0,0.0,0.0,0.0,0.0,0.0,0.0,0.0,0.0,0.0,0.0,0.0,0.0,0.0,0.0,0.0,0.0,0.0,0.0,0.0,0.0,0.0,0.0,0.0,0.0,0.0,0.0,0.0,0.0,0.0,0.0,0.0,0.0,0.0,0.0,0.0,0.0,0.0,0.0,0.0,0.0,0.0,0.0,0.0,0.0,0.0,0.0,0.0,0.0,0.0,0.0,0.0,0.0,0.0,0.0,0.0,0.0,0.0,0.0,0.0,0.0,0.0,0.0,0.0,0.0,0.0,0.0,0.0,0.0,0.0,0.0,0.0,0.0,0.0,0.0,0.0,0.0,0.0,0.0,0.0,0.0,0.0,0.0,0.0,0.0,0.0,0.0,0.0,0.0,0.0,0.0,0.0,0.0,0.0,0.0,0.0,0.0,0.0,0.0,0.0,0.0,0.0,0.0,0.0,0.0,0.0,0.0,0.0,0.0,0.0,0.0,0.0,0.0,0.0,0.0,0.0,0.0,0.0,0.0,0.0,0.0,0.0,0.0,0.0,0.0,0.0,0.0,0.0,0.0,0.0,0.0,0.0,0.0,0.0,0.0,0.0,0.0,0.0,0.0,0.0,0.0,0.0,0.0,0.0,0.0,0.0,0.0,0.0,0.0,0.0,0.0,0.0,0.0,0.0,0.0,0.0,0.0,0.0,0.0,0.0,0.0,0.0,0.0,0.0,0.0,0.0,0.0,0.0,0.0,0.0,0.0,0.0,0.0,0.0,0.0,0.0,0.0,0.0,0.0,0.0,0.0,0.0,0.0,0.0,0.0,0.0,0.0,0.0,0.0,0.0,0.0,0.0,0.0,0.0,0.0,0.0,0.0,0.0,0.0,0.0,0.0,0.0,0.0,0.0,0.0,0.0,0.0,0.0,0.0,0.0,0.0,0.0,0.0,0.0,0.0,0.0,0.0,0.0,0.0,0.0,0.0,0.0,0.0,0.0,0.0,0.0,0.0,0.0,0.0,0.0,0.0,0.0,0.0,0.0,0.0,0.0,0.0,0.0,0.0,0.0,0.0,0.0,0.0,0.0,0.0,0.0,0.0,0.0,0.0,0.0,0.0,0.0,0.0,0.0,0.0,0.0,0.0,0.0,0.0,0.0,0.0,0.0,0.0,0.0,0.0,0.0,0.0,0.0,0.0,0.0,0.0,0.0,0.0,0.0,0.0,0.0,0.0,0.0,0.0,0.0,0.0,0.0,0.0,0.0,0.0,0.0,0.0,0.0,0.0,0.0,0.0,0.0,0.0,0.0,0.0,0.0,0.0,0.0,0.0,0.0,0.633,0.0,0.0,0.0,0.0,0.0,0.0,0.0,0.0,0.0,0.0,0.0,0.0,0.0,0.0,0.0,0.0,0.0,0.0,0.0,0.0,0.0,0.0,0.0,0.0,0.0,0.0,0.0,0.0,0.0,0.0,0.0,0.0,0.0,0.0,0.0,0.0,0.0,0.0,0.0,0.0,0.0,0.0,0.0,0.0,0.0,0.0,0.0,0.0,0.0,0.0,0.0,0.0,0.0,0.0,0.0,0.0,0.0,0.0,0.0,0.0,0.0,0.0,0.0,0.0,0.0,0.0,0.0,0.0,0.0,0.0,0.0,0.0,0.0,0.0,0.0,0.0,0.0,0.0,0.0,0.0,0.0,0.0,0.0,0.0,0.0,0.0,0.0,0.0,0.0,0.0,0.0,0.0,0.0,0.0,0.0,0.0,0.0,0.0,0.0,0.0,0.0,0.0,0.0,0.0,0.0,0.0,0.0,0.0,0.0,0.0,0.4155,0.5349,0.517,0.5489,0.638,0.0,0.0,0.0,0.0,0.0,0.0,0.0,0.0,0.0,0.0,0.0,0.0,0.0,0.0,0.0,0.0,0.0,0.0,0.0,0.0,0.0,0.0,0.0,0.0,0.0,0.0,0.0,0.0,0.0,0.0,0.0,0.0,0.0,0.0,0.0,0.0,0.0,0.0,0.0,0.0,0.0,0.0,0.0,0.0,0.0,0.0,0.0,0.0,0.0,0.0,0.0,0.0,0.0,0.0,0.0,0.0,0.0,0.0,0.0,0.0,0.0,0.0,0.0,0.0,0.0,0.0,0.0,0.0,0.0,0.0,0.0,0.0,0.0,0.0,0.0,0.0,0.0,0.0,0.0,0.0,0.0,0.0,0.0,0.0,0.0,0.0,0.0,0.0,0.0,0.0,0.0,0.0,0.0,0.0,0.0,0.0,0.0,0.0,0.0,0.0,0.0,0.0,0.0,0.0,0.0,0.0,0.0,0.0,0.0,0.0,0.0,0.0,0.6345,0.6499,0.7046,0.0,0.0,0.0,0.0,0.0,0.0,0.0,0.0,0.0,0.0,0.0,0.0,0.0,0.0,0.0,0.0,0.0,0.0,0.0,0.0,0.0,0.0,0.0,0.0,0.0,0.0,0.0,0.0,0.0,0.0,0.0,0.0,0.0,0.0,0.0,0.0,0.0,0.0,0.0,0.0,0.0,0.0,0.0,0.0,0.0,0.0,0.0,0.0,0.0,0.0,0.0,0.0,0.0,0.0,0.0,0.0,0.0,0.0,0.0,0.0,0.0,0.0,0.0,0.0,0.0,0.0,0.0,0.0,0.0,0.0,0.0,0.0,0.0,0.0,0.0,0.0,0.0,0.0,0.0,0.0,0.0,0.0,0.0,0.0,0.0,0.0,0.0,0.0,0.0,0.0,0.0,0.0,0.0,0.0,0.0,0.0,0.0,0.0,0.0,0.0,0.0,0.0,0.0,0.0,0.0,0.0,0.0,0.0,0.0,0.0,0.7936,0.8269,0.9186,0.0,0.9546,0.0,0.0,0.0,0.0,0.0,0.0,0.0,0.0,0.0,0.0,0.0,0.0,0.0,0.0,0.0,0.0,0.0,0.0,0.0,0.0,0.0,0.0,0.0,0.0,0.0,0.0,0.0,0.0,0.0,0.0,0.0,0.0,0.0,0.0,0.0,0.0,0.0,0.0,0.0,0.0,0.0,0.0,0.0,0.0,0.0,0.0,0.0,0.0,0.0,0.0,0.0,0.0,0.0,0.0,0.0,0.0,0.0,0.0,0.0,0.0,0.0,0.0,0.0,0.0,0.0,0.0,0.0,0.0,0.0,0.0,0.0,0.0,0.0,0.0,0.0,0.0,0.0,0.0,0.0,0.0,0.0,0.0,0.0,0.0,0.0,0.0,0.0,0.0,0.0,0.0,0.0,0.0,0.0,0.0,0.0,0.0,0.0,0.0,0.0,0.0,0.0,0.0,0.0,0.0,0.0,0.0,0.0,0.0,0.0,0.0,0.9439,0.7831,0.8816,0.9102,0.0,0.0,0.0,0.0,0.0,0.0,0.0,0.0,0.0,0.0,0.0,0.0,0.0,0.0,0.0,0.0,0.0,0.0,0.0,0.0,0.0,0.0,0.0,0.0,0.0,0.0,0.0,0.0,0.0,0.0,0.0,0.0,0.0,0.0,0.0,0.0,0.0,0.0,0.0,0.0,0.0,0.0,0.0,0.0,0.0,0.0,0.0,0.0,0.0,0.0,0.0,0.0,0.0,0.0,0.0,0.0,0.0,0.0,0.0,0.0,0.0,0.0,0.0,0.0,0.0,0.0,0.0,0.0,0.0,0.0,0.0,0.0,0.0,0.0,0.0,0.0,0.0,0.0,0.0,0.0,0.0,0.0,0.0,0.0,0.0,0.0,0.0,0.0,0.0,0.0,0.0,0.0,0.0,0.0,0.0,0.0,0.0,0.0,0.0,0.0,0.0,0.0,0.0,0.0,0.0,0.0,0.0,0.0,0.0,0.0,0.9668,1.0165,0.8176,0.8202,0.8464,0.8808,0.0,0.0,0.0,0.0,0.0,0.0,0.0,0.0,0.0,0.0,0.0,0.0,0.0,0.0,0.0,0.0,0.0,0.0,0.0,0.0,0.0,0.0,0.0,0.0,0.0,0.0,0.0,0.0,0.0,0.0,0.0,0.0,0.0,0.0,0.0,0.0,0.0,0.0,0.0,0.0,0.0,0.0,0.0,0.0,0.0,0.0,0.0,0.0,0.0,0.0,0.0,0.0,0.0,0.0,0.0,0.0,0.0,0.0,0.0,0.0,0.0,0.0,0.0,0.0,0.0,0.0,0.0,0.0,0.0,0.0,0.0,0.0,0.0,0.0,0.0,0.0,0.0,0.0,0.0,0.0,0.0,0.0,0.0,0.0,0.0,0.0,0.0,0.0,0.0,0.0,0.0,0.0,0.0,0.0,0.0,0.0,0.0,0.0,0.0,0.0,0.0,0.0,0.0,0.0,0.0,0.0,0.0,0.0,0.74,0.8864,0.966,0.9616,0.8031,0.8548,0.0,0.0,0.0,0.0,0.0,0.0,0.0,0.0,0.0,0.0,0.0,0.0,0.0,0.0,0.0,0.0,0.0,0.0,0.0,0.0,0.0,0.0,0.0,0.0,0.0,0.0,0.0,0.0,0.0,0.0,0.0,0.0,0.0,0.0,0.0,0.0,0.0,0.0,0.0,0.0,0.0,0.0,0.0,0.0,0.0,0.0,0.0,0.0,0.0,0.0,0.0,0.0,0.0,0.0,0.0,0.0,0.0,0.0,0.0,0.0,0.0,0.0,0.0,0.0,0.0,0.0,0.0,0.0,0.0,0.0,0.0,0.0,0.0,0.0,0.0,0.0,0.0,0.0,0.0,0.0,0.0,0.0,0.0,0.0,0.0,0.0,0.0,0.0,0.0,0.0,0.0,0.0,0.0,0.0,0.0,0.0,0.0,0.0,0.0,0.0,0.0,0.0,0.0,0.0,0.0,0.0,0.0,0.0,0.0,0.6308,0.7783,0.7962,0.6744,0.8094,0.9159,0.0,0.0,0.0,0.0,0.0,0.0,0.0,0.0,0.0,0.0,0.0,0.0,0.0,0.0,0.0,0.0,0.0,0.0,0.0,0.0,0.0,0.0,0.0,0.0,0.0,0.0,0.0,0.0,0.0,0.0,0.0,0.0,0.0,0.0,0.0,0.0,0.0,0.0,0.0,0.0,0.0,0.0,0.0,0.0,0.0,0.0,0.0,0.0,0.0,0.0,0.0,0.0,0.0,0.0,0.0,0.0,0.0,0.0,0.0,0.0,0.0,0.0,0.0,0.0,0.0,0.0,0.0,0.0,0.0,0.0,0.0,0.0,0.0,0.0,0.0,0.0,0.0,0.0,0.0,0.0,0.0,0.0,0.0,0.0,0.0,0.0,0.0,0.0,0.0,0.0,0.0,0.0,0.0,0.0,0.0,0.0,0.0,0.0,0.0,0.0,0.0,0.0,0.0,0.0,0.0,0.0,0.0,0.0,0.0,0.4932,0.0,0.6901,0.5734,0.8287,0.9518,0.0,0.0,0.0,0.0,0.0,0.0,0.0,0.0,0.0,0.0,0.0,0.0,0.0,0.0,0.0,0.0,0.0,0.0,0.0,0.0,0.0,0.0,0.0,0.0,0.0,0.0,0.0,0.0,0.0,0.0,0.0,0.0,0.0,0.0,0.0,0.0,0.0,0.0,0.0,0.0,0.0,0.0,0.0,0.0,0.0,0.0,0.0,0.0,0.0,0.0,0.0,0.0,0.0,0.0,0.0,0.0,0.0,0.0,0.0,0.0,0.0,0.0,0.0,0.0,0.0,0.0,0.0,0.0,0.0,0.0,0.0,0.0,0.0,0.0,0.0,0.0,0.0,0.0,0.0,0.0,0.0,0.0,0.0,0.0,0.0,0.0,0.0,0.0,0.0,0.0,0.0,0.0,0.0,0.0,0.0,0.0,0.0,0.0,0.0,0.0,0.0,0.0,0.0,0.0,0.0,0.0,0.0,0.0,0.4543,0.3482,0.5348,0.6606,0.7089,0.8514,0.9522,0.0,0.0,0.0,0.0,0.0,0.0,0.0,0.0,0.0,0.0,0.0,0.0,0.0,0.0,0.0,0.0,0.0,0.0,0.0,0.0,0.0,0.0,0.0,0.0,0.0,0.0,0.0,0.0,0.0,0.0,0.0,0.0,0.0,0.0,0.0,0.0,0.0,0.0,0.0,0.0,0.0,0.0,0.0,0.0,0.0,0.0,0.0,0.0,0.0,0.0,0.0,0.0,0.0,0.0,0.0,0.0,0.0,0.0,0.0,0.0,0.0,0.0,0.0,0.0,0.0,0.0,0.0,0.0,0.0,0.0,0.0,0.0,0.0,0.0,0.0,0.0,0.0,0.0,0.0,0.0,0.0,0.0,0.0,0.0,0.0,0.0,0.0,0.0,0.0,0.0,0.0,0.0,0.0,0.0,0.0,0.0,0.0,0.0,0.0,0.0,0.0,0.0,0.0,0.0,0.0,0.0,0.0,0.0,0.0,0.4561,0.5128,0.6082,0.739,0.8009,0.8692,0.0,0.0,0.0,0.0,0.0,0.0,0.0,0.0,0.0,0.0,0.0,0.0,0.0,0.0,0.0,0.0,0.0,0.0,0.0,0.0,0.0,0.0,0.0,0.0,0.0,0.0,0.0,0.0,0.0,0.0,0.0,0.0,0.0,0.0,0.0,0.0,0.0,0.0,0.0,0.0,0.0,0.0,0.0,0.0,0.0,0.0,0.0,0.0,0.0,0.0,0.0,0.0,0.0,0.0,0.0,0.0,0.0,0.0,0.0,0.0,0.0,0.0,0.0,0.0,0.0,0.0,0.0,0.0,0.0,0.0,0.0,0.0,0.0,0.0,0.0,0.0,0.0,0.0,0.0,0.0,0.0,0.0,0.0,0.0,0.0,0.0,0.0,0.0,0.0,0.0,0.0,0.0,0.0,0.0,0.0,0.0,0.0,0.0,0.0,0.0,0.0,0.0,0.0,0.0,0.0,0.0,0.0,0.0,0.0,0.4179,0.4536,0.5342,0.6567,0.7047,0.7683,0.8475,0.0,0.0,0.0,0.0,0.0,0.0,0.0,0.0,0.0,0.0,0.0,0.0,0.0,0.0,0.0,0.0,0.0,0.0,0.0,0.0,0.0,0.0,0.0,0.0,0.0,0.0,0.0,0.0,0.0,0.0,0.0,0.0,0.0,0.0,0.0,0.0,0.0,0.0,0.0,0.0,0.0,0.0,0.0,0.0,0.0,0.0,0.0,0.0,0.0,0.0,0.0,0.0,0.0,0.0,0.0,0.0,0.0,0.0,0.0,0.0,0.0,0.0,0.0,0.0,0.0,0.0,0.0,0.0,0.0,0.0,0.0,0.0,0.0,0.0,0.0,0.0,0.0,0.0,0.0,0.0,0.0,0.0,0.0,0.0,0.0,0.0,0.0,0.0,0.0,0.0,0.0,0.0,0.0,0.0,0.0,0.0,0.0,0.0,0.0,0.0,0.0,0.0,0.0,0.0,0.0,0.0,0.0,0.0,0.2677,0.3736,0.4526,0.4986,0.5895,0.663,0.0,0.0,0.0,0.0,0.0,0.0,0.0,0.0,0.0,0.0,0.0,0.0,0.0,0.0,0.0,0.0,0.0,0.0,0.0,0.0,0.0,0.0,0.0,0.0,0.0,0.0,0.0,0.0,0.0,0.0,0.0,0.0,0.0,0.0,0.0,0.0,0.0,0.0,0.0,0.0,0.0,0.0,0.0,0.0,0.0,0.0,0.0,0.0,0.0,0.0,0.0,0.0,0.0,0.0,0.0,0.0,0.0,0.0,0.0,0.0,0.0,0.0,0.0,0.0,0.0,0.0,0.0,0.0,0.0,0.0,0.0,0.0,0.0,0.0,0.0,0.0,0.0,0.0,0.0,0.0,0.0,0.0,0.0,0.0,0.0,0.0,0.0,0.0,0.0,0.0,0.0,0.0,0.0,0.0,0.0,0.0,0.0,0.0,0.0,0.0,0.0,0.0,0.0,0.0,0.0,0.0,0.0,0.0,0.0,0.3542,0.4051,0.4705,0.5551,0.6378,0.7009,0.0,0.0,0.0,0.0,0.0,0.0,0.0,0.0,0.0,0.0,0.0,0.0,0.0,0.0,0.0,0.0,0.0,0.0,0.0,0.0,0.0,0.0,0.0,0.0,0.0,0.0,0.0,0.0,0.0,0.0,0.0,0.0,0.0,0.0,0.0,0.0,0.0,0.0,0.0,0.0,0.0,0.0,0.0,0.0,0.0,0.0,0.0,0.0,0.0,0.0,0.0,0.0,0.0,0.0,0.0,0.0,0.0,0.0,0.0,0.0,0.0,0.0,0.0,0.0,0.0,0.0,0.0,0.0,0.0,0.0,0.0,0.0,0.0,0.0,0.0,0.0,0.0,0.0,0.0,0.0,0.0,0.0,0.0,0.0,0.0,0.0,0.0,0.0,0.0,0.0,0.0,0.0,0.0,0.0,0.0,0.0,0.0,0.0,0.0,0.0,0.0,0.0,0.0,0.0,0.0,0.0,0.0,0.0,0.3101,0.3892,0.4054,0.4568,0.5489,0.6463,0.701,0.0,0.0,0.0,0.0,0.0,0.0,0.0,0.0,0.0,0.0,0.0,0.0,0.0,0.0,0.0,0.0,0.0,0.0,0.0,0.0,0.0,0.0,0.0,0.0,0.0,0.0,0.0,0.0,0.0,0.0,0.0,0.0,0.0,0.0,0.0,0.0,0.0,0.0,0.0,0.0,0.0,0.0,0.0,0.0,0.0,0.0,0.0,0.0,0.0,0.0,0.0,0.0,0.0,0.0,0.0,0.0,0.0,0.0,0.0,0.0,0.0,0.0,0.0,0.0,0.0,0.0,0.0,0.0,0.0,0.0,0.0,0.0,0.0,0.0,0.0,0.0,0.0,0.0,0.0,0.0,0.0,0.0,0.0,0.0,0.0,0.0,0.0,0.0,0.0,0.0,0.0,0.0,0.0,0.0,0.0,0.0,0.0,0.0,0.0,0.0,0.0,0.0,0.0,0.0,0.0,0.0,0.0,0.0,0.3143,0.3838,0.3877,0.4285,0.5072,0.6271,0.674,0.0,0.0,0.0,0.0,0.0,0.0,0.0,0.0,0.0,0.0,0.0,0.0,0.0,0.0,0.0,0.0,0.0,0.0,0.0,0.0,0.0,0.0,0.0,0.0,0.0,0.0,0.0,0.0,0.0,0.0,0.0,0.0,0.0,0.0,0.0,0.0,0.0,0.0,0.0,0.0,0.0,0.0,0.0,0.0,0.0,0.0,0.0,0.0,0.0,0.0,0.0,0.0,0.0,0.0,0.0,0.0,0.0,0.0,0.0,0.0,0.0,0.0,0.0,0.0,0.0,0.0,0.0,0.0,0.0,0.0,0.0,0.0,0.0,0.0,0.0,0.0,0.0,0.0,0.0,0.0,0.0,0.0,0.0,0.0,0.0,0.0,0.0,0.0,0.0,0.0,0.0,0.0,0.0,0.0,0.0,0.0,0.0,0.0,0.0,0.0,0.0,0.0,0.0,0.0,0.0,0.0,0.0,0.0,0.2627,0.3491,0.3759,0.4235,0.4931,0.5883,0.6343,0.0,0.0,0.0,0.0,0.0,0.0,0.0,0.0,0.0,0.0,0.0,0.0,0.0,0.0,0.0,0.0,0.0,0.0,0.0,0.0,0.0,0.0,0.0,0.0,0.0,0.0,0.0,0.0,0.0,0.0,0.0,0.0,0.0,0.0,0.0,0.0,0.0,0.0,0.0,0.0,0.0,0.0,0.0,0.0,0.0,0.0,0.0,0.0,0.8854,0.0,0.0,0.0,0.0,0.0,0.0,0.0,0.0,0.0,0.0,0.0,0.0,0.0,0.0,0.0,0.0,0.0,0.0,0.0,0.0,0.0,0.0,0.0,0.0,0.0,0.0,0.0,0.0,0.0,0.0,0.0,0.0,0.0,0.0,0.0,0.0,0.0,0.0,0.0,0.0,0.0,0.0,0.0,0.0,0.0,0.0,0.0,0.0,0.0,0.0,0.0,0.0,0.0,0.0,0.0,0.0,0.0,0.0,0.0,0.2735,0.339,0.3511,0.3841,0.4425,0.5015,0.5681,0.0,0.0,0.0,0.0,0.0,0.0,0.0,0.0,0.0,0.0,0.0,0.0,0.0,0.0,0.0,0.0,0.0,0.0,0.0,0.0,0.0,0.0,0.0,0.0,0.0,0.0,0.0,0.0,0.0,0.0,0.0,0.0,0.0,0.0,0.0,0.0,0.0,0.0,0.0,0.0,0.0,0.0,0.0,0.0,0.0,0.0,0.0,0.0,0.0,0.0,0.0,0.0,0.0,0.0,0.0,0.0,0.0,0.0,0.0,0.0,0.0,0.0,0.0,0.0,0.0,0.0,0.0,0.0,0.0,0.0,0.0,0.0,0.0,0.0,0.0,0.0,0.0,0.0,0.0,0.0,0.0,0.0,0.0,0.0,0.0,0.0,0.0,0.0,0.0,0.0,0.0,0.0,0.0,0.0,0.0,0.0,0.0,0.0,0.0,0.0,0.0,0.0,0.0,0.0,0.0,0.0,0.0,0.2869,0.3072,0.3261,0.323,0.3398,0.3793,0.4187,0.5022,0.6342,0.0,0.0,0.0,0.0,0.0,0.0,0.0,0.0,0.0,0.0,0.0,0.0,0.0,0.0,0.0,0.0,0.0,0.0,0.0,0.0,0.0,0.0,0.0,0.0,0.0,0.0,0.0,0.0,0.0,0.0,0.0,0.0,0.0,0.0,0.0,0.0,0.0,0.0,0.9583,0.965,0.0,0.0,0.0,0.0,0.0,0.0,0.0,0.0,0.9586,0.0,0.0,0.0,0.0,0.0,0.0,0.0,0.0,0.0,0.0,0.0,0.0,0.0,0.0,0.0,0.0,0.0,0.0,0.0,0.0,0.0,0.0,0.0,0.0,0.0,0.0,0.0,0.0,0.0,0.0,0.0,0.0,0.0,0.0,0.0,0.0,0.0,0.0,0.0,0.0,0.0,0.0,0.0,0.0,0.0,0.0,0.0,0.0,0.0,0.0,0.0,0.0,0.0,0.0,0.0,0.0,0.2948,0.3193,0.3123,0.2739,0.3029,0.3245,0.334,0.4005,0.4721,0.5454,0.0,0.0,0.0,0.0,0.0,0.0,0.0,0.0,0.0,0.0,0.0,0.0,0.0,0.0,0.0,0.0,0.0,0.0,0.0,0.0,0.0,0.0,0.0,0.0,0.0,0.0,0.0,0.0,0.0,0.0,0.0,0.0,0.0,0.0,0.0,0.0,0.0,0.0,0.0,0.9412,0.9526,0.0,0.0,0.0,0.0,0.0,0.0,0.0,0.0,0.6878,0.0,0.0,0.0,0.0,0.0,0.0,0.0,0.0,0.0,0.0,0.0,0.0,0.0,0.0,0.0,0.0,0.0,0.0,0.0,0.0,0.0,0.0,0.0,0.0,0.0,0.0,0.0,0.0,0.0,0.0,0.0,0.0,0.0,0.0,0.0,0.0,0.0,0.0,0.0,0.0,0.0,0.0,0.0,0.0,0.0,0.0,0.0,0.0,0.0,0.0,0.0,0.0,0.0,0.0,0.0,0.3048,0.2992,0.2856,0.2622,0.2787,0.2885,0.2889,0.3345,0.4123,0.0,0.0,0.0,0.0,0.0,0.0,0.0,0.0,0.0,0.0,0.0,0.0,0.0,0.0,0.0,0.0,0.0,0.0,0.0,0.0,0.0,0.0,0.0,0.0,0.0,0.0,0.0,0.0,0.0,0.0,0.0,0.0,0.0,0.0,0.0,0.0,0.0,0.0,0.0,0.0,0.9257,0.9421,0.9482,0.0,0.0,0.0,0.0,0.0,0.0,0.7945,0.833,0.0,0.0,0.0,0.0,0.0,0.0,0.0,0.0,0.0,0.0,0.0,0.0,0.0,0.0,0.0,0.0,0.0,0.0,0.0,0.0,0.0,0.0,0.0,0.0,0.0,0.0,0.0,0.0,0.0,0.0,0.0,0.0,0.0,0.0,0.0,0.0,0.0,0.0,0.0,0.0,0.0,0.0,0.0,0.0,0.0,0.0,0.0,0.0,0.0,0.0,0.0,0.0,0.0,0.0,0.0,0.3459,0.3056,0.2784,0.2607,0.2593,0.2593,0.2593,0.2805,0.3657,0.0,0.0,0.0,0.0,0.0,0.0,0.0,0.0,0.0,0.0,0.0,0.0,0.0,0.0,0.0,0.0,0.0,0.0,0.0,0.0,0.0,0.0,0.0,0.0,0.0,0.0,0.0,0.0,0.0,0.0,0.0,0.0,0.0,0.0,0.0,0.0,0.0,0.0,0.0,0.0,0.0,0.9555,0.9385,0.9269,0.0,0.0,0.0,0.0,0.8963,0.9666,0.0,0.0,0.0,0.0,0.0,0.0,0.0,0.0,0.0,0.0,0.0,0.0,0.0,0.0,0.0,0.0,0.0,0.0,0.0,0.0,0.0,0.0,0.0,0.0,0.0,0.0,0.0,0.0,0.0,0.0,0.0,0.0,0.0,0.0,0.0,0.0,0.0,0.0,0.0,0.0,0.0,0.0,0.0,0.0,0.0,0.0,0.0,0.0,0.0,0.0,0.0,0.0,0.0,0.0,0.0,0.0,0.4858,0.4119,0.3377,0.2637,0.2593,0.2593,0.2607,0.3062,0.3756,0.0,0.0,0.0,0.0,0.0,0.0,0.0,0.0,0.0,0.0,0.0,0.0,0.0,0.0,0.0,0.0,0.0,0.0,0.0,0.0,0.0,0.0,0.0,0.0,0.0,0.0,0.0,0.0,0.0,0.0,0.0,0.0,0.0,0.0,0.0,0.0,0.0,0.0,0.0,0.0,0.0,1.0105,0.9638,0.8417,0.8186,0.0,0.0,1.0208,1.0015,1.0175,0.0,0.0,0.0,0.0,0.0,0.0,0.0,0.0,0.0,0.0,0.0,0.0,0.0,0.0,0.0,0.0,0.0,0.0,0.0,0.0,0.0,0.0,0.0,0.0,0.0,0.0,0.0,0.0,0.0,0.0,0.0,0.0,0.0,0.0,0.0,0.0,0.0,0.0,0.0,0.0,0.0,0.0,0.0,0.0,0.0,0.0,0.0,0.0,0.0,0.0,0.0,0.0,0.0,0.0,0.0,0.6116,0.4805,0.3251,0.2252,0.1889,0.2353,0.2593,0.2593,0.2831,0.3574,0.0,0.0,0.0,0.0,0.0,0.0,0.0,0.0,0.0,0.0,0.0,0.0,0.0,0.0,0.0,0.0,0.0,0.0,0.0,0.0,0.0,0.0,0.0,0.0,0.0,0.0,0.0,0.0,0.0,0.0,0.0,0.0,0.0,0.0,0.0,0.0,0.0,0.0,0.0,0.0,0.0,0.0,0.9465,0.9049,0.0,0.0,0.0,1.0195,1.0196,0.0,0.0,0.0,0.0,0.0,0.0,0.0,0.0,0.0,0.0,0.0,0.0,0.0,0.0,0.0,0.0,0.0,0.0,0.0,0.0,0.0,0.0,0.0,0.0,0.0,0.0,0.0,0.0,0.0,0.0,0.0,0.0,0.0,0.0,0.0,0.0,0.0,0.0,0.0,0.0,0.0,0.0,0.0,0.0,0.0,0.0,0.0,0.0,0.0,0.0,0.0,0.0,0.0,0.0,0.0,0.0,0.0,0.4441,0.2145,0.119,0.1621,0.1845,0.2041,0.2269,0.2266,0.0,0.0,0.0,0.0,0.0,0.0,0.0,0.0,0.0,0.0,0.0,0.0,0.0,0.0,0.0,0.0,0.0,0.0,0.0,0.0,0.0,0.0,0.0,0.0,0.0,0.0,0.0,0.9971,0.0,0.0,0.0,0.0,0.0,0.0,0.0,0.0,0.0,0.0,0.0,0.0,0.0,0.0,1.014,0.9852,0.9872,1.0049,0.0,0.0,1.0123,1.0165,1.0133,1.0123,0.0,0.0,0.0,0.0,0.0,0.0,0.0,0.0,0.0,0.0,0.0,0.0,0.0,0.0,0.0,0.0,0.0,0.0,0.0,0.0,0.0,0.0,0.0,0.0,0.0,0.0,0.0,0.0,0.0,0.0,0.0,0.0,0.0,0.0,0.0,0.0,0.0,0.0,0.0,0.0,0.0,0.0,0.0,0.0,0.0,0.0,0.0,0.0,0.0,0.0,0.0,0.0,0.0,0.0,0.6465,0.396,0.1406,0.0871,0.2387,0.0968,0.0563,0.1353,0.1408,0.2007,0.0,0.0,0.0,0.0,0.0,0.0,0.0,0.0,0.0,0.0,0.0,0.0,0.0,0.0,0.0,0.0,0.0,0.0,0.0,0.0,0.0,0.0,0.0,0.0,0.0,0.0,0.0,0.0,0.0,0.0,0.0,0.0,0.0,0.0,0.0,0.0,0.0,0.0,0.0,0.0,0.0,1.2034,1.1361,1.0466,1.0322,0.0,1.0797,1.0104,1.0104,1.0104,1.0104,1.0104,0.0,0.0,0.0,0.0,0.0,0.0,0.0,0.0,0.0,0.0,0.0,0.0,0.0,0.0,0.0,0.0,0.0,0.0,0.0,0.0,0.0,0.0,0.0,0.0,0.0,0.0,0.0,0.0,0.0,0.0,0.0,0.0,0.0,0.0,0.0,0.0,0.0,0.0,0.0,0.0,0.0,0.0,0.0,0.0,0.0,0.0,0.0,0.0,0.0,0.0,0.0,0.0,0.0,0.6436,0.3926,0.1333,0.0331,0.0981,0.1387,0.2256,0.3604,0.4202,0.4719,0.0,0.0,0.0,0.0,0.0,0.0,0.0,0.0,0.0,0.0,0.0,0.0,0.0,0.0,0.0,0.0,0.0,0.0,0.0,0.0,0.0,0.0,0.0,0.0,0.0,0.0,0.0,0.0,0.9863,0.9484,0.8308,0.0,0.0,0.0,0.0,0.0,0.0,0.0,0.0,0.0,0.0,1.0931,1.1333,1.0539,0.0,0.0,1.0414,1.0113,1.0156,1.0133,1.0104,1.0104,0.8009,0.0,0.0,0.0,0.0,0.0,0.0,0.0,0.0,0.0,0.0,0.0,0.0,0.0,0.0,0.0,0.0,0.0,0.0,0.0,0.0,0.0,0.0,0.0,0.0,0.0,0.0,0.0,0.0,0.0,0.0,0.0,0.0,0.0,0.0,0.0,0.0,0.0,0.0,0.0,0.0,0.0,0.0,0.0,0.0,0.0,0.0,0.0,0.0,0.0,0.0,0.0,0.0,0.6663,0.3926,0.1333,0.0509,0.15,0.1723,0.2642,0.4303,0.5459,0.6148,0.0,0.0,0.0,0.0,0.0,0.0,0.0,0.0,0.0,0.0,0.0,0.0,0.0,0.0,0.0,0.0,0.0,0.0,0.0,0.0,0.0,0.0,0.0,0.0,0.0,0.0,0.0,0.0,0.9824,0.9925,1.0077,0.0,0.0,0.0,0.0,0.0,0.0,0.0,0.0,0.0,0.0,1.0036,1.0801,1.0327,1.0091,1.0601,1.0344,1.0131,1.0192,1.0173,1.0165,1.0148,0.0,0.0,0.0,0.0,0.0,0.0,0.0,0.0,0.0,0.0,0.0,0.0,0.0,0.0,0.0,0.0,0.0,0.0,0.0,0.0,0.0,0.0,0.0,0.0,0.0,0.0,0.0,0.6063,0.0,0.0,0.932,0.0,0.0,0.0,0.0,0.0,0.0,0.0,0.0,0.0,0.0,0.0,0.0,0.0,0.0,0.0,0.0,0.0,0.0,0.0,0.0,0.0,0.0,0.7181,0.395,0.1427,0.1652,0.4714,0.1803,0.1014,0.2715,0.4284,0.5375,0.581,0.0,0.0,0.0,0.0,0.0,0.0,0.0,0.0,0.0,0.0,0.0,0.0,0.0,0.0,0.0,0.0,0.0,0.0,0.0,0.0,0.0,0.0,0.0,0.0,0.0,0.0,0.98,0.9791,0.9894,0.0,0.0,0.0,0.0,0.0,0.0,0.0,0.0,0.0,0.9552,0.9662,0.9878,0.9877,0.9888,1.0315,1.1532,1.0786,1.0136,1.0191,1.0256,1.0283,0.0,0.0,0.0,0.0,0.0,0.0,0.0,0.0,0.0,0.0,0.0,0.0,0.0,0.0,0.0,0.0,0.0,0.0,0.0,0.0,0.0,0.0,0.0,0.0,0.0,0.0,0.0,1.0729,0.8749,0.0,0.0,0.0,0.0,0.0,0.0,0.0,0.0,0.0,0.0,0.0,0.805,0.7343,0.0,0.0,0.0,0.0,0.0,0.0,0.0,0.0,0.0,0.0,0.0,0.0,0.7912,0.4776,0.3817,0.3935,0.5045,0.3991,0.3664,0.4248,0.4793,0.4114,0.2055,0.0,0.0,0.0,0.0,0.0,0.0,0.0,0.0,0.0,0.0,0.0,0.0,0.0,0.0,0.0,0.0,0.0,0.0,0.0,0.0,0.0,0.0,0.0,0.0,0.0,0.9733,0.0,0.0,0.0,0.0,0.0,0.0,0.0,0.0,0.0,0.0,0.0,0.9914,0.9615,0.9767,0.9886,0.9867,0.9891,1.011,0.0,0.0,0.0,0.0,0.0,0.0,0.0,0.0,0.0,0.0,0.0,0.0,0.0,0.0,1.2043,1.1853,1.1835,1.2017,1.2589,0.0,0.0,0.0,0.0,0.0,0.0,0.0,0.0,0.0,0.0,0.0,0.0,0.0,0.0,1.0257,0.9657,0.9144,0.0,0.0,0.0,0.0,0.0,0.0,0.0,0.0,0.7346,0.7168,0.7148,0.6754,0.6909,0.0,0.7632,0.7695,0.0,0.0,0.0,0.0,0.0,0.0,0.0,0.0,0.8026,0.5918,0.4776,0.4492,0.5059,0.5093,0.5093,0.5093,0.5093,0.3497,0.0,0.0,0.221,0.0,0.0,0.0,0.0,0.0,0.0,0.0,0.0,0.0,0.0,0.0,0.0,0.0,0.0,0.0,0.0,0.0,0.0,0.0,0.0,0.0,0.0,0.0,0.973,0.0,0.0,0.0,0.0,0.0,0.0,0.0,0.0,0.0,0.9753,0.9551,0.9525,0.9735,0.9832,0.9916,0.9932,0.0,0.0,0.0,0.0,0.0,0.0,0.0,1.0132,1.0216,1.0243,1.0415,1.0926,1.242,1.3632,1.3735,0.0,0.0,1.2516,1.27,1.2526,1.1901,1.1763,1.1455,1.0617,1.0244,1.0016,0.0,0.0,0.0,0.0,0.0,0.0,0.0,0.0,0.8496,0.8742,0.0,0.9059,0.0,0.0,0.0,0.0,0.7169,0.688,0.0,0.0,0.5515,0.5466,0.547,0.606,0.6619,0.7107,0.7515,0.7695,0.7686,0.7708,0.0,0.0,0.0,0.0,0.0,0.0,0.751,0.7298,0.434,0.3493,0.5025,0.5093,0.5093,0.5103,0.4943,0.3319,0.0,0.0,0.0,0.0,0.7264,0.0,0.0,0.0,0.0,0.0,0.0,0.0,0.0,0.0,0.0,0.0,0.0,0.0,0.0,0.0,0.0,0.0,0.0,0.0,0.0,0.9485,0.0,0.0,0.0,0.0,0.0,0.0,0.0,0.0,0.0,0.0,0.983,0.9698,0.9765,0.9951,0.0,0.0,0.0,0.0,1.04,1.119,1.0626,1.0387,1.12,1.0633,1.0108,1.0104,0.0,0.0,1.2391,1.4059,1.4758,1.3648,1.153,1.0479,1.2251,1.2508,1.203,1.0508,1.012,1.0226,1.0944,1.0486,0.9968,0.8804,0.0,0.0,0.0,0.0,0.7368,0.7893,0.8326,0.8047,0.8431,0.922,0.8711,0.0,0.0,0.0,0.0,0.0,0.0,0.5335,0.4931,0.5071,0.5223,0.5409,0.5591,0.6175,0.7109,0.7496,0.768,0.7695,0.7695,0.7703,0.7713,0.0,0.0,0.0,0.0,0.5952,0.631,0.5074,0.4599,0.5093,0.5093,0.5093,0.5083,0.2723,0.1006,0.0,0.0,0.0,0.0,0.2162,0.0,0.0,0.0,0.0,0.0,0.0,0.0,0.0,0.0,0.0,0.0,0.0,0.0,0.0,0.0,0.0,0.0,0.0,0.0,0.9368,0.7486,0.7422,0.0,0.0,0.0,0.0,0.0,0.0,0.0,0.0,0.0,0.9753,0.9711,1.0144,0.0,0.0,1.0041,1.0628,1.0362,1.0166,1.0296,1.0211,0.0,1.0359,1.0234,1.006,0.9976,1.0029,1.0679,1.2401,1.4067,1.4565,1.2651,1.1061,1.0245,1.0684,1.0832,1.0644,1.0086,0.9931,0.9959,1.0153,1.001,0.9855,0.7035,0.8752,0.756,0.6815,0.6404,0.6531,0.6894,0.7422,0.7188,0.7507,0.8195,0.7709,0.8091,0.8946,0.7511,0.0,0.0,0.0,0.5285,0.4971,0.5229,0.5511,0.5896,0.6016,0.6517,0.733,0.7568,0.7695,0.7695,0.7695,0.769,0.7703,0.0,0.0,0.7292,0.5987,0.5442,0.5615,0.5288,0.5093,0.5093,0.5093,0.5093,0.5039,0.2452,0.1127,0.1283,0.0457,0.0,0.0,0.0,0.2177,0.0,0.0,0.0,0.0,0.0,0.0,0.0,0.0,0.0,0.0,0.0,1.1242,1.0747,0.0,0.0,0.0,0.9088,0.9593,1.1253,0.9172,0.0,0.0,0.0,0.0,0.0,0.0,0.0,0.9772,0.9642,0.9607,0.9689,0.9609,0.9938,1.0998,1.0324,0.991,1.0417,0.0,0.9966,0.9825,0.9887,0.9945,0.9994,1.0044,1.0034,0.9857,0.9888,1.0272,1.1373,1.2507,1.2906,1.2185,1.0954,0.9976,1.0088,1.0026,1.02,1.0703,1.032,1.0007,1.0337,1.0079,0.9754,0.4742,0.4468,0.5609,0.6052,0.5975,0.5889,0.594,0.612,0.6164,0.6402,0.6732,0.648,0.6819,0.7542,0.6751,0.0,0.5891,0.5917,0.5718,0.5411,0.5609,0.6038,0.6607,0.6871,0.7237,0.7671,0.7627,0.7661,0.7695,0.7695,0.7695,0.7681,0.731,0.7036,0.6891,0.6244,0.5674,0.5204,0.5219,0.5175,0.5088,0.5098,0.5093,0.5078,0.3632,0.2887,0.298,0.1442,0.0358,0.0,0.0,0.0,0.0,0.0,0.0,0.0,0.0,0.0,0.0,0.0,0.0,0.0,0.0,0.0,0.0,0.0,0.0,0.0,0.9123,0.0,1.3988,1.2954,0.0,0.0,0.0,1.2659,1.2501,1.2123,1.1315,0.9873,0.0,0.0,0.9616,0.9437,0.9358,0.9576,0.9596,0.9631,0.9777,0.9836,0.9815,0.9687,0.9681,0.9817,1.0229,1.0172,0.9971,0.9745,0.9706,0.978,0.9973,1.011,1.0804,1.2036,1.0942,0.9782,1.002,0.9878,1.0207,1.1657,1.1014,1.0366,1.092,1.0373,0.971,0.4046,0.3821,0.4198,0.4347,0.4308,0.5108,0.5818,0.6402,0.6589,0.724,0.816,0.7435,0.6953,0.6584,0.5909,0.5708,0.5868,0.5294,0.5142,0.538,0.5161,0.5286,0.5704,0.6031,0.6559,0.7207,0.7164,0.7296,0.7691,0.7695,0.7695,0.7676,0.7282,0.708,0.7041,0.687,0.6558,0.6085,0.6076,0.5764,0.5124,0.5094,0.5093,0.5093,0.4955,0.3592,0.0975,0.3541,0.3475,0.0,0.0,0.0,0.0,0.0,0.0,0.0,0.0,0.0,0.0,0.0,0.0,0.0,0.0,1.3563,1.3897,0.0,1.2113,0.0,1.0983,1.2401,1.2494,1.2073,0.0,0.0,1.1658,1.2134,1.3744,1.1613,0.9897,0.9729,0.9482,0.9254,0.9095,0.9213,0.9162,0.8778,0.9099,0.9698,1.0527,0.9959,0.9446,0.9491,0.9593,1.0163,1.1256,1.0562,0.9875,0.9713,0.9732,0.9722,0.9812,0.98,0.9959,1.0388,1.011,0.9741,0.9791,0.9809,0.9914,1.0333,1.095,1.1279,1.0466,0.9959,0.9721,0.3314,0.3602,0.3672,0.3655,0.3671,0.4533,0.5324,0.5955,0.6065,0.6814,0.7938,0.7432,0.6798,0.6017,0.5522,0.5421,0.5613,0.5543,0.5526,0.5604,0.5385,0.5495,0.5904,0.6201,0.668,0.7359,0.7213,0.7338,0.7679,0.7644,0.7649,0.7693,0.7482,0.7378,0.7363,0.6992,0.6665,0.6416,0.6411,0.6097,0.5447,0.5585,0.5763,0.5944,0.6033,0.5282,0.3591,0.5044,0.4914,0.2808,0.0968,0.0,0.0,0.0,0.1591,0.0,0.0,0.0,0.0,0.0,0.0,0.0,0.0,0.0,0.0,0.0,1.1962,1.1,1.2431,1.3166,1.2622,1.2491,1.2511,1.2617,1.1818,1.1834,1.3116,1.1311,0.9807,0.9393,0.9293,0.917,0.8943,0.903,0.889,0.8288,0.8885,0.9542,0.9869,0.9472,0.9263,0.9684,0.9524,1.0157,1.231,1.2224,1.1833,1.1717,1.064,0.9848,1.0334,1.0024,0.9717,0.975,0.9723,0.9707,0.9715,0.9763,0.9791,0.9921,1.0452,1.0925,1.0885,1.0287,0.9827,0.2375,0.317,0.3332,0.3511,0.3624,0.4096,0.4641,0.5182,0.5252,0.5862,0.6816,0.6933,0.6524,0.5697,0.5422,0.5359,0.552,0.6165,0.6281,0.6009,0.5946,0.6144,0.6492,0.6758,0.7124,0.7564,0.744,0.7508,0.7654,0.7541,0.7488,0.7535,0.7598,0.7587,0.7501,0.679,0.6468,0.6572,0.6528,0.6313,0.5989,0.625,0.6556,0.6895,0.679,0.7096,0.7856,0.6366,0.5819,0.6414,0.3323,0.1513,0.1506,0.1516,0.4743,0.0,1.3837,0.0,0.0,0.0,0.0,0.0,0.0,0.0,0.0,1.08,1.1061,1.3234,1.3396,1.3371,1.3295,1.3354,1.3417,1.3453,1.2383,1.1629,1.1609,1.0977,1.0106,0.9018,0.902,0.9029,0.8782,0.8776,0.8537,0.8095,0.8635,0.9132,0.8953,0.8919,0.9202,1.005,0.9628,1.0356,1.2721,1.3844,1.4134,1.3928,1.1965,1.0346,1.0995,1.0351,0.9706,0.9698,0.9661,0.9645,0.9698,0.9707,0.9739,0.9838,0.9849,1.0226,1.1206,1.0699,0.9956,0.0532,0.08,0.1945,0.2876,0.3595,0.3723,0.3987,0.4435,0.5014,0.5432,0.5714,0.659,0.6535,0.5698,0.5431,0.5738,0.6506,0.6186,0.6257,0.6604,0.6304,0.6198,0.633,0.6681,0.6903,0.7086,0.7269,0.741,0.7446,0.7449,0.7202,0.675,0.6962,0.6945,0.6712,0.0,0.0,0.0,0.7117,0.6934,0.6846,0.6553,0.643,0.6532,0.6672,0.0,0.8157,0.8125,0.8424,0.9145,0.9423,0.0,0.0,0.0,0.0,0.0,0.0,0.0,0.0,0.0,0.0,0.0,1.3096,1.3123,1.3266,1.2932,1.2913,1.3362,1.3396,1.3227,1.2793,1.3158,1.2856,1.1536,1.1285,1.122,1.116,0.9946,0.897,0.8914,0.8716,0.8449,0.8173,0.8083,0.8075,0.8008,0.8082,0.844,0.8947,0.8918,0.919,0.995,1.0479,1.1339,1.3117,1.3523,1.3683,1.3401,1.2635,1.1449,1.0878,1.0202,0.9726,0.9698,0.9519,0.9449,0.9637,0.9707,0.9713,0.9741,0.9721,0.9852,1.035,1.014,0.9875,-0.0,-0.0,0.0811,0.1414,0.0,0.3085,0.3372,0.3099,0.3928,0.4522,0.4849,0.5175,0.5446,0.5742,0.599,0.6084,0.6065,0.5754,0.5748,0.6051,0.5855,0.5785,0.5785,0.5798,0.6105,0.6684,0.6663,0.713,0.8,0.753,0.6968,0.6343,0.6696,0.6782,0.6516,0.6514,0.6695,0.7107,0.729,0.731,0.7119,0.7075,0.714,0.7347,0.7473,0.0,0.0,0.0,0.0,0.0,0.0,0.0,0.0,1.1196,0.0,1.3635,1.1725,1.1739,1.4469,1.3838,1.3419,1.3742,1.317,1.3074,1.3711,1.3052,1.2602,1.2602,1.2618,1.249,1.2254,1.2463,1.2146,1.1033,1.0369,1.028,1.0835,0.9991,0.9554,1.0152,0.9923,0.9242,0.8041,0.7908,0.8205,0.8745,0.8675,0.8505,0.8489,0.844,0.9081,1.1284,1.1958,1.249,1.3201,1.3396,1.3487,1.345,1.2459,1.1662,1.1555,1.0519,0.9707,0.9691,0.9523,0.9412,0.934,0.9508,0.9707,0.9707,0.9707,0.9732,0.9881,0.985,0.9866,-0.0,-0.0,-0.0,-0.0,0.019,0.2379,0.2734,0.1873,0.2884,0.0,0.0,0.3784,0.4301,0.5525,0.654,0.6382,0.5319,0.5098,0.5107,0.5319,0.5293,0.5259,0.523,0.503,0.5393,0.6235,0.604,0.675,0.8308,0.7404,0.6684,0.6274,0.6545,0.6566,0.6307,0.6372,0.6397,0.6414,0.7054,0.7329,0.7107,0.7386,0.7752,0.8171,0.8176,0.8533,0.9182,0.9214,0.949,1.009,0.9906,1.0268,1.1275,1.0821,1.0781,1.1239,0.8113,0.8716,1.442,1.3914,1.3634,1.44,1.3312,1.2845,1.3411,1.2433,1.1819,1.1819,1.1819,1.1745,1.1603,1.173,1.1493,1.0741,0.9497,0.9255,1.0366,0.9986,1.0008,1.1392,1.1139,1.0323,0.891,0.8476,0.8628,0.9506,0.9219,0.8738,0.8132,0.8251,0.9346,1.1577,1.2551,1.3337,1.3396,1.3396,1.3517,1.3643,1.2336,1.151,1.1824,1.0986,0.9983,0.9709,0.9574,0.9344,0.9069,0.9322,0.9633,0.9698,0.9719,0.9741,0.9712,0.979,0.9901,-0.0,-0.0,-0.0,-0.0,0.0095,0.1465,0.1969,0.1898,0.288,0.3464,0.3702,0.3644,0.3977,0.4653,0.6264,0.6368,0.5254,0.4314,0.4375,0.5313,0.5321,0.5202,0.501,0.5469,0.565,0.5508,0.5784,0.6364,0.7062,0.636,0.5987,0.6121,0.5981,0.5717,0.5512,0.5831,0.5989,0.5994,0.6228,0.6554,0.7082,0.6934,0.713,0.7758,0.7778,0.7981,0.8421,0.8477,0.8634,0.8991,0.9191,0.9564,1.0152,1.1756,1.1963,1.038,1.0491,1.0919,1.1355,1.2536,1.3216,1.306,1.2334,1.1915,1.2052,1.1917,1.1819,1.1819,1.1819,1.1476,1.0855,1.1311,1.1024,0.9641,0.8612,0.8265,0.8853,0.8654,0.9226,1.1281,1.1082,1.0861,1.0925,1.017,0.9538,0.9636,0.8863,0.8057,0.8146,0.9042,0.9621,0.9952,1.1779,1.3159,1.3396,1.3396,1.3412,1.347,1.2675,1.1842,1.1529,1.0997,1.0349,0.9825,0.9474,0.9275,0.9233,0.9248,0.942,0.9615,0.9766,0.9813,0.9732,0.9873,1.0042,-0.0,-0.0,-0.0,-0.0,0.0049,0.06,0.1213,0.1886,0.2981,0.3514,0.3587,0.3688,0.3943,0.4395,0.4951,0.5033,0.4781,0.3984,0.4031,0.4797,0.4831,0.4744,0.4655,0.5062,0.5101,0.4834,0.4692,0.514,0.5938,0.5594,0.5258,0.5055,0.5055,0.4927,0.4646,0.5234,0.5456,0.5194,0.5936,0.647,0.6768,0.6855,0.7053,0.7364,0.7573,0.7865,0.8285,0.8303,0.8461,0.8783,0.8805,0.9222,1.0075,1.0953,1.1476,1.1682,1.1625,1.1861,1.2469,1.2782,1.2628,1.1832,1.1451,1.127,1.131,1.1623,1.1797,1.1819,1.1819,1.164,1.1191,1.0301,0.9513,0.9197,0.962,0.9489,0.8543,0.9371,0.9945,0.9875,1.0608,1.1356,1.1745,1.069,0.9555,0.8948,0.8188,0.7914,0.7929,0.8886,1.0127,1.1135,1.1864,1.2441,1.3185,1.3396,1.3176,1.2714,1.2385,1.1677,1.0709,1.0242,1.0114,0.9798,0.9493,0.9355,0.933,0.9304,0.9377,0.9481,0.9705,0.9778,0.9747,0.9907,1.0096,-0.0,-0.0,-0.0,-0.0,-0.0,-0.0,0.0553,0.1521,0.2941,0.3502,0.3424,0.3623,0.3936,0.414,0.3796,0.3836,0.4134,0.3794,0.3808,0.4172,0.4236,0.424,0.4218,0.437,0.4355,0.4176,0.3811,0.4071,0.4806,0.4868,0.4579,0.4148,0.444,0.4445,0.4156,0.4893,0.5119,0.4823,0.572,0.6271,0.6358,0.6708,0.6956,0.7114,0.75,0.7865,0.8148,0.8156,0.8282,0.8512,0.8413,0.8776,0.9787,0.9785,1.0592,1.2369,1.2259,1.2436,1.346,1.2716,1.1804,1.1082,1.0861,1.0798,1.0917,1.1169,1.1371,1.1387,1.1319,1.1313,1.1117,0.9999,0.8907,0.9239,1.0155,1.008,0.8874,1.0406,1.1109,0.9344,1.0421,1.1521,1.1521,1.069,0.9445,0.8267,0.8132,0.8281,0.8094,0.8673,1.0365,1.2207,1.2189,1.1733,1.2756,1.3227,1.2911,1.1969,1.1828,1.1239,1.0193,0.9762,0.9653,0.9658,0.9594,0.9492,0.9412,0.9403,0.9448,0.9517,0.97,0.9813,0.9819,0.9976,1.0119,-0.0,-0.0,-0.0,-0.0,-0.0,-0.0,-0.0,0.0487,0.2572,0.3255,0.2906,0.3374,0.3674,0.3681,0.3626,0.3621,0.3709,0.3622,0.3624,0.3714,0.3667,0.367,0.3723,0.3716,0.3709,0.3713,0.3621,0.366,0.3873,0.4037,0.4132,0.4213,0.446,0.4564,0.4602,0.502,0.5274,0.5246,0.5337,0.5582,0.5952,0.6112,0.6497,0.7109,0.7505,0.7695,0.7803,0.7754,0.7783,0.7778,0.7837,0.8069,0.8621,0.8927,0.9707,1.1146,1.234,1.2882,1.2367,1.1146,1.07,1.1143,1.0647,1.0469,1.0769,1.0404,1.0089,1.0133,1.0132,1.0173,1.0151,1.0727,1.0449,0.9137,0.8781,0.8589,0.9646,1.0937,1.1678,1.1521,1.0974,1.0927,1.1513,1.06,0.9336,0.8199,0.8857,0.9149,0.8386,0.888,1.0255,1.233,1.2375,1.1643,1.175,1.2534,1.253,1.1624,1.1268,1.0861,1.0284,0.9778,0.9475,0.965,0.9596,0.9537,0.9586,0.9584,0.9533,0.9624,0.9775,0.9927,1.003,1.0126,1.0175,-0.0,-0.0,-0.0,-0.0,-0.0,-0.0,-0.0,-0.0,0.1046,0.1907,0.2793,0.3711,0.397,0.37,0.3619,0.358,0.358,0.358,0.358,0.358,0.358,0.3641,0.3693,0.3629,0.362,0.3734,0.3622,0.358,0.3581,0.3497,0.3446,0.3514,0.3971,0.4123,0.3943,0.482,0.5179,0.489,0.5147,0.5369,0.5568,0.6053,0.6483,0.6794,0.7387,0.7836,0.806,0.8112,0.8233,0.8444,0.8459,0.8301,0.8045,0.8148,0.893,1.0442,1.144,1.1715,1.1116,1.0297,0.9845,0.9818,0.972,0.9646,0.967,0.9798,0.9881,0.9881,0.9881,1.0007,1.0272,1.0559,1.0341,0.96,0.9239,0.9302,0.982,1.0819,1.1518,1.1709,1.1491,1.1356,1.1393,0.9972,0.8799,0.8537,0.9338,0.9583,0.9166,0.9483,1.02,1.114,1.0752,1.0961,1.1831,1.1219,1.1399,1.1921,1.1213,1.0181,0.9922,0.9671,0.9457,0.9649,0.9595,0.957,0.9658,0.9693,0.9682,0.9759,0.9887,1.0049,1.0096,1.0156,1.0184,-0.0,-0.0,-0.0,-0.0,-0.0,-0.0,-0.0,-0.0,-0.0,0.0771,0.205,0.3758,0.4257,0.3827,0.3691,0.358,0.358,0.358,0.358,0.358,0.358,0.3685,0.3797,0.3673,0.3688,0.376,0.369,0.362,0.3556,0.3361,0.3169,0.3127,0.3714,0.3885,0.3697,0.4734,0.5186,0.4956,0.5196,0.5351,0.5616,0.6125,0.6539,0.6729,0.7497,0.8149,0.854,0.8618,0.8756,0.9004,0.899,0.8741,0.8216,0.7875,0.8496,1.0051,1.0548,1.0537,1.0121,0.9587,0.9077,0.8734,0.8767,0.8701,0.8634,0.8989,0.9271,0.9245,0.9298,0.951,1.0248,1.0104,0.9899,0.9894,0.9898,0.9854,0.9672,1.0561,1.1299,1.1165,1.1391,1.1708,1.1251,0.9531,0.8207,0.9068,0.969,0.9994,1.0017,1.0148,1.0551,1.0511,0.967,0.9971,1.1893,1.1089,1.0661,1.0981,1.0622,1.0223,0.9716,0.9735,0.9412,0.9542,0.9543,0.9584,0.9665,0.973,0.9809,0.9844,0.9964,1.0105,1.0104,1.0165,1.0206,-0.0,-0.0,-0.0,-0.0,-0.0,-0.0,-0.0,-0.0,-0.0,-0.0,-0.0,0.3111,0.4226,0.3899,0.367,0.3583,0.358,0.3633,0.3593,0.3638,0.3643,0.3692,0.3817,0.3763,0.3783,0.3805,0.376,0.369,0.3619,0.359,0.3508,0.3344,0.3917,0.4189,0.4306,0.4949,0.5428,0.558,0.5464,0.5581,0.606,0.6266,0.6561,0.7135,0.8034,0.8649,0.897,0.9221,0.925,0.9038,0.9073,0.9114,0.9194,0.8279,0.8481,0.9945,0.9882,0.9641,0.9464,0.8803,0.8347,0.8251,0.8033,0.7807,0.7874,0.7961,0.7999,0.786,0.7999,0.8489,0.9601,0.9873,0.988,0.9894,0.9881,0.9622,0.9016,1.042,1.0797,1.0111,1.0898,1.1477,1.0895,0.9142,0.8812,0.9516,1.0174,1.0413,1.0309,1.0974,1.1316,1.0772,0.9904,0.9301,1.0301,1.0168,0.9762,1.021,1.0864,1.0921,1.077,1.0494,0.987,0.9456,0.9543,0.9626,0.968,0.9764,0.9863,0.9933,1.0011,1.01,1.0123,1.0165,1.0206,-0.0,-0.0,-0.0,-0.0,-0.0,-0.0,-0.0,-0.0,-0.0,-0.0,-0.0,-0.0,0.2443,0.388,0.3673,0.358,0.36,0.3727,0.377,0.3726,0.3814,0.3953,0.4028,0.39,0.3848,0.3902,0.3748,0.3677,0.3615,0.3598,0.3816,0.4186,0.4373,0.463,0.5054,0.5602,0.5937,0.6008,0.592,0.5984,0.6193,0.6375,0.6885,0.7758,0.8152,0.8676,0.9364,0.9466,0.9604,0.9819,0.9823,0.9866,0.9819,0.8508,0.7939,0.8567,0.8738,0.8485,0.7746,0.7568,0.7545,0.7525,0.7652,0.7695,0.7695,0.7695,0.7695,0.7695,0.7695,0.8028,0.8489,0.9304,0.9873,0.9873,0.9867,0.9773,0.9536,0.9596,0.9516,0.9812,1.0902,1.1468,1.0885,1.0443,1.0144,0.9698,1.0511,1.1087,1.1199,1.1565,1.1491,1.0485,0.9564,0.9001,0.9289,0.945,0.9493,1.0163,1.0703,1.0859,1.0825,1.0258,0.963,0.9448,0.9526,0.9665,0.9721,0.9822,0.9922,1.003,1.0109,1.0133,1.0165,1.0192,1.0215,-0.0,-0.0,-0.0,-0.0,-0.0,-0.0,-0.0,-0.0,-0.0,-0.0,-0.0,-0.0,0.1026,0.2598,0.3296,0.3339,0.3128,0.3526,0.3808,0.3868,0.4007,0.4107,0.4148,0.3986,0.3965,0.397,0.3722,0.358,0.3614,0.3607,0.3858,0.4307,0.4548,0.4904,0.5359,0.5904,0.623,0.6297,0.6246,0.6263,0.6455,0.6533,0.7069,0.7948,0.8253,0.8834,0.9755,0.9834,0.9966,1.0273,1.0322,1.0156,0.978,0.8779,0.7978,0.7749,0.7806,0.7523,0.672,0.6892,0.7066,0.6938,0.7398,0.7695,0.7695,0.7695,0.7695,0.7695,0.7695,0.7695,0.786,0.8601,0.9343,0.9646,0.9828,0.9784,0.9577,0.912,0.928,0.991,1.1017,1.1413,1.1094,1.1186,1.0867,1.0054,1.0932,1.1381,1.173,1.1766,1.117,0.9757,0.9197,0.8934,0.9124,0.9273,0.9413,1.003,1.0086,1.0394,1.058,0.9987,0.9652,0.9509,0.9516,0.9667,0.9789,0.9887,0.9996,1.0107,1.0152,1.0171,1.0192,1.0212,1.0222,-0.0,-0.0,-0.0,-0.0,-0.0,-0.0,-0.0,-0.0,-0.0,-0.0,-0.0,-0.0,-0.0,-0.0,0.233,0.2842,0.2303,0.2839,0.3395,0.3746,0.3959,0.4097,0.422,0.4229,0.4112,0.3985,0.3717,0.3581,0.3621,0.3607,0.3646,0.38,0.4501,0.4939,0.4982,0.5832,0.6343,0.649,0.6401,0.6512,0.6901,0.6754,0.7033,0.7881,0.8371,0.9076,1.0171,1.0244,1.0244,1.0269,1.0288,0.9868,0.9224,0.8862,0.848,0.7604,0.7214,0.6859,0.6617,0.6846,0.688,0.6704,0.7168,0.748,0.7666,0.7695,0.7695,0.7695,0.7695,0.7695,0.77,0.7994,0.8483,0.9217,0.9639,0.9563,0.9243,0.9462,0.9874,1.004,1.0895,1.1696,1.1604,1.1177,1.0912,1.1277,1.113,1.1064,1.1664,1.1819,1.0801,0.9328,0.882,0.8922,0.9087,0.9302,0.9501,0.9689,0.9488,0.9533,0.9945,0.9705,0.9703,0.9601,0.9682,0.9822,0.9861,0.9962,1.0044,1.0136,1.0173,1.0192,1.02,1.0216,1.0223,-0.0,-0.0,-0.0,-0.0,-0.0,-0.0,-0.0,-0.0,-0.0,-0.0,-0.0,-0.0,-0.0,-0.0,0.0855,0.1373,0.1751,0.1423,0.1597,0.2389,0.2715,0.337,0.4222,0.4367,0.4224,0.3871,0.3673,0.3581,0.3583,0.3583,0.3612,0.3711,0.4242,0.499,0.5705,0.6065,0.6407,0.6816,0.68,0.686,0.6965,0.6892,0.7224,0.7818,0.8077,0.8679,0.9681,1.0079,1.0283,1.0264,0.999,0.9575,0.9043,0.8442,0.747,0.6361,0.6987,0.7162,0.6609,0.6622,0.6677,0.6482,0.6295,0.6656,0.751,0.7695,0.7695,0.7695,0.7695,0.7695,0.7831,0.8645,0.9145,0.9236,0.9363,0.9525,0.9525,0.9734,0.9867,0.9931,1.026,1.0825,1.1475,1.127,1.1263,1.165,1.1522,1.158,1.1723,1.1715,1.1272,0.9773,0.9447,0.8919,0.9033,0.9117,0.9258,0.9501,0.9402,0.9245,0.952,0.9706,0.9705,0.9752,0.9847,0.993,0.9973,1.0024,1.0094,1.0167,1.0217,1.0217,1.0197,1.0195,1.0207,-0.0502,-0.0,-0.0,-0.0,-0.0,-0.0,-0.0,-0.0,-0.0966,-0.0853,-0.0,-0.0,-0.1082,-0.1331,-0.0563,0.0415,0.1036,0.0324,0.0383,0.1087,0.1269,0.2178,0.3629,0.4284,0.4392,0.4031,0.3765,0.3619,0.3611,0.3608,0.3619,0.3693,0.4341,0.5079,0.5873,0.6301,0.6683,0.6975,0.6965,0.6975,0.6975,0.6975,0.715,0.753,0.7818,0.8263,0.891,0.9419,0.9791,0.9914,0.9629,0.9399,0.9325,0.7862,0.6595,0.6474,0.6504,0.6652,0.6488,0.6514,0.6417,0.6242,0.5933,0.6124,0.7098,0.7462,0.7695,0.7695,0.7695,0.7695,0.7865,0.8722,0.9285,0.9079,0.9341,0.9569,0.9829,0.9873,0.9873,0.9957,1.0173,1.0556,1.0862,1.1497,1.1512,1.1776,1.1979,1.1965,1.1787,1.1349,1.0565,0.9837,0.9255,0.8939,0.8919,0.8955,0.9007,0.9262,0.9484,0.943,0.9545,0.9656,0.9706,0.9793,0.9888,0.9992,1.0051,1.0068,1.0112,1.0188,1.0256,1.0244,1.0222,1.0197,1.0194,-0.1503,-0.0278,-0.0,-0.0,-0.0,-0.0,-0.0,-0.0,-0.2309,-0.2145,-0.089,-0.1304,-0.2634,-0.3425,-0.1672,-0.0462,-0.0,-0.0,-0.0,-0.0,-0.0,0.1006,0.245,0.3869,0.4439,0.4315,0.3917,0.3678,0.3675,0.362,0.3622,0.372,0.457,0.5262,0.5521,0.638,0.6891,0.6979,0.6975,0.6975,0.6975,0.6975,0.7021,0.7059,0.7634,0.7949,0.802,0.8404,0.8893,0.9334,0.9169,0.9307,0.9349,0.7037,0.6048,0.7026,0.6048,0.5952,0.6248,0.6457,0.6352,0.6052,0.6267,0.6537,0.6832,0.7385,0.7695,0.7695,0.7695,0.7764,0.8012,0.8474,0.8867,0.8981,0.9493,0.9823,0.9873,0.9873,0.9873,0.9995,1.0398,1.0715,1.0347,1.1174,1.1505,1.1855,1.2123,1.2087,1.1693,1.0959,0.9844,0.9284,0.899,0.8939,0.8911,0.8922,0.8955,0.9054,0.9321,0.9439,0.9534,0.9649,0.9761,0.9847,0.9937,1.0047,1.0106,1.0113,1.0142,1.0224,1.0252,1.0253,1.0231,1.0201,1.0189,-0.369,-0.3347,-0.3325,-0.3304,-0.3138,-0.2142,-0.1519,-0.1439,-0.2184,-0.2811,-0.267,-0.2103,-0.2723,-0.3946,-0.3545,-0.2158,-0.0,-0.0,-0.0,-0.0,-0.0,-0.0,0.2235,0.3727,0.4428,0.4311,0.4264,0.411,0.3899,0.3696,0.362,0.3629,0.4353,0.4913,0.5348,0.6084,0.6598,0.6937,0.6975,0.6975,0.6975,0.6975,0.6975,0.7017,0.7182,0.7384,0.7538,0.7845,0.8053,0.8275,0.8791,0.876,0.833,0.6478,0.5557,0.5804,0.5701,0.5375,0.5683,0.6195,0.6332,0.6121,0.6525,0.6942,0.7351,0.7545,0.7695,0.7695,0.77,0.8152,0.8928,0.8964,0.9063,0.953,0.9778,0.9873,0.9873,0.9873,0.9873,0.9925,1.0104,1.0476,1.0912,1.107,1.1275,1.1688,1.1962,1.1921,1.1452,1.094,1.0038,0.9282,0.8925,0.8917,0.8911,0.8911,0.8922,0.8925,0.9099,0.9304,0.9482,0.9706,0.9807,0.991,1.0006,1.0109,1.0124,1.0125,1.019,1.025,1.0234,1.0221,1.0219,1.0188,1.0192,-0.4473,-0.4473,-0.4502,-0.4482,-0.4384,-0.3521,-0.2985,-0.2792,-0.2952,-0.3459,-0.3863,-0.3139,-0.3208,-0.4038,-0.4253,-0.3506,-0.1915,-0.055,-0.0,-0.0,-0.0,-0.0,0.1593,0.335,0.4409,0.4325,0.4435,0.4399,0.4158,0.3826,0.3619,0.3776,0.4399,0.4957,0.5348,0.6124,0.6641,0.6933,0.6975,0.6975,0.6975,0.6975,0.6975,0.6975,0.6952,0.6929,0.6655,0.6933,0.7475,0.8098,0.8406,0.8201,0.763,0.6195,0.5344,0.5326,0.5527,0.5598,0.5525,0.6133,0.6484,0.6451,0.6831,0.7322,0.7583,0.7695,0.7695,0.7695,0.7695,0.8152,0.8736,0.8916,0.9261,0.973,0.9873,0.9873,0.9873,0.9873,0.9873,0.9951,1.0173,1.0391,1.1043,1.0994,1.1335,1.1739,1.2161,1.1826,1.1341,1.0844,1.0249,0.9371,0.8922,0.8933,0.8922,0.8911,0.9057,0.9048,0.9249,0.9394,0.9553,0.9789,0.9866,0.9974,1.0063,1.0129,1.0138,1.0148,1.0214,1.0244,1.0212,1.0192,1.0192,1.0189,1.0196,-0.4462,-0.4462,-0.4472,-0.4509,-0.4485,-0.4472,-0.4146,-0.4038,-0.4067,-0.4244,-0.4287,-0.4006,-0.3862,-0.4212,-0.4247,-0.4244,-0.4154,-0.1591,-0.0,-0.0,-0.0,-0.0,0.1434,0.3022,0.4164,0.4414,0.4499,0.4433,0.4221,0.3827,0.3638,0.3835,0.4705,0.5221,0.5521,0.6377,0.693,0.6975,0.6975,0.6975,0.6975,0.6975,0.6975,0.6969,0.6896,0.6483,0.6027,0.6179,0.7095,0.8674,0.8071,0.7798,0.7519,0.6229,0.5742,0.5702,0.6005,0.5907,0.5659,0.6282,0.6688,0.6548,0.7177,0.7695,0.77,0.7695,0.7695,0.7695,0.7695,0.7793,0.7996,0.8612,0.9304,0.9713,0.9829,0.9873,0.9873,0.9873,0.9873,0.9925,1.0485,1.0496,1.0598,1.0966,1.1747,1.1739,1.2009,1.1701,1.1226,1.0763,1.0041,0.913,0.8933,0.8966,0.8936,0.8913,0.9111,0.9269,0.9564,0.9733,0.9775,0.992,0.9946,1.0015,1.0141,1.0162,1.0129,1.0173,1.0236,1.0259,1.0248,1.0215,1.019,1.0196,1.0197,-0.4462,-0.4462,-0.4467,-0.4503,-0.4481,-0.4505,-0.435,-0.4173,-0.4336,-0.4361,-0.4283,-0.4144,-0.4153,-0.4195,-0.4216,-0.4283,-0.425,-0.2373,-0.1213,-0.0,-0.0,-0.0,0.2702,0.3235,0.3415,0.4183,0.4465,0.4377,0.4117,0.3853,0.3589,0.3784,0.4615,0.5305,0.5432,0.6334,0.6975,0.6975,0.6982,0.6975,0.6975,0.6975,0.6975,0.6959,0.6817,0.6518,0.6215,0.6442,0.6884,0.7265,0.7598,0.7693,0.753,0.7381,0.7217,0.7046,0.6567,0.6195,0.6077,0.6275,0.6403,0.6412,0.7172,0.7742,0.7695,0.7705,0.77,0.7695,0.7695,0.7695,0.7778,0.8717,0.928,0.954,0.9752,0.9873,0.9899,0.9925,1.0021,1.0104,1.0422,1.0835,1.125,1.1153,1.1586,1.1768,1.1719,1.1535,1.1124,1.067,0.9945,0.912,0.8968,0.9011,0.8964,0.8969,0.9153,0.9412,0.9735,0.9937,0.999,1.0001,1.0015,1.0092,1.0221,1.0215,1.0176,1.0181,1.0239,1.0257,1.0305,1.035,1.0351,1.0295,1.0517,-0.4462,-0.4462,-0.4462,-0.4462,-0.4462,-0.446,-0.4382,-0.4295,-0.4402,-0.438,-0.4199,-0.4128,-0.409,-0.4134,-0.4073,-0.4149,-0.3706,-0.2077,-0.0753,-0.0,-0.0,-0.0,0.3088,0.3444,0.3779,0.4438,0.4468,0.4386,0.4167,0.384,0.3596,0.3643,0.4482,0.4824,0.5041,0.6039,0.6559,0.6686,0.6898,0.6975,0.6975,0.6975,0.6975,0.6967,0.6801,0.6742,0.7375,0.6996,0.7079,0.7298,0.7602,0.7628,0.7701,0.8353,0.8877,0.8785,0.8071,0.6996,0.6586,0.6635,0.6868,0.6562,0.7336,0.7862,0.8016,0.7978,0.77,0.7695,0.7695,0.7695,0.7754,0.8398,0.8991,0.9413,0.9681,0.9873,0.997,1.0403,1.0801,1.0838,1.108,1.137,1.1564,1.1483,1.1557,1.1819,1.2009,1.1782,1.1002,1.0534,1.002,0.9416,0.9163,0.9036,0.8991,0.9042,0.9176,0.9479,0.9829,0.9982,1.0062,1.0067,1.0058,1.0154,1.0244,1.0273,1.0244,1.0244,1.0225,1.0224,1.0295,1.0461,1.0559,1.0525,1.1013,-0.4462,-0.4462,-0.4462,-0.4462,-0.4462,-0.446,-0.4399,-0.4316,-0.4407,-0.4399,-0.4222,-0.4122,-0.4083,-0.4007,-0.4028,-0.401,-0.3352,-0.0,-0.0,-0.0,-0.0,-0.0,0.232,0.3521,0.4303,0.4432,0.4467,0.4474,0.4294,0.394,0.3635,0.37,0.4134,0.4476,0.4694,0.5567,0.6264,0.6349,0.6771,0.6975,0.6975,0.6975,0.6975,0.6929,0.6844,0.7145,0.7656,0.7475,0.7278,0.7868,0.794,0.7773,0.8095,0.9057,1.0039,0.9883,0.8953,0.8304,0.7485,0.7275,0.7201,0.7082,0.7543,0.8051,0.8388,0.8425,0.8167,0.7793,0.7691,0.7782,0.7878,0.8298,0.8833,0.9289,0.9699,0.99,1.024,1.1116,1.1557,1.1659,1.143,1.1467,1.1667,1.1717,1.1768,1.1833,1.2007,1.1897,1.1116,1.0455,0.9971,0.9445,0.9119,0.9227,0.923,0.934,0.9452,0.9657,0.9997,1.0082,1.0158,1.0097,1.0092,1.0172,1.0234,1.0303,1.0322,1.0283,1.0264,1.0215,1.0235,1.0331,1.0504,1.0702,1.134,-0.4462,-0.4462,-0.4462,-0.4462,-0.4462,-0.446,-0.4496,-0.4489,-0.4436,-0.445,-0.4404,-0.4268,-0.4158,-0.4136,-0.4166,-0.4207,-0.3346,-0.0,-0.0,-0.0,-0.0,-0.0,0.2055,0.3573,0.4348,0.4328,0.4379,0.4467,0.4332,0.3931,0.3625,0.3717,0.4092,0.4347,0.465,0.5521,0.6136,0.6179,0.6686,0.6975,0.6975,0.6975,0.6975,0.6975,0.6889,0.7075,0.7231,0.7224,0.7484,0.8414,0.8537,0.898,0.9424,1.0035,0.9651,0.8896,0.8757,0.8695,0.8682,0.7667,0.7085,0.7072,0.7686,0.8016,0.8402,0.9004,0.8844,0.8037,0.7792,0.7962,0.8563,0.8585,0.8799,0.9286,0.9721,1.0114,1.0664,1.1293,1.179,1.1797,1.1601,1.1467,1.1667,1.1819,1.1819,1.1758,1.1771,1.1691,1.1169,1.0535,1.0007,0.9479,0.8962,0.9237,0.9516,0.9686,0.983,0.9972,1.0197,1.0274,1.0278,1.0142,1.0135,1.0186,1.035,1.0508,1.0478,1.0352,1.0254,1.0186,1.0177,1.0189,1.0564,1.0916,1.1249,-0.4395,-0.4506,-0.4382,-0.4395,-0.4494,-0.438,-0.4395,-0.4431,-0.4307,-0.4323,-0.4336,-0.4161,-0.4052,-0.4037,-0.3938,-0.3372,-0.0,-0.0,-0.0,-0.0,-0.0,0.0734,0.2006,0.3425,0.4039,0.4313,0.4436,0.4491,0.4402,0.3865,0.3608,0.3643,0.3878,0.3965,0.4224,0.5089,0.5655,0.5916,0.651,0.6975,0.6975,0.6975,0.6975,0.6975,0.6975,0.6975,0.7063,0.7363,0.7855,0.8622,0.9226,0.976,1.0123,1.0147,0.9875,0.9078,0.8766,0.8545,0.8721,0.7621,0.7496,0.7339,0.8056,0.8747,0.9119,0.9667,0.9409,0.8314,0.8132,0.8233,0.8216,0.8788,0.9209,0.9298,0.9643,1.0182,1.0817,1.1432,1.1703,1.1819,1.1711,1.1667,1.1711,1.1819,1.1819,1.1742,1.1637,1.1397,1.1142,1.0712,1.0198,1.0,0.9512,0.9178,0.9549,0.9815,0.9973,1.0154,1.0844,1.0921,1.0542,1.0464,1.0283,1.0193,1.039,1.1313,1.0488,1.0312,1.0234,1.0205,1.0171,1.029,1.0752,1.1143,1.1412,-0.4276,-0.4391,-0.4252,-0.4333,-0.4433,-0.4341,-0.4358,-0.4394,-0.4194,-0.4231,-0.4431,-0.4076,-0.3943,-0.3832,-0.3023,-0.0,-0.0,-0.0,-0.0,-0.0,-0.0,0.0746,0.2061,0.3181,0.4015,0.4212,0.4474,0.4462,0.4387,0.3872,0.362,0.3602,0.3622,0.358,0.3884,0.4831,0.5135,0.565,0.6377,0.6975,0.6975,0.6975,0.6975,0.6975,0.6975,0.6975,0.7059,0.7367,0.7863,0.8431,0.9035,0.9632,0.9873,0.9751,0.9623,0.95,0.8829,0.7931,0.75,0.7536,0.7644,0.7797,0.8371,0.9167,0.9762,0.9651,0.9116,0.8153,0.8523,0.8844,0.8701,0.9224,0.9575,0.9569,0.9719,1.016,1.0808,1.137,1.1739,1.1819,1.1819,1.1819,1.1819,1.1938,1.1951,1.1987,1.1893,1.1445,1.1199,1.0945,1.0592,1.0612,1.0211,0.943,0.9471,0.9844,0.9991,1.0115,1.1412,1.2337,1.1568,1.0856,1.0792,1.0999,1.2353,1.2975,1.1657,1.0656,1.1061,1.1088,1.0491,1.0281,1.054,1.0952,1.1326,-0.4165,-0.4051,-0.4141,-0.4333,-0.4505,-0.4486,-0.4436,-0.4426,-0.426,-0.4309,-0.444,-0.4007,-0.4011,-0.3628,-0.1557,-0.0405,-0.0,-0.0,-0.0,-0.0,-0.0,0.087,0.1891,0.3637,0.3976,0.4058,0.4273,0.4444,0.4337,0.3882,0.3608,0.3609,0.358,0.358,0.3709,0.4744,0.5265,0.5518,0.6416,0.6975,0.6975,0.6975,0.6975,0.6975,0.6975,0.6975,0.6975,0.7192,0.744,0.7863,0.7603,0.7968,0.8504,0.7882,0.7516,0.7391,0.7224,0.714,0.7049,0.7358,0.774,0.8146,0.8359,0.8951,0.9515,0.9009,0.8164,0.7906,0.8789,0.9522,0.9357,0.9712,0.9841,0.9816,0.9816,1.023,1.0777,1.1422,1.1754,1.1819,1.1819,1.1819,1.1819,1.1965,1.2105,1.2156,1.2087,1.1689,1.1408,1.1281,1.0773,1.0691,1.0992,1.0351,1.1024,1.1159,1.111,1.0892,1.2065,1.3571,1.2828,1.2109,1.2048,1.2551,1.3864,1.4017,1.2477,1.1863,1.2223,1.2063,1.1584,1.0839,1.0142,1.0659,1.1469,-0.4344,-0.3973,-0.4068,-0.4255,-0.4496,-0.4377,-0.4341,-0.429,-0.4094,-0.4043,-0.4068,-0.3819,-0.3458,-0.2724,-0.0766,-0.0,-0.0,-0.0,-0.0,-0.0,0.1097,0.1511,0.1407,0.2843,0.3877,0.3902,0.3936,0.4066,0.4024,0.3871,0.3623,0.36,0.358,0.358,0.3709,0.4746,0.5178,0.5604,0.6331,0.693,0.6975,0.6975,0.6975,0.6975,0.6975,0.6975,0.6975,0.7017,0.7101,0.7318,0.7066,0.7185,0.7558,0.7308,0.7017,0.7017,0.7017,0.7017,0.7056,0.7554,0.8002,0.8364,0.8594,0.9346,0.9743,0.8794,0.7695,0.7695,0.8241,0.8969,0.9732,0.9873,0.9873,0.9924,1.027,1.0187,1.0648,1.137,1.1819,1.1819,1.1811,1.1832,1.1832,1.1882,1.2254,1.272,1.266,1.2348,1.2165,1.2105,1.1425,1.0612,1.1062,1.1349,1.2629,1.3495,1.3517,1.3388,1.3426,1.4453,1.4044,1.3622,1.3438,1.3499,1.4284,1.397,1.2974,1.3219,1.3705,1.3292,1.2738,1.1791,1.0983,1.157,1.2274,-0.4773,-0.4723,-0.4237,-0.4157,-0.4341,-0.4237,-0.4174,-0.4107,-0.3917,-0.3832,-0.3816,-0.3687,-0.305,-0.2013,-0.0,-0.0,-0.0,-0.0,-0.0,-0.0,0.1522,0.1839,0.1724,0.268,0.2927,0.3576,0.3622,0.3722,0.3807,0.3719,0.3623,0.3583,0.358,0.358,0.3882,0.4484,0.513,0.5696,0.6504,0.6933,0.6975,0.6975,0.6975,0.6975,0.6975,0.6975,0.6975,0.6975,0.7017,0.7021,0.7021,0.7056,0.7101,0.7059,0.6975,0.6975,0.6975,0.6975,0.7185,0.7569,0.8025,0.8248,0.8704,0.927,0.9479,0.8489,0.7695,0.7695,0.8382,0.9002,0.9549,0.9873,1.0002,1.0476,1.113,1.071,1.053,1.1353,1.184,1.184,1.1846,1.1896,1.1891,1.1824,1.2265,1.3112,1.3188,1.2936,1.2876,1.2844,1.2591,1.1806,1.1627,1.2317,1.373,1.4866,1.5205,1.5313,1.5313,1.5199,1.471,1.463,1.4573,1.4756,1.4866,1.4676,1.4138,1.4668,1.5051,1.407,1.3147,1.2493,1.2118,1.2661,1.3129,-0.5377,-0.6639,-0.4911,-0.4128,-0.4047,-0.4149,-0.4112,-0.4026,-0.3863,-0.3863,-0.3821,-0.3605,-0.3379,-0.2835,-0.0,-0.0,-0.0,-0.0,-0.0,-0.0,0.0289,0.1383,0.1698,0.1614,0.153,0.2668,0.3268,0.36,0.3646,0.3676,0.3602,0.358,0.358,0.358,0.384,0.4358,0.5221,0.5913,0.6686,0.6975,0.6975,0.6975,0.6975,0.6975,0.6975,0.6975,0.6975,0.6975,0.6975,0.6975,0.6975,0.6975,0.6975,0.6975,0.6975,0.6975,0.6975,0.6975,0.7143,0.7269,0.715,0.7447,0.7979,0.8837,0.9274,0.8403,0.7814,0.8164,0.9223,0.9665,0.9977,0.9925,1.0053,1.0674,1.1348,1.1536,1.1347,1.1497,1.1918,1.1876,1.1951,1.2064,1.2348,1.238,1.2604,1.3403,1.3626,1.3393,1.3468,1.3488,1.3798,1.3427,1.2762,1.3282,1.4594,1.5224,1.5243,1.5266,1.5283,1.5332,1.5222,1.5276,1.52,1.5214,1.5161,1.5254,1.5288,1.522,1.4961,1.4262,1.3642,1.3368,1.3286,1.3641,1.4076,-0.555,-0.6802,-0.4896,-0.4056,-0.4006,-0.4058,-0.3969,-0.3888,-0.3816,-0.3744,-0.3649,-0.2941,-0.2922,-0.2697,-0.0,-0.0,-0.0,-0.0,-0.0,-0.0,-0.0,-0.0,-0.0,0.2047,0.2673,0.3031,0.344,0.3587,0.3628,0.3621,0.3622,0.358,0.3624,0.358,0.384,0.4412,0.5325,0.6044,0.6689,0.6979,0.6975,0.6975,0.6975,0.6975,0.6975,0.6975,0.6975,0.6975,0.6975,0.6975,0.6975,0.6975,0.6975,0.6975,0.6975,0.7017,0.7059,0.7059,0.7101,0.7273,0.7534,0.753,0.7773,0.817,0.9235,0.9338,0.931,0.9834,1.0751,1.1328,1.0107,0.9956,1.0117,1.0825,1.1363,1.1819,1.2058,1.2025,1.2328,1.2467,1.242,1.2407,1.2746,1.3055,1.3314,1.3663,1.3794,1.3888,1.3881,1.4067,1.4327,1.4513,1.3895,1.3788,1.4992,1.5189,1.5195,1.5229,1.526,1.5315,1.5378,1.5389,1.534,1.5387,1.5377,1.5345,1.5303,1.5254,1.4985,1.4599,1.4613,1.4709,1.4705,1.458,1.4682,-0.5138,-0.5806,-0.4475,-0.3864,-0.3897,-0.3949,-0.3868,-0.3744,-0.3724,-0.3682,-0.3535,-0.2703,-0.2288,-0.2024,-0.0,-0.0,-0.0,-0.0,-0.0,-0.0,-0.0,-0.0,-0.0,0.1328,0.2058,0.2875,0.3483,0.3599,0.3587,0.3597,0.3886,0.398,0.3757,0.3624,0.3803,0.4514,0.5346,0.5924,0.6431,0.6898,0.6933,0.6975,0.6975,0.6975,0.6975,0.6975,0.6975,0.6975,0.6975,0.6975,0.6975,0.6975,0.6975,0.6975,0.6975,0.7101,0.7269,0.7356,0.7231,0.7516,0.7863,0.7784,0.7314,0.817,0.927,1.0123,1.0213,1.1266,1.2376,1.2588,1.1028,1.1898,1.1736,1.2388,1.1402,1.1605,1.1985,1.2133,1.2679,1.3096,1.295,1.277,1.3157,1.3472,1.3725,1.3912,1.3918,1.3979,1.3956,1.4242,1.4737,1.4883,1.4811,1.4897,1.5165,1.5183,1.5211,1.5248,1.5283,1.5324,1.5361,1.5388,1.54,1.5389,1.5371,1.5358,1.5319,1.527,1.5233,1.5147,1.5139,1.5066,1.4938,1.4717,1.4725,-0.4148,-0.3668,-0.3641,-0.3633,-0.3648,-0.3748,-0.3717,-0.3655,-0.3633,-0.3534,-0.3461,-0.3275,-0.2107,-0.0,-0.0,-0.0,-0.0,-0.0,-0.0,-0.0,-0.0,-0.0,-0.0,-0.0,0.1293,0.1704,0.2683,0.3531,0.3596,0.3606,0.41,0.46,0.4288,0.3757,0.3714,0.417,0.4778,0.5315,0.6002,0.6598,0.6891,0.6975,0.6975,0.6975,0.6975,0.6975,0.6975,0.6975,0.6975,0.6975,0.6975,0.6975,0.6975,0.6975,0.6975,0.7017,0.8091,0.8095,0.7269,0.7653,0.7874,0.7938,0.7502,0.7934,0.8825,0.9825,1.1163,1.2351,1.3051,1.3492,1.3963,1.468,1.3955,1.2902,1.1872,1.1601,1.2022,1.2532,1.3107,1.3379,1.3217,1.3136,1.3531,1.3885,1.4119,1.4213,1.4118,1.4083,1.4077,1.438,1.491,1.5076,1.5133,1.5192,1.5217,1.5197,1.5216,1.5263,1.5305,1.5329,1.5353,1.5382,1.5387,1.5384,1.5353,1.5326,1.5311,1.5284,1.5208,1.513,1.5094,1.5023,1.4931,1.4876,1.4879,-0.3751,-0.358,-0.358,-0.3607,-0.3602,-0.3512,-0.3526,-0.3615,-0.3535,-0.3179,-0.2722,-0.3169,-0.2256,-0.0,-0.0,-0.0,-0.0,-0.0,-0.0,-0.0,-0.0,-0.0,-0.0,-0.0,-0.0,0.2025,0.3045,0.3422,0.3616,0.3576,0.4268,0.4824,0.4817,0.4332,0.4228,0.4657,0.5626,0.5559,0.6167,0.6855,0.6975,0.6975,0.6975,0.6975,0.6975,0.6975,0.6975,0.6975,0.6975,0.6975,0.6975,0.6975,0.6975,0.6975,0.7021,0.7429,0.8496,0.9235,0.846,0.8333,0.8215,0.8117,0.8185,0.8331,0.8844,1.1041,1.2349,1.3019,1.3354,1.3362,1.2843,1.4623,1.4418,1.2818,1.1967,1.2077,1.2439,1.303,1.3532,1.3518,1.3421,1.3595,1.3921,1.4099,1.4334,1.4482,1.4427,1.4352,1.4326,1.4569,1.4971,1.5097,1.5188,1.5247,1.5281,1.5252,1.5369,1.5513,1.5433,1.532,1.5347,1.5621,1.5377,1.5384,1.5334,1.529,1.5415,1.5456,1.5185,1.5045,1.5131,1.5163,1.5115,1.5057,1.5009,-0.358,-0.3573,-0.3522,-0.3502,-0.3465,-0.3375,-0.3414,-0.3512,-0.3565,-0.3127,-0.2601,-0.2471,-0.157,-0.0,-0.0,-0.0,-0.0,-0.0,-0.0,-0.0,-0.0,-0.0,-0.0,-0.0,-0.0,0.2039,0.2759,0.3129,0.3387,0.3464,0.4036,0.479,0.5384,0.5021,0.487,0.5237,0.5743,0.5768,0.6343,0.6729,0.6891,0.6975,0.6975,0.6975,0.6975,0.6975,0.6975,0.6975,0.7017,0.7017,0.7017,0.7017,0.7017,0.7021,0.7189,0.8005,0.8735,0.9474,0.9115,0.8954,0.8865,0.8884,0.9085,0.9481,1.0017,1.193,1.27,1.3278,1.3681,1.3522,1.3417,1.5212,1.412,1.2511,1.2478,1.2584,1.2594,1.3176,1.3696,1.3676,1.378,1.4006,1.4242,1.4355,1.4513,1.4623,1.4719,1.4647,1.458,1.4776,1.4995,1.5136,1.5218,1.5254,1.5294,1.5307,1.5472,1.573,1.5606,1.5387,1.6154,1.6527,1.5948,1.5468,1.5688,1.5815,1.5753,1.5664,1.5649,1.5494,1.5356,1.5347,1.5309,1.5467,1.563,-0.3561,-0.3542,-0.3365,-0.3299,-0.3323,-0.3329,-0.3334,-0.3312,-0.3441,-0.3484,-0.3462,-0.1153,-0.0,-0.0,-0.0,-0.0,-0.0,-0.0,-0.0,-0.0,-0.0,-0.0,-0.0,-0.0,-0.0,0.1473,0.2269,0.2975,0.3123,0.3684,0.4126,0.4619,0.5701,0.5612,0.5513,0.5586,0.5882,0.6081,0.6343,0.6729,0.6937,0.6975,0.6975,0.6975,0.6975,0.7063,0.7105,0.7185,0.7185,0.7182,0.7182,0.7143,0.7105,0.7066,0.7765,0.85,0.9146,0.927,0.9514,0.9514,0.9732,0.988,1.0196,1.1025,1.1724,1.2531,1.3256,1.4003,1.4607,1.4738,1.5,1.4254,1.3445,1.3006,1.2938,1.2881,1.2724,1.3107,1.3674,1.3906,1.4042,1.425,1.451,1.4663,1.4629,1.4773,1.4865,1.4883,1.4821,1.4839,1.504,1.5201,1.5258,1.5255,1.5303,1.5402,1.5459,1.5692,1.5632,1.5589,1.6509,1.7416,1.7061,1.6711,1.6452,1.6458,1.6731,1.6637,1.6381,1.6226,1.6324,1.6094,1.6224,1.6576,1.665,-0.3212,-0.3165,-0.3162,-0.3185,-0.3137,-0.3129,-0.3091,-0.3045,-0.2619,-0.2741,-0.3479,-0.1058,-0.0,-0.0,-0.0,-0.0,-0.0,-0.0,-0.0,-0.0,-0.0,-0.0,-0.0,-0.0,-0.0,0.1616,0.242,0.2962,0.3169,0.3793,0.4307,0.4685,0.5816,0.6079,0.6164,0.628,0.6295,0.6343,0.6559,0.6768,0.6937,0.6975,0.6975,0.6975,0.6975,0.7147,0.7489,0.7551,0.7713,0.8091,0.8168,0.8119,0.7795,0.805,0.8671,0.9588,0.9628,0.943,0.9913,1.0011,1.0263,1.0771,1.1094,1.1394,1.2054,1.2881,1.3809,1.4554,1.5168,1.5308,1.5242,1.4604,1.4008,1.3841,1.3735,1.3533,1.3324,1.3187,1.3802,1.4864,1.4981,1.5257,1.5418,1.4735,1.4722,1.4892,1.504,1.5131,1.5035,1.5026,1.5479,1.5676,1.6129,1.636,1.5692,1.5604,1.5587,1.56,1.5594,1.6181,1.7738,1.8419,1.8189,1.7941,1.766,1.776,1.8024,1.7802,1.7479,1.7723,1.7808,1.7405,1.7185,1.7536,1.7766,-0.2976,-0.3028,-0.302,-0.3007,-0.2952,-0.296,-0.2974,-0.2791,-0.2382,-0.2323,-0.1977,-0.0614,-0.0,-0.0,-0.0,-0.0,-0.0,-0.0,-0.0,-0.0,-0.0,-0.0,-0.0,-0.0,-0.0,0.1736,0.2622,0.3179,0.3281,0.382,0.4397,0.4559,0.5811,0.6167,0.6343,0.6553,0.6771,0.6729,0.681,0.6933,0.6975,0.6975,0.6975,0.6975,0.6975,0.736,0.7829,0.7923,0.8215,0.8635,0.8698,0.8622,0.8496,0.8954,0.9399,1.0152,1.021,1.0244,1.0639,1.0857,1.1116,1.1457,1.1732,1.2247,1.3029,1.3986,1.4509,1.5011,1.5433,1.5694,1.5587,1.5438,1.5111,1.4812,1.4578,1.4332,1.3921,1.3484,1.4426,1.5753,1.6315,1.6623,1.6303,1.5412,1.5189,1.5978,1.6161,1.5901,1.5552,1.5114,1.5914,1.663,1.727,1.7753,1.692,1.6233,1.6522,1.6387,1.5756,1.6674,1.8629,1.9436,1.9217,1.9044,1.8859,1.8864,1.8766,1.887,1.8745,1.888,1.8818,1.8453,1.8227,1.8485,1.8625,-0.284,-0.3026,-0.2944,-0.2825,-0.2727,-0.2763,-0.2747,-0.2722,-0.2739,-0.1759,-0.0,-0.0,-0.0,-0.0,-0.0,-0.0,-0.0,-0.0,-0.0,-0.0,-0.0,-0.0,-0.0,0.0309,0.1235,0.2069,0.2783,0.3396,0.336,0.3883,0.4443,0.4434,0.5343,0.5867,0.609,0.6686,0.6898,0.6937,0.6933,0.6975,0.6975,0.6975,0.6975,0.6975,0.7059,0.7273,0.7742,0.8036,0.8197,0.8553,0.8873,0.891,0.9235,0.9869,1.0341,1.0462,1.0672,1.1191,1.1457,1.1678,1.1909,1.2102,1.2216,1.2881,1.3795,1.4738,1.5218,1.5227,1.5579,1.5902,1.5907,1.6202,1.6125,1.5837,1.5584,1.5311,1.4945,1.5089,1.6229,1.7391,1.8066,1.8247,1.7653,1.6834,1.627,1.7184,1.7749,1.7331,1.6509,1.5844,1.6605,1.7653,1.7747,1.8133,1.7841,1.7382,1.779,1.7505,1.6659,1.734,1.9408,2.0033,2.0254,1.9875,1.9476,1.9361,1.9297,1.9354,1.9358,1.9339,1.9286,1.9258,1.9259,1.9222,1.9158,-0.2722,-0.2784,-0.2749,-0.2717,-0.2601,-0.1972,-0.2116,-0.2718,-0.3206,-0.2029,-0.0,-0.0,-0.0,-0.0,-0.0,-0.0,-0.0,-0.0,-0.0,-0.0,-0.0,-0.0,-0.0,0.1549,0.2139,0.2281,0.2827,0.3591,0.3632,0.4115,0.4445,0.4138,0.5219,0.6124,0.5787,0.651,0.6975,0.6975,0.6975,0.6975,0.6975,0.6975,0.6975,0.6975,0.7059,0.7353,0.7821,0.8316,0.876,0.9239,0.9725,0.9883,1.0,1.0911,1.0954,1.0654,1.1217,1.1836,1.2306,1.2461,1.2544,1.2621,1.2791,1.3522,1.4335,1.5255,1.5689,1.5602,1.5674,1.5994,1.6416,1.6803,1.7124,1.6847,1.6674,1.6379,1.6078,1.7027,1.8102,1.8823,1.9613,1.9424,1.8828,1.8363,1.7839,1.8276,1.9319,1.9273,1.8138,1.7452,1.8077,1.8753,1.7987,1.8065,1.813,1.84,1.8746,1.8666,1.7968,1.8933,2.0198,2.0265,2.0285,2.0208,1.9982,1.9696,1.9545,1.9687,1.9693,1.9596,1.9462,1.9311,1.9295,1.9259,1.9268,-0.2679,-0.2679,-0.2688,-0.2691,-0.2596,-0.2156,-0.2229,-0.2577,-0.2235,-0.1281,-0.0,-0.0,-0.0,-0.0,-0.0,-0.0,-0.0,-0.0,-0.0,-0.0,-0.0,-0.0,-0.0,0.2286,0.2856,0.2927,0.3211,0.3656,0.3753,0.3968,0.4098,0.4138,0.5559,0.6164,0.5696,0.651,0.6975,0.6975,0.6975,0.6975,0.6975,0.6975,0.6975,0.6975,0.7101,0.744,0.8062,0.8639,0.9266,0.9785,1.0235,1.0649,1.0981,1.1915,1.2096,1.1872,1.206,1.2431,1.2937,1.3151,1.3066,1.3207,1.306,1.3615,1.4405,1.5232,1.5756,1.5689,1.5689,1.5983,1.6714,1.7207,1.7551,1.7513,1.787,1.8002,1.7907,1.8306,1.8809,1.9044,1.9654,1.9885,1.9477,1.9459,1.906,1.9179,2.0254,2.0369,1.9405,1.8727,1.9493,1.977,1.8979,1.8887,1.9313,1.9463,1.958,1.9403,1.9081,1.9635,2.0265,2.0275,2.0277,2.0163,1.999,1.97,1.9635,1.972,1.9634,1.9443,1.937,1.9295,1.9295,1.9295,1.9295,-0.2679,-0.2683,-0.2691,-0.2696,-0.2663,-0.2501,-0.2368,-0.2063,-0.0,-0.0,-0.0,-0.0,-0.0,-0.0,-0.0,-0.0,-0.0,-0.0,-0.0,-0.0,-0.0,-0.0,-0.0,0.1834,0.2584,0.3245,0.3578,0.3581,0.3622,0.3832,0.4041,0.4391,0.5,0.5653,0.6133,0.6644,0.6975,0.6975,0.6975,0.6975,0.6975,0.7017,0.7059,0.7063,0.7189,0.7693,0.8353,0.8999,0.9653,1.0201,1.0644,1.0873,1.1462,1.224,1.2838,1.2832,1.2731,1.3057,1.3406,1.3775,1.3853,1.3857,1.3523,1.3792,1.4599,1.5156,1.5647,1.5863,1.5863,1.6238,1.696,1.7526,1.7848,1.8245,1.878,1.9213,1.9234,1.932,1.942,1.9471,1.9728,2.0088,2.0116,2.0141,2.0212,2.034,2.0417,2.0452,2.0323,1.9918,2.0041,2.0205,1.9823,1.9967,2.0243,2.0157,2.0044,2.0029,1.9779,2.0092,2.0302,2.0302,2.0234,2.0089,1.9886,1.9576,1.9504,1.9559,1.9434,1.9331,1.9326,1.9295,1.9295,1.9295,1.9295,-0.2679,-0.2679,-0.2681,-0.2688,-0.2593,-0.1914,-0.1174,-0.0538,-0.0,-0.0,-0.0,-0.0,-0.0,-0.0,-0.0,-0.0,-0.0,-0.0,-0.0,-0.0,-0.0,-0.0,-0.0,-0.0,-0.0,0.2808,0.3481,0.358,0.3622,0.3602,0.3639,0.3877,0.5397,0.5787,0.5647,0.6246,0.6937,0.6985,0.7057,0.7074,0.7064,0.7139,0.7325,0.7492,0.7746,0.8152,0.8635,0.9119,0.9693,1.0345,1.1078,1.1201,1.161,1.2383,1.3019,1.3295,1.3263,1.3789,1.4123,1.4298,1.4407,1.4397,1.4217,1.4431,1.5049,1.5393,1.5805,1.606,1.6211,1.668,1.7304,1.7721,1.8083,1.8536,1.9039,1.9231,1.9336,1.9684,1.9992,2.0001,2.0079,2.0225,2.0233,2.0254,2.0287,2.0396,2.0468,2.0492,2.046,2.0494,2.053,2.0447,2.0366,2.0369,2.0348,2.0281,2.0214,2.0292,2.0305,2.026,2.0251,2.0294,2.0208,1.9981,1.9707,1.9405,1.9376,1.9425,1.9376,1.9311,1.9311,1.9295,1.9295,1.9249,1.9218]},{"header":{"parameterUnit":"m.s-1","parameterCategory":1,"la1":31.0,"la2":29.5877,"lo1":-88.7671,"lo2":-86.6584,"dy":0.0162,"dx":0.0185,"nx":115,"ny":88,"refTime":"2023-07-27T06:00:00:Z","depth":0,"parameterNumber":3,"parameterNumberName":"V-component_of_WINDS"},"data":[0.0,0.0,0.0,0.0,0.0,0.0,0.0,0.0,0.0,0.0,0.0,0.0,0.0,0.0,0.0,0.0,0.0,0.0,0.0,0.0,0.0,0.0,0.0,0.0,0.0,0.0,0.0,0.0,0.0,0.0,0.0,0.0,0.0,0.0,0.0,0.0,0.0,0.0,0.0,0.0,0.0,0.0,0.0,0.0,0.0,0.0,0.0,0.0,0.0,0.0,0.0,0.0,0.0,0.0,0.0,0.0,0.0,0.0,0.0,0.0,0.0,0.0,0.0,0.0,0.0,0.0,0.0,0.0,0.0,0.0,0.0,0.0,0.0,0.0,0.0,0.0,0.0,0.0,0.0,0.0,0.0,0.0,0.0,0.0,0.0,0.0,0.0,0.0,0.0,0.0,0.0,0.0,0.0,0.0,0.0,0.0,0.0,0.0,0.0,0.0,0.0,0.0,0.0,0.0,0.0,0.0,0.0,0.0,0.0,0.0,0.0,0.0,0.0,0.0,0.0,0.0,0.0,0.0,0.0,0.0,0.0,0.0,0.0,0.0,0.0,0.0,0.0,0.0,0.0,0.0,0.0,0.0,0.0,0.0,0.0,0.0,0.0,0.0,0.0,0.0,0.0,0.0,0.0,0.0,0.0,0.0,0.0,0.0,0.0,0.0,0.0,0.0,0.0,0.0,0.0,0.0,0.0,0.0,0.0,0.0,0.0,0.0,0.0,0.0,0.0,0.0,0.0,0.0,0.0,0.0,0.0,0.0,0.0,0.0,0.0,0.0,0.0,0.0,0.0,0.0,0.0,0.0,0.0,0.0,0.0,0.0,0.0,0.0,0.0,0.0,0.0,0.0,0.0,0.0,0.0,0.0,0.0,0.0,0.0,0.0,0.0,0.0,0.0,0.0,0.0,0.0,0.0,0.0,0.0,0.0,0.0,0.0,0.0,0.0,0.0,0.0,0.0,0.0,0.0,0.0,0.0,0.0,0.0,0.0,0.0,0.0,0.0,0.0,0.0,0.0,0.0,0.0,0.0,0.0,0.0,0.0,0.0,0.0,0.0,0.0,0.0,0.0,0.0,0.0,0.0,0.0,0.0,0.0,0.0,0.0,0.0,0.0,0.0,0.0,0.0,0.0,0.0,0.0,0.0,0.0,0.0,0.0,0.0,0.0,0.0,0.0,0.0,0.0,0.0,0.0,0.0,0.0,0.0,0.0,0.0,0.0,0.0,0.0,0.0,0.0,0.0,0.0,0.0,0.0,0.0,0.0,0.0,0.0,0.0,0.0,0.0,0.0,0.0,0.0,0.0,0.0,0.0,0.0,0.0,0.0,0.0,0.0,0.0,0.0,0.0,0.0,0.0,0.0,0.0,0.0,0.0,0.0,0.0,0.0,0.0,0.0,0.0,0.0,0.0,0.0,0.0,0.0,0.0,0.0,0.0,0.0,0.0,0.0,0.0,0.0,0.0,0.0,0.0,0.0,0.0,0.0,0.0,0.0,0.0,0.0,0.0,0.0,0.0,0.0,0.0,0.0,0.0,0.0,0.0,0.0,0.0,0.0,0.0,0.0,0.0,0.0,0.0,0.0,0.0,0.0,0.0,0.0,0.0,0.0,0.0,0.0,0.0,0.0,0.0,0.0,0.0,0.0,0.0,0.0,0.0,0.0,0.0,0.0,0.0,0.0,0.0,0.0,0.0,0.0,0.0,0.0,0.0,0.0,0.0,0.0,0.0,0.0,0.0,0.0,0.0,0.0,0.0,0.0,0.0,0.0,0.0,0.0,0.0,0.0,0.0,0.0,0.0,0.0,0.0,0.0,0.0,0.0,0.0,0.0,0.0,0.0,0.0,0.0,0.0,0.0,0.0,0.0,0.0,0.0,0.0,0.0,0.0,0.0,0.0,0.0,0.0,0.0,0.0,0.0,0.0,0.0,0.0,0.0,0.0,0.0,0.0,0.0,0.0,0.0,0.0,0.0,0.0,0.0,0.0,0.0,0.0,0.0,0.0,0.0,0.0,0.0,0.0,0.0,0.0,0.0,0.0,0.0,0.0,0.0,0.0,0.0,0.0,0.0,0.0,0.0,0.0,0.0,0.0,0.0,0.0,0.0,0.0,0.0,0.0,0.0,0.0,0.0,0.0,0.0,0.0,0.0,0.0,0.0,0.0,0.0,0.0,0.0,0.0,0.0,0.0,0.0,0.0,0.0,0.0,0.0,0.0,0.0,0.0,0.0,0.0,0.0,0.0,0.0,0.0,0.0,0.0,0.0,0.0,0.0,0.0,0.0,0.0,0.0,0.0,0.0,0.0,0.0,0.0,0.0,0.0,0.0,0.0,0.0,0.0,0.0,0.0,0.0,0.0,0.0,0.0,0.0,0.0,0.0,0.0,0.0,0.0,0.0,0.0,0.0,0.0,0.0,0.0,0.0,0.0,0.0,0.0,0.0,0.0,0.0,0.0,0.0,0.0,0.0,0.0,0.0,0.0,0.0,0.0,0.0,0.0,0.0,0.0,0.0,0.0,0.0,0.0,0.0,0.0,0.0,0.0,0.0,0.0,0.0,0.0,0.0,0.0,0.0,0.0,0.0,0.0,0.0,0.0,0.0,0.0,0.0,0.0,0.0,0.0,0.0,0.0,0.0,0.0,0.0,0.0,0.0,0.0,0.0,0.0,0.0,0.0,0.0,0.0,0.0,0.0,0.0,0.0,0.0,0.0,0.0,0.0,0.0,0.0,0.0,0.0,0.0,0.0,0.0,0.0,0.0,0.0,0.0,0.0,0.0,0.0,0.0,0.0,0.0,0.0,0.0,0.0,0.0,0.0,0.0,0.0,0.0,0.0,0.0,0.0,0.0,0.0,0.0,0.0,0.0,0.0,0.0,0.0,0.0,0.0,0.0,0.0,0.0,0.0,0.0,0.0,0.0,0.0,0.0,0.0,0.0,0.0,0.0,0.0,0.0,0.0,0.0,0.0,0.0,0.0,0.0,0.0,0.0,0.0,0.0,0.0,0.0,0.0,0.0,0.0,0.0,0.0,0.0,0.0,0.0,0.0,0.0,0.0,0.0,0.0,0.0,0.0,0.0,0.0,0.0,0.0,0.0,0.0,0.0,0.0,0.0,0.0,0.0,0.0,0.0,0.0,0.0,0.0,0.0,0.0,0.0,0.0,0.0,0.0,0.0,0.0,0.0,0.0,0.0,0.0,0.0,0.0,0.0,0.0,0.0,0.0,0.0,0.0,0.0,0.0,0.0,0.0,0.0,0.0,0.0,0.0,0.0,0.0,0.0,0.0,0.0,0.0,0.0,0.0,0.0,0.0,0.0,0.0,0.0,0.0,0.0,0.0,0.0,0.0,0.0,0.0,0.0,0.0,0.0,0.0,0.0,0.0,0.0,0.0,0.0,0.0,0.0,0.0,0.0,0.0,0.0,0.0,0.0,0.0,0.0,0.0,0.0,0.0,0.0,0.0,0.0,0.0,0.0,0.0,0.0,0.0,0.0,0.0,0.0,0.0,0.0,0.0,0.0,0.0,0.0,0.0,0.0,0.0,0.0,0.0,0.0,0.0,0.0,0.0,0.0,0.0,0.0,0.0,0.0,0.0,0.0,0.0,0.0,0.0,0.0,0.0,0.0,0.0,0.0,0.0,0.0,0.0,0.0,0.0,0.0,0.0,0.0,0.0,0.0,0.0,0.0,0.0,0.0,0.0,0.0,0.0,0.0,0.0,0.0,0.0,0.0,0.0,0.0,0.0,0.0,0.0,0.0,0.0,0.0,0.0,0.0,0.0,0.0,0.0,0.0,0.0,0.0,0.0,0.0,0.0,0.0,0.0,0.0,0.0,0.0,0.0,0.0,0.0,0.0,0.0,0.0,0.0,0.0,0.0,0.0,0.0,0.0,0.0,0.0,0.0,0.0,0.0,0.0,0.0,0.0,0.0,0.0,0.0,0.0,0.0,0.0,0.0,0.0,0.0,0.0,0.0,0.0,0.0,0.0,0.0,0.0,0.0,0.0,0.0,0.0,0.0,0.0,0.0,0.0,0.0,0.0,0.0,0.0,0.0,0.0,0.0,0.0,0.0,0.0,0.0,0.0,0.0,0.0,0.0,0.0,0.0,0.0,0.0,0.0,0.0,0.0,0.0,0.0,0.0,0.0,0.0,0.0,0.0,0.0,0.0,0.0,0.0,0.0,0.0,0.0,0.0,0.0,0.0,0.0,0.0,0.0,0.0,0.0,0.0,0.0,0.0,0.0,0.0,0.0,0.0,0.0,0.0,0.0,-0.1875,0.0,0.0,0.0,0.0,0.0,0.0,0.0,0.0,0.0,0.0,0.0,0.0,0.0,0.0,0.0,0.0,0.0,0.0,0.0,0.0,0.0,0.0,0.0,0.0,0.0,0.0,0.0,0.0,0.0,0.0,0.0,0.0,0.0,0.0,0.0,0.0,0.0,0.0,0.0,0.0,0.0,0.0,0.0,0.0,0.0,0.0,0.0,0.0,0.0,0.0,0.0,0.0,0.0,0.0,0.0,0.0,0.0,0.0,0.0,0.0,0.0,0.0,0.0,0.0,0.0,0.0,0.0,0.0,0.0,0.0,0.0,0.0,0.0,0.0,0.0,0.0,0.0,0.0,0.0,0.0,0.0,0.0,0.0,0.0,0.0,0.0,0.0,0.0,0.0,0.0,0.0,0.0,0.0,0.0,0.0,0.0,0.0,0.0,0.0,0.0,0.0,0.0,0.0,0.0,0.0,0.0,0.0,0.0,0.0,0.0,-0.2711,-0.2509,-0.2063,-0.1783,-0.1769,0.0,0.0,0.0,0.0,0.0,0.0,0.0,0.0,0.0,0.0,0.0,0.0,0.0,0.0,0.0,0.0,0.0,0.0,0.0,0.0,0.0,0.0,0.0,0.0,0.0,0.0,0.0,0.0,0.0,0.0,0.0,0.0,0.0,0.0,0.0,0.0,0.0,0.0,0.0,0.0,0.0,0.0,0.0,0.0,0.0,0.0,0.0,0.0,0.0,0.0,0.0,0.0,0.0,0.0,0.0,0.0,0.0,0.0,0.0,0.0,0.0,0.0,0.0,0.0,0.0,0.0,0.0,0.0,0.0,0.0,0.0,0.0,0.0,0.0,0.0,0.0,0.0,0.0,0.0,0.0,0.0,0.0,0.0,0.0,0.0,0.0,0.0,0.0,0.0,0.0,0.0,0.0,0.0,0.0,0.0,0.0,0.0,0.0,0.0,0.0,0.0,0.0,0.0,0.0,0.0,0.0,0.0,0.0,0.0,0.0,0.0,0.0,-0.2325,-0.15,-0.137,0.0,0.0,0.0,0.0,0.0,0.0,0.0,0.0,0.0,0.0,0.0,0.0,0.0,0.0,0.0,0.0,0.0,0.0,0.0,0.0,0.0,0.0,0.0,0.0,0.0,0.0,0.0,0.0,0.0,0.0,0.0,0.0,0.0,0.0,0.0,0.0,0.0,0.0,0.0,0.0,0.0,0.0,0.0,0.0,0.0,0.0,0.0,0.0,0.0,0.0,0.0,0.0,0.0,0.0,0.0,0.0,0.0,0.0,0.0,0.0,0.0,0.0,0.0,0.0,0.0,0.0,0.0,0.0,0.0,0.0,0.0,0.0,0.0,0.0,0.0,0.0,0.0,0.0,0.0,0.0,0.0,0.0,0.0,0.0,0.0,0.0,0.0,0.0,0.0,0.0,0.0,0.0,0.0,0.0,0.0,0.0,0.0,0.0,0.0,0.0,0.0,0.0,0.0,0.0,0.0,0.0,0.0,0.0,0.0,0.0,-0.3638,-0.5268,-0.2504,0.0,-0.0312,0.0,0.0,0.0,0.0,0.0,0.0,0.0,0.0,0.0,0.0,0.0,0.0,0.0,0.0,0.0,0.0,0.0,0.0,0.0,0.0,0.0,0.0,0.0,0.0,0.0,0.0,0.0,0.0,0.0,0.0,0.0,0.0,0.0,0.0,0.0,0.0,0.0,0.0,0.0,0.0,0.0,0.0,0.0,0.0,0.0,0.0,0.0,0.0,0.0,0.0,0.0,0.0,0.0,0.0,0.0,0.0,0.0,0.0,0.0,0.0,0.0,0.0,0.0,0.0,0.0,0.0,0.0,0.0,0.0,0.0,0.0,0.0,0.0,0.0,0.0,0.0,0.0,0.0,0.0,0.0,0.0,0.0,0.0,0.0,0.0,0.0,0.0,0.0,0.0,0.0,0.0,0.0,0.0,0.0,0.0,0.0,0.0,0.0,0.0,0.0,0.0,0.0,0.0,0.0,0.0,0.0,0.0,0.0,0.0,0.0,-0.4153,-0.4752,-0.2056,-0.0417,0.0,0.0,0.0,0.0,0.0,0.0,0.0,0.0,0.0,0.0,0.0,0.0,0.0,0.0,0.0,0.0,0.0,0.0,0.0,0.0,0.0,0.0,0.0,0.0,0.0,0.0,0.0,0.0,0.0,0.0,0.0,0.0,0.0,0.0,0.0,0.0,0.0,0.0,0.0,0.0,0.0,0.0,0.0,0.0,0.0,0.0,0.0,0.0,0.0,0.0,0.0,0.0,0.0,0.0,0.0,0.0,0.0,0.0,0.0,0.0,0.0,0.0,0.0,0.0,0.0,0.0,0.0,0.0,0.0,0.0,0.0,0.0,0.0,0.0,0.0,0.0,0.0,0.0,0.0,0.0,0.0,0.0,0.0,0.0,0.0,0.0,0.0,0.0,0.0,0.0,0.0,0.0,0.0,0.0,0.0,0.0,0.0,0.0,0.0,0.0,0.0,0.0,0.0,0.0,0.0,0.0,0.0,0.0,0.0,0.0,-0.6071,-0.4659,-0.3748,-0.243,-0.1171,-0.0038,0.0,0.0,0.0,0.0,0.0,0.0,0.0,0.0,0.0,0.0,0.0,0.0,0.0,0.0,0.0,0.0,0.0,0.0,0.0,0.0,0.0,0.0,0.0,0.0,0.0,0.0,0.0,0.0,0.0,0.0,0.0,0.0,0.0,0.0,0.0,0.0,0.0,0.0,0.0,0.0,0.0,0.0,0.0,0.0,0.0,0.0,0.0,0.0,0.0,0.0,0.0,0.0,0.0,0.0,0.0,0.0,0.0,0.0,0.0,0.0,0.0,0.0,0.0,0.0,0.0,0.0,0.0,0.0,0.0,0.0,0.0,0.0,0.0,0.0,0.0,0.0,0.0,0.0,0.0,0.0,0.0,0.0,0.0,0.0,0.0,0.0,0.0,0.0,0.0,0.0,0.0,0.0,0.0,0.0,0.0,0.0,0.0,0.0,0.0,0.0,0.0,0.0,0.0,0.0,0.0,0.0,0.0,0.0,-0.8513,-0.6832,-0.4896,-0.278,-0.4092,-0.3346,0.0,0.0,0.0,0.0,0.0,0.0,0.0,0.0,0.0,0.0,0.0,0.0,0.0,0.0,0.0,0.0,0.0,0.0,0.0,0.0,0.0,0.0,0.0,0.0,0.0,0.0,0.0,0.0,0.0,0.0,0.0,0.0,0.0,0.0,0.0,0.0,0.0,0.0,0.0,0.0,0.0,0.0,0.0,0.0,0.0,0.0,0.0,0.0,0.0,0.0,0.0,0.0,0.0,0.0,0.0,0.0,0.0,0.0,0.0,0.0,0.0,0.0,0.0,0.0,0.0,0.0,0.0,0.0,0.0,0.0,0.0,0.0,0.0,0.0,0.0,0.0,0.0,0.0,0.0,0.0,0.0,0.0,0.0,0.0,0.0,0.0,0.0,0.0,0.0,0.0,0.0,0.0,0.0,0.0,0.0,0.0,0.0,0.0,0.0,0.0,0.0,0.0,0.0,0.0,0.0,0.0,0.0,0.0,0.0,-0.8525,-0.6766,-0.4666,-0.2371,-0.3087,-0.2454,0.0,0.0,0.0,0.0,0.0,0.0,0.0,0.0,0.0,0.0,0.0,0.0,0.0,0.0,0.0,0.0,0.0,0.0,0.0,0.0,0.0,0.0,0.0,0.0,0.0,0.0,0.0,0.0,0.0,0.0,0.0,0.0,0.0,0.0,0.0,0.0,0.0,0.0,0.0,0.0,0.0,0.0,0.0,0.0,0.0,0.0,0.0,0.0,0.0,0.0,0.0,0.0,0.0,0.0,0.0,0.0,0.0,0.0,0.0,0.0,0.0,0.0,0.0,0.0,0.0,0.0,0.0,0.0,0.0,0.0,0.0,0.0,0.0,0.0,0.0,0.0,0.0,0.0,0.0,0.0,0.0,0.0,0.0,0.0,0.0,0.0,0.0,0.0,0.0,0.0,0.0,0.0,0.0,0.0,0.0,0.0,0.0,0.0,0.0,0.0,0.0,0.0,0.0,0.0,0.0,0.0,0.0,0.0,0.0,-0.8088,0.0,-0.4787,-0.2985,-0.3099,-0.2395,0.0,0.0,0.0,0.0,0.0,0.0,0.0,0.0,0.0,0.0,0.0,0.0,0.0,0.0,0.0,0.0,0.0,0.0,0.0,0.0,0.0,0.0,0.0,0.0,0.0,0.0,0.0,0.0,0.0,0.0,0.0,0.0,0.0,0.0,0.0,0.0,0.0,0.0,0.0,0.0,0.0,0.0,0.0,0.0,0.0,0.0,0.0,0.0,0.0,0.0,0.0,0.0,0.0,0.0,0.0,0.0,0.0,0.0,0.0,0.0,0.0,0.0,0.0,0.0,0.0,0.0,0.0,0.0,0.0,0.0,0.0,0.0,0.0,0.0,0.0,0.0,0.0,0.0,0.0,0.0,0.0,0.0,0.0,0.0,0.0,0.0,0.0,0.0,0.0,0.0,0.0,0.0,0.0,0.0,0.0,0.0,0.0,0.0,0.0,0.0,0.0,0.0,0.0,0.0,0.0,0.0,0.0,0.0,-0.8323,-0.7179,-0.6207,-0.5373,-0.4736,-0.4456,-0.356,0.0,0.0,0.0,0.0,0.0,0.0,0.0,0.0,0.0,0.0,0.0,0.0,0.0,0.0,0.0,0.0,0.0,0.0,0.0,0.0,0.0,0.0,0.0,0.0,0.0,0.0,0.0,0.0,0.0,0.0,0.0,0.0,0.0,0.0,0.0,0.0,0.0,0.0,0.0,0.0,0.0,0.0,0.0,0.0,0.0,0.0,0.0,0.0,0.0,0.0,0.0,0.0,0.0,0.0,0.0,0.0,0.0,0.0,0.0,0.0,0.0,0.0,0.0,0.0,0.0,0.0,0.0,0.0,0.0,0.0,0.0,0.0,0.0,0.0,0.0,0.0,0.0,0.0,0.0,0.0,0.0,0.0,0.0,0.0,0.0,0.0,0.0,0.0,0.0,0.0,0.0,0.0,0.0,0.0,0.0,0.0,0.0,0.0,0.0,0.0,0.0,0.0,0.0,0.0,0.0,0.0,0.0,0.0,0.0,-0.7899,-0.6564,-0.5848,-0.5879,-0.5873,-0.5197,0.0,0.0,0.0,0.0,0.0,0.0,0.0,0.0,0.0,0.0,0.0,0.0,0.0,0.0,0.0,0.0,0.0,0.0,0.0,0.0,0.0,0.0,0.0,0.0,0.0,0.0,0.0,0.0,0.0,0.0,0.0,0.0,0.0,0.0,0.0,0.0,0.0,0.0,0.0,0.0,0.0,0.0,0.0,0.0,0.0,0.0,0.0,0.0,0.0,0.0,0.0,0.0,0.0,0.0,0.0,0.0,0.0,0.0,0.0,0.0,0.0,0.0,0.0,0.0,0.0,0.0,0.0,0.0,0.0,0.0,0.0,0.0,0.0,0.0,0.0,0.0,0.0,0.0,0.0,0.0,0.0,0.0,0.0,0.0,0.0,0.0,0.0,0.0,0.0,0.0,0.0,0.0,0.0,0.0,0.0,0.0,0.0,0.0,0.0,0.0,0.0,0.0,0.0,0.0,0.0,0.0,0.0,0.0,0.0,-0.7386,-0.6788,-0.6366,-0.6231,-0.6373,-0.5869,-0.4673,0.0,0.0,0.0,0.0,0.0,0.0,0.0,0.0,0.0,0.0,0.0,0.0,0.0,0.0,0.0,0.0,0.0,0.0,0.0,0.0,0.0,0.0,0.0,0.0,0.0,0.0,0.0,0.0,0.0,0.0,0.0,0.0,0.0,0.0,0.0,0.0,0.0,0.0,0.0,0.0,0.0,0.0,0.0,0.0,0.0,0.0,0.0,0.0,0.0,0.0,0.0,0.0,0.0,0.0,0.0,0.0,0.0,0.0,0.0,0.0,0.0,0.0,0.0,0.0,0.0,0.0,0.0,0.0,0.0,0.0,0.0,0.0,0.0,0.0,0.0,0.0,0.0,0.0,0.0,0.0,0.0,0.0,0.0,0.0,0.0,0.0,0.0,0.0,0.0,0.0,0.0,0.0,0.0,0.0,0.0,0.0,0.0,0.0,0.0,0.0,0.0,0.0,0.0,0.0,0.0,0.0,0.0,0.0,-0.6013,-0.6917,-0.697,-0.6103,-0.6212,-0.5814,0.0,0.0,0.0,0.0,0.0,0.0,0.0,0.0,0.0,0.0,0.0,0.0,0.0,0.0,0.0,0.0,0.0,0.0,0.0,0.0,0.0,0.0,0.0,0.0,0.0,0.0,0.0,0.0,0.0,0.0,0.0,0.0,0.0,0.0,0.0,0.0,0.0,0.0,0.0,0.0,0.0,0.0,0.0,0.0,0.0,0.0,0.0,0.0,0.0,0.0,0.0,0.0,0.0,0.0,0.0,0.0,0.0,0.0,0.0,0.0,0.0,0.0,0.0,0.0,0.0,0.0,0.0,0.0,0.0,0.0,0.0,0.0,0.0,0.0,0.0,0.0,0.0,0.0,0.0,0.0,0.0,0.0,0.0,0.0,0.0,0.0,0.0,0.0,0.0,0.0,0.0,0.0,0.0,0.0,0.0,0.0,0.0,0.0,0.0,0.0,0.0,0.0,0.0,0.0,0.0,0.0,0.0,0.0,0.0,-0.7182,-0.7346,-0.7493,-0.764,-0.7305,-0.6828,0.0,0.0,0.0,0.0,0.0,0.0,0.0,0.0,0.0,0.0,0.0,0.0,0.0,0.0,0.0,0.0,0.0,0.0,0.0,0.0,0.0,0.0,0.0,0.0,0.0,0.0,0.0,0.0,0.0,0.0,0.0,0.0,0.0,0.0,0.0,0.0,0.0,0.0,0.0,0.0,0.0,0.0,0.0,0.0,0.0,0.0,0.0,0.0,0.0,0.0,0.0,0.0,0.0,0.0,0.0,0.0,0.0,0.0,0.0,0.0,0.0,0.0,0.0,0.0,0.0,0.0,0.0,0.0,0.0,0.0,0.0,0.0,0.0,0.0,0.0,0.0,0.0,0.0,0.0,0.0,0.0,0.0,0.0,0.0,0.0,0.0,0.0,0.0,0.0,0.0,0.0,0.0,0.0,0.0,0.0,0.0,0.0,0.0,0.0,0.0,0.0,0.0,0.0,0.0,0.0,0.0,0.0,0.0,-0.5894,-0.7243,-0.7165,-0.7566,-0.8534,-0.8273,-0.7617,0.0,0.0,0.0,0.0,0.0,0.0,0.0,0.0,0.0,0.0,0.0,0.0,0.0,0.0,0.0,0.0,0.0,0.0,0.0,0.0,0.0,0.0,0.0,0.0,0.0,0.0,0.0,0.0,0.0,0.0,0.0,0.0,0.0,0.0,0.0,0.0,0.0,0.0,0.0,0.0,0.0,0.0,0.0,0.0,0.0,0.0,0.0,0.0,0.0,0.0,0.0,0.0,0.0,0.0,0.0,0.0,0.0,0.0,0.0,0.0,0.0,0.0,0.0,0.0,0.0,0.0,0.0,0.0,0.0,0.0,0.0,0.0,0.0,0.0,0.0,0.0,0.0,0.0,0.0,0.0,0.0,0.0,0.0,0.0,0.0,0.0,0.0,0.0,0.0,0.0,0.0,0.0,0.0,0.0,0.0,0.0,0.0,0.0,0.0,0.0,0.0,0.0,0.0,0.0,0.0,0.0,0.0,0.0,-0.6235,-0.6614,-0.6681,-0.7348,-0.8697,-0.8914,-0.8213,0.0,0.0,0.0,0.0,0.0,0.0,0.0,0.0,0.0,0.0,0.0,0.0,0.0,0.0,0.0,0.0,0.0,0.0,0.0,0.0,0.0,0.0,0.0,0.0,0.0,0.0,0.0,0.0,0.0,0.0,0.0,0.0,0.0,0.0,0.0,0.0,0.0,0.0,0.0,0.0,0.0,0.0,0.0,0.0,0.0,0.0,0.0,0.0,0.0,0.0,0.0,0.0,0.0,0.0,0.0,0.0,0.0,0.0,0.0,0.0,0.0,0.0,0.0,0.0,0.0,0.0,0.0,0.0,0.0,0.0,0.0,0.0,0.0,0.0,0.0,0.0,0.0,0.0,0.0,0.0,0.0,0.0,0.0,0.0,0.0,0.0,0.0,0.0,0.0,0.0,0.0,0.0,0.0,0.0,0.0,0.0,0.0,0.0,0.0,0.0,0.0,0.0,0.0,0.0,0.0,0.0,0.0,0.0,-0.5357,-0.6047,-0.6479,-0.7048,-0.7778,-0.8135,-0.8119,0.0,0.0,0.0,0.0,0.0,0.0,0.0,0.0,0.0,0.0,0.0,0.0,0.0,0.0,0.0,0.0,0.0,0.0,0.0,0.0,0.0,0.0,0.0,0.0,0.0,0.0,0.0,0.0,0.0,0.0,0.0,0.0,0.0,0.0,0.0,0.0,0.0,0.0,0.0,0.0,0.0,0.0,0.0,0.0,0.0,0.0,0.0,0.0,-0.0872,0.0,0.0,0.0,0.0,0.0,0.0,0.0,0.0,0.0,0.0,0.0,0.0,0.0,0.0,0.0,0.0,0.0,0.0,0.0,0.0,0.0,0.0,0.0,0.0,0.0,0.0,0.0,0.0,0.0,0.0,0.0,0.0,0.0,0.0,0.0,0.0,0.0,0.0,0.0,0.0,0.0,0.0,0.0,0.0,0.0,0.0,0.0,0.0,0.0,0.0,0.0,0.0,0.0,0.0,0.0,0.0,0.0,0.0,0.0,-0.5576,-0.5902,-0.6081,-0.6487,-0.7081,-0.723,-0.747,0.0,0.0,0.0,0.0,0.0,0.0,0.0,0.0,0.0,0.0,0.0,0.0,0.0,0.0,0.0,0.0,0.0,0.0,0.0,0.0,0.0,0.0,0.0,0.0,0.0,0.0,0.0,0.0,0.0,0.0,0.0,0.0,0.0,0.0,0.0,0.0,0.0,0.0,0.0,0.0,0.0,0.0,0.0,0.0,0.0,0.0,0.0,0.0,0.0,0.0,0.0,0.0,0.0,0.0,0.0,0.0,0.0,0.0,0.0,0.0,0.0,0.0,0.0,0.0,0.0,0.0,0.0,0.0,0.0,0.0,0.0,0.0,0.0,0.0,0.0,0.0,0.0,0.0,0.0,0.0,0.0,0.0,0.0,0.0,0.0,0.0,0.0,0.0,0.0,0.0,0.0,0.0,0.0,0.0,0.0,0.0,0.0,0.0,0.0,0.0,0.0,0.0,0.0,0.0,0.0,0.0,0.0,-0.5662,-0.5997,-0.5706,-0.5623,-0.5886,-0.6504,-0.6386,-0.6756,-0.7694,0.0,0.0,0.0,0.0,0.0,0.0,0.0,0.0,0.0,0.0,0.0,0.0,0.0,0.0,0.0,0.0,0.0,0.0,0.0,0.0,0.0,0.0,0.0,0.0,0.0,0.0,0.0,0.0,0.0,0.0,0.0,0.0,0.0,0.0,0.0,0.0,0.0,0.0,-0.3703,-0.3608,0.0,0.0,0.0,0.0,0.0,0.0,0.0,0.0,-0.067,0.0,0.0,0.0,0.0,0.0,0.0,0.0,0.0,0.0,0.0,0.0,0.0,0.0,0.0,0.0,0.0,0.0,0.0,0.0,0.0,0.0,0.0,0.0,0.0,0.0,0.0,0.0,0.0,0.0,0.0,0.0,0.0,0.0,0.0,0.0,0.0,0.0,0.0,0.0,0.0,0.0,0.0,0.0,0.0,0.0,0.0,0.0,0.0,0.0,0.0,0.0,0.0,0.0,0.0,0.0,0.0,-0.5544,-0.5789,-0.5549,-0.4767,-0.5299,-0.5648,-0.5785,-0.6109,-0.6649,-0.7371,0.0,0.0,0.0,0.0,0.0,0.0,0.0,0.0,0.0,0.0,0.0,0.0,0.0,0.0,0.0,0.0,0.0,0.0,0.0,0.0,0.0,0.0,0.0,0.0,0.0,0.0,0.0,0.0,0.0,0.0,0.0,0.0,0.0,0.0,0.0,0.0,0.0,0.0,0.0,-0.4068,-0.3873,0.0,0.0,0.0,0.0,0.0,0.0,0.0,0.0,-0.03,0.0,0.0,0.0,0.0,0.0,0.0,0.0,0.0,0.0,0.0,0.0,0.0,0.0,0.0,0.0,0.0,0.0,0.0,0.0,0.0,0.0,0.0,0.0,0.0,0.0,0.0,0.0,0.0,0.0,0.0,0.0,0.0,0.0,0.0,0.0,0.0,0.0,0.0,0.0,0.0,0.0,0.0,0.0,0.0,0.0,0.0,0.0,0.0,0.0,0.0,0.0,0.0,0.0,0.0,0.0,-0.6499,-0.5598,-0.4947,-0.4519,-0.4852,-0.5021,-0.503,-0.5175,-0.5888,0.0,0.0,0.0,0.0,0.0,0.0,0.0,0.0,0.0,0.0,0.0,0.0,0.0,0.0,0.0,0.0,0.0,0.0,0.0,0.0,0.0,0.0,0.0,0.0,0.0,0.0,0.0,0.0,0.0,0.0,0.0,0.0,0.0,0.0,0.0,0.0,0.0,0.0,0.0,0.0,-0.4366,-0.4048,-0.3928,0.0,0.0,0.0,0.0,0.0,0.0,-0.0835,0.0091,0.0,0.0,0.0,0.0,0.0,0.0,0.0,0.0,0.0,0.0,0.0,0.0,0.0,0.0,0.0,0.0,0.0,0.0,0.0,0.0,0.0,0.0,0.0,0.0,0.0,0.0,0.0,0.0,0.0,0.0,0.0,0.0,0.0,0.0,0.0,0.0,0.0,0.0,0.0,0.0,0.0,0.0,0.0,0.0,0.0,0.0,0.0,0.0,0.0,0.0,0.0,0.0,0.0,0.0,0.0,-0.746,-0.5808,-0.4798,-0.4516,-0.4491,-0.4491,-0.4491,-0.4511,-0.5296,0.0,0.0,0.0,0.0,0.0,0.0,0.0,0.0,0.0,0.0,0.0,0.0,0.0,0.0,0.0,0.0,0.0,0.0,0.0,0.0,0.0,0.0,0.0,0.0,0.0,0.0,0.0,0.0,0.0,0.0,0.0,0.0,0.0,0.0,0.0,0.0,0.0,0.0,0.0,0.0,0.0,-0.4254,-0.4154,-0.3674,0.0,0.0,0.0,0.0,-0.1742,-0.0995,0.0,0.0,0.0,0.0,0.0,0.0,0.0,0.0,0.0,0.0,0.0,0.0,0.0,0.0,0.0,0.0,0.0,0.0,0.0,0.0,0.0,0.0,0.0,0.0,0.0,0.0,0.0,0.0,0.0,0.0,0.0,0.0,0.0,0.0,0.0,0.0,0.0,0.0,0.0,0.0,0.0,0.0,0.0,0.0,0.0,0.0,0.0,0.0,0.0,0.0,0.0,0.0,0.0,0.0,0.0,0.0,-0.8674,-0.7207,-0.582,-0.4567,-0.4491,-0.4491,-0.4494,-0.4996,-0.5594,0.0,0.0,0.0,0.0,0.0,0.0,0.0,0.0,0.0,0.0,0.0,0.0,0.0,0.0,0.0,0.0,0.0,0.0,0.0,0.0,0.0,0.0,0.0,0.0,0.0,0.0,0.0,0.0,0.0,0.0,0.0,0.0,0.0,0.0,0.0,0.0,0.0,0.0,0.0,0.0,0.0,-0.4578,-0.3724,-0.3085,-0.2483,0.0,0.0,-0.058,-0.1631,-0.168,0.0,0.0,0.0,0.0,0.0,0.0,0.0,0.0,0.0,0.0,0.0,0.0,0.0,0.0,0.0,0.0,0.0,0.0,0.0,0.0,0.0,0.0,0.0,0.0,0.0,0.0,0.0,0.0,0.0,0.0,0.0,0.0,0.0,0.0,0.0,0.0,0.0,0.0,0.0,0.0,0.0,0.0,0.0,0.0,0.0,0.0,0.0,0.0,0.0,0.0,0.0,0.0,0.0,0.0,0.0,-1.1147,-0.9036,-0.5835,-0.3842,-0.3239,-0.4054,-0.4491,-0.4491,-0.4759,-0.5399,0.0,0.0,0.0,0.0,0.0,0.0,0.0,0.0,0.0,0.0,0.0,0.0,0.0,0.0,0.0,0.0,0.0,0.0,0.0,0.0,0.0,0.0,0.0,0.0,0.0,0.0,0.0,0.0,0.0,0.0,0.0,0.0,0.0,0.0,0.0,0.0,0.0,0.0,0.0,0.0,0.0,0.0,-0.3994,-0.3204,0.0,0.0,0.0,-0.1184,-0.1729,0.0,0.0,0.0,0.0,0.0,0.0,0.0,0.0,0.0,0.0,0.0,0.0,0.0,0.0,0.0,0.0,0.0,0.0,0.0,0.0,0.0,0.0,0.0,0.0,0.0,0.0,0.0,0.0,0.0,0.0,0.0,0.0,0.0,0.0,0.0,0.0,0.0,0.0,0.0,0.0,0.0,0.0,0.0,0.0,0.0,0.0,0.0,0.0,0.0,0.0,0.0,0.0,0.0,0.0,0.0,0.0,0.0,-0.8577,-0.4013,-0.2019,-0.2751,-0.3163,-0.3535,-0.3911,-0.3924,0.0,0.0,0.0,0.0,0.0,0.0,0.0,0.0,0.0,0.0,0.0,0.0,0.0,0.0,0.0,0.0,0.0,0.0,0.0,0.0,0.0,0.0,0.0,0.0,0.0,0.0,0.0,-0.2394,0.0,0.0,0.0,0.0,0.0,0.0,0.0,0.0,0.0,0.0,0.0,0.0,0.0,0.0,-0.4278,-0.4131,-0.3303,-0.2482,0.0,0.0,-0.1808,-0.1792,-0.1809,-0.1808,0.0,0.0,0.0,0.0,0.0,0.0,0.0,0.0,0.0,0.0,0.0,0.0,0.0,0.0,0.0,0.0,0.0,0.0,0.0,0.0,0.0,0.0,0.0,0.0,0.0,0.0,0.0,0.0,0.0,0.0,0.0,0.0,0.0,0.0,0.0,0.0,0.0,0.0,0.0,0.0,0.0,0.0,0.0,0.0,0.0,0.0,0.0,0.0,0.0,0.0,0.0,0.0,0.0,0.0,-1.1254,-0.6893,-0.2447,-0.1516,-0.4113,-0.1685,-0.096,-0.2297,-0.2355,-0.3004,0.0,0.0,0.0,0.0,0.0,0.0,0.0,0.0,0.0,0.0,0.0,0.0,0.0,0.0,0.0,0.0,0.0,0.0,0.0,0.0,0.0,0.0,0.0,0.0,0.0,0.0,0.0,0.0,0.0,0.0,0.0,0.0,0.0,0.0,0.0,0.0,0.0,0.0,0.0,0.0,0.0,-0.5015,-0.3746,-0.3075,-0.2478,0.0,-0.1807,-0.1804,-0.1804,-0.1804,-0.1804,-0.1804,0.0,0.0,0.0,0.0,0.0,0.0,0.0,0.0,0.0,0.0,0.0,0.0,0.0,0.0,0.0,0.0,0.0,0.0,0.0,0.0,0.0,0.0,0.0,0.0,0.0,0.0,0.0,0.0,0.0,0.0,0.0,0.0,0.0,0.0,0.0,0.0,0.0,0.0,0.0,0.0,0.0,0.0,0.0,0.0,0.0,0.0,0.0,0.0,0.0,0.0,0.0,0.0,0.0,-1.1203,-0.6732,-0.2275,-0.0576,-0.17,-0.2402,-0.3907,-0.6275,-0.5891,-0.588,0.0,0.0,0.0,0.0,0.0,0.0,0.0,0.0,0.0,0.0,0.0,0.0,0.0,0.0,0.0,0.0,0.0,0.0,0.0,0.0,0.0,0.0,0.0,0.0,0.0,0.0,0.0,0.0,-0.2505,-0.1973,-0.1823,0.0,0.0,0.0,0.0,0.0,0.0,0.0,0.0,0.0,0.0,-0.4251,-0.4069,-0.3272,0.0,0.0,-0.1789,-0.1806,-0.1791,-0.1809,-0.1804,-0.1804,-0.1179,0.0,0.0,0.0,0.0,0.0,0.0,0.0,0.0,0.0,0.0,0.0,0.0,0.0,0.0,0.0,0.0,0.0,0.0,0.0,0.0,0.0,0.0,0.0,0.0,0.0,0.0,0.0,0.0,0.0,0.0,0.0,0.0,0.0,0.0,0.0,0.0,0.0,0.0,0.0,0.0,0.0,0.0,0.0,0.0,0.0,0.0,0.0,0.0,0.0,0.0,0.0,0.0,-1.1035,-0.6732,-0.2286,-0.089,-0.2652,-0.4735,-0.6379,-0.7529,-0.7943,-0.8084,0.0,0.0,0.0,0.0,0.0,0.0,0.0,0.0,0.0,0.0,0.0,0.0,0.0,0.0,0.0,0.0,0.0,0.0,0.0,0.0,0.0,0.0,0.0,0.0,0.0,0.0,0.0,0.0,-0.2725,-0.2155,-0.1845,0.0,0.0,0.0,0.0,0.0,0.0,0.0,0.0,0.0,0.0,-0.3802,-0.3931,-0.3231,-0.2516,-0.1965,-0.1847,-0.1764,-0.1637,-0.143,-0.1271,-0.1246,0.0,0.0,0.0,0.0,0.0,0.0,0.0,0.0,0.0,0.0,0.0,0.0,0.0,0.0,0.0,0.0,0.0,0.0,0.0,0.0,0.0,0.0,0.0,0.0,0.0,0.0,0.0,-0.5065,0.0,0.0,-0.7055,0.0,0.0,0.0,0.0,0.0,0.0,0.0,0.0,0.0,0.0,0.0,0.0,0.0,0.0,0.0,0.0,0.0,0.0,0.0,0.0,0.0,0.0,-1.0646,-0.6706,-0.2435,-0.2891,-0.8374,-0.8762,-0.7451,-0.4949,-0.7382,-0.8686,-0.8259,0.0,0.0,0.0,0.0,0.0,0.0,0.0,0.0,0.0,0.0,0.0,0.0,0.0,0.0,0.0,0.0,0.0,0.0,0.0,0.0,0.0,0.0,0.0,0.0,0.0,0.0,-0.3114,-0.33,-0.2978,0.0,0.0,0.0,0.0,0.0,0.0,0.0,0.0,0.0,-0.4378,-0.4302,-0.3941,-0.3067,-0.2789,-0.2548,-0.2137,-0.1926,-0.1673,-0.1296,-0.0605,-0.0045,0.0,0.0,0.0,0.0,0.0,0.0,0.0,0.0,0.0,0.0,0.0,0.0,0.0,0.0,0.0,0.0,0.0,0.0,0.0,0.0,0.0,0.0,0.0,0.0,0.0,0.0,0.0,-0.8923,-0.8087,0.0,0.0,0.0,0.0,0.0,0.0,0.0,0.0,0.0,0.0,0.0,-1.0929,-1.1809,0.0,0.0,0.0,0.0,0.0,0.0,0.0,0.0,0.0,0.0,0.0,0.0,-1.0127,-0.6367,-0.6021,-0.6885,-0.8826,-0.8913,-0.8427,-0.747,-0.8385,-0.6984,-0.2948,0.0,0.0,0.0,0.0,0.0,0.0,0.0,0.0,0.0,0.0,0.0,0.0,0.0,0.0,0.0,0.0,0.0,0.0,0.0,0.0,0.0,0.0,0.0,0.0,0.0,-0.3163,0.0,0.0,0.0,0.0,0.0,0.0,0.0,0.0,0.0,0.0,0.0,-0.4311,-0.3836,-0.3459,-0.307,-0.2644,-0.2627,-0.2521,0.0,0.0,0.0,0.0,0.0,0.0,0.0,0.0,0.0,0.0,0.0,0.0,0.0,0.0,-0.1934,-0.2331,-0.222,-0.2092,-0.2163,0.0,0.0,0.0,0.0,0.0,0.0,0.0,0.0,0.0,0.0,0.0,0.0,0.0,0.0,-0.9734,-0.987,-1.0111,0.0,0.0,0.0,0.0,0.0,0.0,0.0,0.0,-0.9749,-1.0478,-1.1008,-1.1639,-1.2338,0.0,-1.3286,-1.3396,0.0,0.0,0.0,0.0,0.0,0.0,0.0,0.0,-1.0273,-0.7608,-0.739,-0.786,-0.8852,-0.8911,-0.8911,-0.8911,-0.8911,-0.6088,0.0,0.0,-0.221,0.0,0.0,0.0,0.0,0.0,0.0,0.0,0.0,0.0,0.0,0.0,0.0,0.0,0.0,0.0,0.0,0.0,0.0,0.0,0.0,0.0,0.0,0.0,-0.3045,0.0,0.0,0.0,0.0,0.0,0.0,0.0,0.0,0.0,-0.3526,-0.3811,-0.3824,-0.3281,-0.2912,-0.2611,-0.243,0.0,0.0,0.0,0.0,0.0,0.0,0.0,-0.1514,-0.0759,-0.128,-0.1837,-0.1976,-0.2274,-0.2434,-0.2237,0.0,0.0,-0.2348,-0.2211,-0.2068,-0.2072,-0.2233,-0.233,-0.2281,-0.2341,-0.2497,0.0,0.0,0.0,0.0,0.0,0.0,0.0,0.0,-0.9603,-1.0012,0.0,-1.0654,0.0,0.0,0.0,0.0,-0.8972,-0.9171,0.0,0.0,-0.8783,-0.9327,-1.0287,-1.0933,-1.1582,-1.2372,-1.3083,-1.3396,-1.3379,-1.3152,0.0,0.0,0.0,0.0,0.0,0.0,-1.0978,-1.0232,-0.6683,-0.608,-0.8792,-0.8911,-0.8911,-0.8883,-0.8648,-0.5808,0.0,0.0,0.0,0.0,-0.6095,0.0,0.0,0.0,0.0,0.0,0.0,0.0,0.0,0.0,0.0,0.0,0.0,0.0,0.0,0.0,0.0,0.0,0.0,0.0,0.0,-0.3712,0.0,0.0,0.0,0.0,0.0,0.0,0.0,0.0,0.0,0.0,-0.3602,-0.3506,-0.3315,-0.2853,0.0,0.0,0.0,0.0,-0.181,-0.1822,-0.1826,-0.1831,-0.2,-0.1899,-0.1782,-0.1804,0.0,0.0,-0.2325,-0.2542,-0.2569,-0.2284,-0.2451,-0.2492,-0.1995,-0.1869,-0.1825,-0.1876,-0.2313,-0.2621,-0.2476,-0.259,-0.2718,-1.572,0.0,0.0,0.0,0.0,-1.257,-1.2755,-1.2944,-1.2392,-1.2559,-1.3167,-1.2557,0.0,0.0,0.0,0.0,0.0,0.0,-0.9982,-0.9035,-1.0282,-1.1012,-1.1215,-1.2058,-1.2732,-1.3231,-1.3453,-1.3506,-1.3396,-1.3329,-1.3143,-1.2899,0.0,0.0,0.0,0.0,-0.8907,-1.0198,-0.8572,-0.8046,-0.8866,-0.8911,-0.8911,-0.8894,-0.4765,-0.1742,0.0,0.0,0.0,0.0,-0.1798,0.0,0.0,0.0,0.0,0.0,0.0,0.0,0.0,0.0,0.0,0.0,0.0,0.0,0.0,0.0,0.0,0.0,0.0,0.0,-0.4122,-0.3005,-0.2592,0.0,0.0,0.0,0.0,0.0,0.0,0.0,0.0,0.0,-0.409,-0.3752,-0.3592,0.0,0.0,-0.2927,-0.3148,-0.2392,-0.1953,-0.2377,-0.2077,0.0,-0.2226,-0.2012,-0.1933,-0.2372,-0.2315,-0.2319,-0.2579,-0.2323,-0.2242,-0.2718,-0.2401,-0.2248,-0.2838,-0.2352,-0.1997,-0.2329,-0.2591,-0.2715,-0.2744,-0.2894,-0.3037,-1.7412,-1.5391,-1.5163,-1.4698,-1.4134,-1.4248,-1.4293,-1.4258,-1.3808,-1.3826,-1.4123,-1.3625,-1.3333,-1.3201,-1.2815,0.0,0.0,0.0,-1.108,-1.0136,-1.1149,-1.1751,-1.1955,-1.2473,-1.2999,-1.35,-1.3513,-1.3464,-1.3396,-1.3396,-1.332,-1.3143,0.0,0.0,-1.1841,-0.9398,-0.8667,-0.9726,-0.9205,-0.8911,-0.8911,-0.8911,-0.8911,-0.8773,-0.4268,-0.1702,-0.1536,-0.0547,0.0,0.0,0.0,-0.1827,0.0,0.0,0.0,0.0,0.0,0.0,0.0,0.0,0.0,0.0,0.0,-0.3734,-0.3518,0.0,0.0,0.0,-0.4706,-0.4941,-0.4604,-0.3521,0.0,0.0,0.0,0.0,0.0,0.0,0.0,-0.3532,-0.3629,-0.3906,-0.4314,-0.4029,-0.3815,-0.3814,-0.3429,-0.322,-0.346,0.0,-0.237,-0.2934,-0.2719,-0.2457,-0.2422,-0.2066,-0.2064,-0.2896,-0.2929,-0.2752,-0.2573,-0.2234,-0.216,-0.2562,-0.2605,-0.2534,-0.2798,-0.2616,-0.2567,-0.2918,-0.2838,-0.2799,-0.3062,-0.3106,-0.3193,-1.9198,-1.7757,-1.8065,-1.7209,-1.5667,-1.5647,-1.5178,-1.4419,-1.4347,-1.4296,-1.4273,-1.4218,-1.4059,-1.3818,-1.369,0.0,-1.278,-1.2617,-1.2193,-1.1603,-1.1563,-1.1851,-1.2425,-1.246,-1.2792,-1.3421,-1.3413,-1.3404,-1.3396,-1.3396,-1.3396,-1.3371,-1.2661,-1.2187,-1.1876,-1.0761,-0.9827,-0.9106,-0.9086,-0.9055,-0.8993,-0.8919,-0.8911,-0.8885,-0.6259,-0.4425,-0.3567,-0.1696,-0.0439,0.0,0.0,0.0,0.0,0.0,0.0,0.0,0.0,0.0,0.0,0.0,0.0,0.0,0.0,0.0,0.0,0.0,0.0,0.0,-0.5214,0.0,-0.5335,-0.4811,0.0,0.0,0.0,-0.4421,-0.3733,-0.4086,-0.4174,-0.3569,0.0,0.0,-0.4357,-0.4325,-0.3996,-0.3111,-0.3327,-0.3577,-0.3631,-0.3196,-0.3001,-0.3478,-0.3524,-0.3285,-0.2765,-0.2302,-0.2348,-0.3284,-0.3485,-0.3178,-0.2626,-0.2357,-0.2247,-0.2312,-0.2932,-0.3202,-0.213,-0.2786,-0.344,-0.3453,-0.3184,-0.2997,-0.3261,-0.3246,-0.3202,-2.1567,-2.0616,-2.0632,-1.9212,-1.6962,-1.684,-1.6897,-1.7009,-1.6307,-1.6552,-1.74,-1.6315,-1.5526,-1.4963,-1.4179,-1.3448,-1.2801,-1.2859,-1.2415,-1.1671,-1.246,-1.2841,-1.2886,-1.3467,-1.3674,-1.3555,-1.3544,-1.3507,-1.3388,-1.3396,-1.3396,-1.3362,-1.2676,-1.2263,-1.2195,-1.1899,-1.1358,-1.0593,-1.0576,-1.0293,-0.974,-0.919,-0.8911,-0.8911,-0.8085,-0.5504,-0.1209,-0.4257,-0.4159,0.0,0.0,0.0,0.0,0.0,0.0,0.0,0.0,0.0,0.0,0.0,0.0,0.0,0.0,-0.5862,-0.5161,0.0,-0.4925,0.0,-0.6309,-0.6733,-0.5926,-0.5344,0.0,0.0,-0.4799,-0.4688,-0.4867,-0.4545,-0.41,-0.3565,-0.3928,-0.4439,-0.4861,-0.4568,-0.4175,-0.3862,-0.398,-0.4267,-0.4687,-0.4305,-0.3913,-0.3931,-0.3731,-0.3599,-0.3876,-0.3457,-0.3232,-0.3464,-0.3351,-0.3135,-0.2977,-0.2741,-0.2599,-0.2735,-0.3139,-0.3354,-0.3111,-0.3022,-0.3078,-0.3432,-0.3744,-0.3746,-0.3075,-0.3164,-0.3323,-2.2857,-2.1814,-2.1654,-2.0467,-1.8666,-1.8526,-1.8568,-1.8745,-1.8257,-1.8346,-1.8814,-1.7299,-1.6211,-1.5473,-1.4481,-1.385,-1.3551,-1.3549,-1.326,-1.2812,-1.3412,-1.36,-1.3417,-1.3765,-1.4006,-1.4137,-1.4157,-1.4247,-1.4366,-1.4152,-1.4015,-1.3879,-1.3158,-1.2779,-1.2754,-1.2111,-1.1544,-1.1113,-1.1104,-1.0722,-1.0033,-0.9923,-0.9832,-0.9747,-0.938,-0.7722,-0.4617,-0.6119,-0.5653,-0.2771,-0.0951,0.0,0.0,0.0,-0.1341,0.0,0.0,0.0,0.0,0.0,0.0,0.0,0.0,0.0,0.0,0.0,-0.4985,-0.616,-0.7141,-0.7449,-0.6818,-0.6502,-0.6204,-0.5917,-0.5293,-0.4962,-0.5233,-0.4918,-0.4573,-0.4256,-0.4333,-0.4697,-0.5347,-0.498,-0.4727,-0.4882,-0.5312,-0.5426,-0.5002,-0.4748,-0.4643,-0.4671,-0.4416,-0.4629,-0.5675,-0.5603,-0.5114,-0.4439,-0.4084,-0.383,-0.3583,-0.3281,-0.3087,-0.3144,-0.3348,-0.3509,-0.3488,-0.329,-0.3111,-0.3152,-0.3599,-0.3815,-0.3537,-0.3293,-0.3028,-2.3582,-2.2206,-2.1965,-2.1265,-2.0294,-2.0134,-1.9905,-1.9681,-1.9773,-1.9632,-1.9249,-1.7715,-1.6669,-1.5977,-1.4997,-1.4625,-1.4764,-1.4612,-1.4531,-1.4508,-1.4534,-1.4387,-1.4083,-1.4012,-1.4289,-1.4844,-1.5005,-1.5309,-1.5694,-1.5292,-1.4937,-1.4552,-1.3921,-1.3548,-1.3394,-1.2125,-1.1432,-1.1383,-1.1307,-1.0935,-1.0322,-1.0825,-1.102,-1.0822,-1.0308,-1.0088,-1.0146,-0.7826,-0.6548,-0.6527,-0.3209,-0.1281,-0.1275,-0.1278,-0.398,0.0,-1.0666,0.0,0.0,0.0,0.0,0.0,0.0,0.0,0.0,-0.4865,-0.507,-0.7487,-0.7695,-0.772,-0.7792,-0.7749,-0.7399,-0.6634,-0.584,-0.5331,-0.5352,-0.5295,-0.5205,-0.5102,-0.4897,-0.5082,-0.584,-0.5564,-0.5465,-0.5721,-0.639,-0.6604,-0.5649,-0.5254,-0.5153,-0.5457,-0.5392,-0.577,-0.7124,-0.7556,-0.7085,-0.5876,-0.5202,-0.4825,-0.4248,-0.3768,-0.3485,-0.3506,-0.3493,-0.351,-0.3506,-0.3509,-0.333,-0.2961,-0.3248,-0.3596,-0.3749,-0.3348,-0.2761,-2.4398,-2.2906,-2.2808,-2.1843,-2.0389,-2.0336,-1.9818,-1.9021,-1.9563,-1.9755,-1.9604,-1.8355,-1.7834,-1.7802,-1.6841,-1.6315,-1.6204,-1.6328,-1.6301,-1.6143,-1.6315,-1.5937,-1.5189,-1.574,-1.5687,-1.511,-1.5768,-1.6166,-1.6246,-1.6159,-1.5713,-1.4985,-1.4845,-1.4399,-1.3687,0.0,0.0,0.0,-1.2389,-1.2009,-1.1857,-1.135,-1.1082,-1.1034,-1.0835,0.0,-1.0727,-1.0033,-0.995,-1.0567,-0.8981,0.0,0.0,0.0,0.0,0.0,0.0,0.0,0.0,0.0,0.0,0.0,-1.0796,-1.0024,-0.9419,-0.7886,-0.7121,-0.7637,-0.7695,-0.7869,-0.8308,-0.7945,-0.7498,-0.6966,-0.645,-0.6187,-0.6154,-0.58,-0.5416,-0.5146,-0.542,-0.5861,-0.6385,-0.6372,-0.603,-0.5504,-0.6118,-0.7305,-0.8603,-0.6599,-0.5467,-0.6098,-0.6204,-0.6513,-0.7535,-0.769,-0.7585,-0.7163,-0.6196,-0.5278,-0.4589,-0.3942,-0.3516,-0.3506,-0.3512,-0.3533,-0.3531,-0.3509,-0.3464,-0.3354,-0.3442,-0.3272,-0.2485,-0.2717,-0.2832,-2.4824,-2.3535,-2.3228,-2.2318,0.0,-2.064,-1.9882,-1.9027,-1.975,-1.9983,-1.9816,-1.8661,-1.8238,-1.8351,-1.752,-1.7063,-1.6893,-1.7074,-1.6932,-1.6514,-1.6885,-1.6919,-1.6682,-1.6719,-1.6661,-1.6543,-1.7024,-1.732,-1.7453,-1.7214,-1.6616,-1.5701,-1.5309,-1.4627,-1.3738,-1.389,-1.3652,-1.2954,-1.2885,-1.2661,-1.2331,-1.2255,-1.2183,-1.2048,-1.1959,0.0,0.0,0.0,0.0,0.0,0.0,0.0,0.0,-1.0955,0.0,-1.1492,-1.0328,-1.0663,-1.2914,-1.1871,-1.1309,-1.1789,-1.1149,-1.0777,-1.0906,-0.9614,-0.8783,-0.8783,-0.8795,-0.8909,-0.915,-0.8931,-0.8465,-0.7619,-0.6479,-0.5905,-0.635,-0.6739,-0.7069,-0.7376,-0.7243,-0.7189,-0.74,-0.6905,-0.6439,-0.5982,-0.6597,-0.7393,-0.7951,-0.6926,-0.6183,-0.6949,-0.7079,-0.7175,-0.7584,-0.7695,-0.7476,-0.6965,-0.6178,-0.5376,-0.4639,-0.3933,-0.3509,-0.3527,-0.3775,-0.4093,-0.4207,-0.389,-0.3509,-0.3509,-0.3509,-0.3351,-0.274,-0.2848,-0.2759,-2.5068,-2.4014,-2.3447,-2.2676,-2.1747,-2.088,-2.0088,-1.9451,-1.989,0.0,0.0,-1.9022,-1.8631,-1.8652,-1.8092,-1.7776,-1.7674,-1.778,-1.7523,-1.7,-1.7447,-1.7896,-1.824,-1.7687,-1.7641,-1.8107,-1.8317,-1.8546,-1.8771,-1.8211,-1.7413,-1.6452,-1.5607,-1.4747,-1.3921,-1.4063,-1.3718,-1.2865,-1.3127,-1.302,-1.2562,-1.2988,-1.316,-1.3077,-1.3085,-1.2832,-1.2352,-1.234,-1.2092,-1.1557,-1.1753,-1.2022,-1.2358,-1.2448,-1.1817,-1.0299,-0.8402,-0.8947,-1.2646,-1.2364,-1.1957,-1.1871,-1.1269,-1.1019,-1.1303,-1.0433,-0.9873,-0.9873,-0.9873,-0.9855,-0.9736,-0.9843,-0.9348,-0.8058,-0.6406,-0.5644,-0.6259,-0.7289,-0.8324,-0.9517,-0.89,-0.8434,-0.8529,-0.7632,-0.6802,-0.6718,-0.7011,-0.7332,-0.6793,-0.6771,-0.6791,-0.6956,-0.7246,-0.7661,-0.7695,-0.7695,-0.7339,-0.6691,-0.6184,-0.5583,-0.4807,-0.419,-0.3832,-0.3534,-0.4138,-0.4633,-0.4847,-0.4224,-0.3626,-0.3506,-0.3418,-0.3354,-0.332,-0.3016,-0.2514,-2.5156,-2.4287,-2.3525,-2.2695,-2.1816,-2.0955,-2.0452,-2.0175,-1.9564,-1.9648,-2.022,-1.9903,-1.977,-1.9762,-1.9569,-1.9453,-1.9439,-1.9459,-1.9335,-1.916,-1.935,-1.9413,-1.9372,-1.939,-1.9073,-1.8596,-1.9217,-1.9588,-1.9534,-1.8735,-1.7892,-1.705,-1.6103,-1.519,-1.4453,-1.4433,-1.4283,-1.3952,-1.3205,-1.3002,-1.3389,-1.2837,-1.2796,-1.3303,-1.3337,-1.3217,-1.2906,-1.2869,-1.2741,-1.2431,-1.2308,-1.2133,-1.1993,-1.3949,-1.4132,-1.1836,-1.223,-1.2506,-1.2071,-1.2,-1.1693,-1.1007,-1.1402,-1.1307,-1.0248,-1.0,-0.9873,-0.9873,-0.9873,-0.9629,-0.9108,-0.9491,-0.9088,-0.7566,-0.6759,-0.6313,-0.6084,-0.664,-0.7707,-0.9466,-0.9217,-0.8993,-0.9372,-0.8648,-0.7587,-0.6873,-0.677,-0.673,-0.6745,-0.716,-0.6894,-0.6039,-0.6766,-0.7559,-0.7695,-0.7695,-0.7549,-0.7505,-0.7026,-0.633,-0.5407,-0.507,-0.4608,-0.3698,-0.4268,-0.4726,-0.4528,-0.4337,-0.3975,-0.3619,-0.322,-0.2907,-0.2906,-0.2462,-0.1975,-2.5469,-2.5019,-2.4199,-2.3359,-2.2461,-2.1163,-2.057,-2.0529,-2.0556,-2.0452,-2.034,-2.065,-2.0523,-2.0031,-2.0042,-2.0001,-1.9913,-2.0028,-2.0038,-1.9979,-1.9931,-1.9952,-1.9963,-1.9934,-1.9722,-1.9387,-1.9733,-1.9873,-1.9731,-1.8886,-1.8038,-1.7202,-1.5793,-1.4941,-1.4734,-1.4577,-1.4496,-1.4467,-1.3733,-1.3489,-1.3725,-1.3309,-1.3194,-1.3492,-1.3454,-1.3286,-1.3005,-1.297,-1.2844,-1.2602,-1.2516,-1.2577,-1.2837,-1.3346,-1.3738,-1.3922,-1.3855,-1.3705,-1.3489,-1.2782,-1.1931,-1.0938,-1.1155,-1.1172,-1.0639,-1.0148,-0.9899,-0.9873,-0.9873,-0.9767,-0.9391,-0.8644,-0.7912,-0.7481,-0.7966,-0.7787,-0.6735,-0.7623,-0.8308,-0.8286,-0.8901,-0.9529,-0.9855,-0.897,-0.7876,-0.6835,-0.6601,-0.6611,-0.6624,-0.7228,-0.746,-0.6724,-0.6815,-0.7183,-0.7574,-0.7695,-0.753,-0.7157,-0.662,-0.595,-0.5108,-0.4749,-0.4241,-0.3688,-0.4054,-0.4362,-0.4277,-0.424,-0.4077,-0.3879,-0.3247,-0.292,-0.2957,-0.2447,-0.1848,-2.5693,-2.5625,-2.4756,-2.3818,-2.2852,-2.168,-2.1126,-2.1088,-2.1972,-2.1801,-2.1022,-2.1365,-2.0982,-2.0125,-2.0233,-2.0205,-2.0097,-2.0223,-2.03,-2.0278,-2.0145,-2.0164,-2.0279,-2.0127,-2.006,-2.0078,-2.0071,-2.001,-1.9826,-1.8995,-1.8031,-1.6951,-1.5357,-1.4653,-1.4859,-1.4623,-1.4556,-1.4626,-1.4246,-1.4002,-1.3952,-1.3602,-1.3433,-1.3593,-1.3462,-1.3286,-1.3103,-1.3052,-1.2938,-1.2799,-1.2771,-1.301,-1.347,-1.2986,-1.3436,-1.4938,-1.461,-1.4306,-1.4434,-1.3459,-1.2331,-1.1277,-1.1395,-1.1428,-1.111,-1.0645,-1.0284,-1.0208,-1.0327,-1.0276,-0.9792,-0.8502,-0.754,-0.8067,-0.8635,-0.8421,-0.7413,-0.8732,-0.9322,-0.784,-0.8744,-0.9667,-0.9667,-0.897,-0.7856,-0.6875,-0.6793,-0.6918,-0.6762,-0.7181,-0.7565,-0.7628,-0.736,-0.7225,-0.7514,-0.7598,-0.7305,-0.6567,-0.619,-0.5604,-0.4807,-0.4044,-0.3657,-0.3587,-0.3755,-0.398,-0.4117,-0.4089,-0.401,-0.3869,-0.3293,-0.2907,-0.2885,-0.2372,-0.183,-2.5693,-2.5566,-2.4785,-2.3613,-2.2549,-2.2754,-2.2568,-2.2309,-2.3483,-2.3536,-2.2449,-2.192,-2.1108,-2.0353,-2.0304,-2.0275,-2.0259,-2.0285,-2.0294,-2.0288,-2.0277,-2.0296,-2.0336,-2.0297,-2.0259,-2.0278,-2.0275,-2.0238,-2.0159,-1.9199,-1.7898,-1.629,-1.5179,-1.4698,-1.4707,-1.458,-1.449,-1.4511,-1.4467,-1.4353,-1.4108,-1.3259,-1.3031,-1.3584,-1.347,-1.3396,-1.3379,-1.3363,-1.3346,-1.3337,-1.3371,-1.3232,-1.3149,-1.4355,-1.4666,-1.3643,-1.4772,-1.5017,-1.3556,-1.3224,-1.2808,-1.2161,-1.2801,-1.2644,-1.12,-1.1354,-1.1454,-1.1205,-1.1402,-1.1102,-1.0151,-0.9701,-0.9367,-0.894,-0.8081,-0.7175,-0.8058,-0.9177,-0.9799,-0.9667,-0.9209,-0.9128,-0.9661,-0.8895,-0.7834,-0.6849,-0.7432,-0.7677,-0.7006,-0.7127,-0.7451,-0.7855,-0.8545,-0.8381,-0.7271,-0.7236,-0.7125,-0.6344,-0.644,-0.5928,-0.4933,-0.4328,-0.4095,-0.3608,-0.3804,-0.395,-0.3776,-0.3727,-0.3803,-0.3622,-0.3129,-0.2567,-0.2132,-0.19,-0.1794,-2.5693,-2.5674,-2.5312,-2.4844,-2.4209,-2.2998,-2.2568,-2.2812,-2.2818,-2.236,-2.1578,-2.1597,-2.1422,-2.0985,-2.0523,-2.0302,-2.0302,-2.0302,-2.0302,-2.0302,-2.0302,-2.0648,-2.1214,-2.0581,-2.0533,-2.0909,-2.0542,-2.0302,-2.0054,-1.8868,-1.7526,-1.6355,-1.5354,-1.4868,-1.4847,-1.4616,-1.4524,-1.4614,-1.4535,-1.4455,-1.4317,-1.3756,-1.3516,-1.3701,-1.3535,-1.3642,-1.4031,-1.4193,-1.4405,-1.47,-1.4951,-1.4524,-1.3258,-1.3901,-1.4788,-1.5702,-1.5746,-1.5062,-1.3605,-1.348,-1.3124,-1.2455,-1.2667,-1.2515,-1.1835,-1.178,-1.1723,-1.1621,-1.1723,-1.1461,-1.0824,-1.0886,-1.0662,-0.9898,-0.9609,-0.9343,-0.835,-0.9241,-0.9881,-0.9868,-0.9642,-0.9529,-0.956,-0.8368,-0.735,-0.71,-0.7801,-0.8041,-0.7657,-0.7748,-0.7721,-0.7549,-0.739,-0.722,-0.6969,-0.6943,-0.6815,-0.6574,-0.628,-0.5643,-0.4786,-0.4306,-0.4039,-0.3584,-0.378,-0.3842,-0.3587,-0.3433,-0.3405,-0.3242,-0.2719,-0.209,-0.1848,-0.1791,-0.1681,-2.5693,-2.5693,-2.5693,-2.5518,-2.5107,-2.3623,-2.291,-2.2881,-2.2656,-2.2067,-2.1288,-2.1589,-2.1646,-2.1429,-2.0669,-2.0302,-2.0302,-2.0302,-2.0302,-2.0302,-2.0302,-2.0898,-2.1811,-2.1099,-2.0917,-2.1321,-2.0927,-2.0533,-2.0167,-1.8823,-1.7747,-1.7079,-1.593,-1.5296,-1.5252,-1.4788,-1.4646,-1.4921,-1.4674,-1.4701,-1.502,-1.4607,-1.4266,-1.4188,-1.3953,-1.4115,-1.4792,-1.5388,-1.5635,-1.5595,-1.6053,-1.5688,-1.4302,-1.371,-1.4716,-1.7234,-1.6089,-1.4772,-1.3867,-1.3565,-1.3207,-1.2767,-1.2638,-1.26,-1.2563,-1.2372,-1.2248,-1.2268,-1.2228,-1.2063,-1.1482,-1.1623,-1.1387,-1.0656,-1.1336,-1.0944,-0.93,-0.9593,-0.9822,-0.9663,-0.9729,-0.9824,-0.9441,-0.7997,-0.6856,-0.7576,-0.8095,-0.8386,-0.8405,-0.8477,-0.8431,-0.736,-0.6013,-0.5815,-0.6901,-0.6762,-0.6469,-0.6468,-0.6133,-0.5608,-0.4582,-0.4208,-0.4093,-0.3807,-0.3831,-0.3727,-0.3541,-0.3327,-0.3022,-0.2939,-0.2461,-0.185,-0.1804,-0.1792,-0.1548,-2.5693,-2.5693,-2.5693,-2.5127,-2.4141,-2.4961,-2.4219,-2.248,-2.3594,-2.3682,-2.2685,-2.2136,-2.1741,-2.1564,-2.0812,-2.0321,-2.0302,-2.0342,-2.0379,-2.0371,-2.04,-2.0937,-2.1926,-2.1618,-2.1456,-2.1581,-2.1321,-2.0927,-2.0265,-1.9367,-1.8926,-1.8727,-1.6966,-1.6054,-1.5932,-1.5119,-1.4912,-1.5542,-1.5013,-1.523,-1.6427,-1.5805,-1.5271,-1.5044,-1.4873,-1.5056,-1.5615,-1.6895,-1.7036,-1.5654,-1.6118,-1.6274,-1.6004,-1.4412,-1.469,-1.6968,-1.5217,-1.3897,-1.403,-1.3426,-1.2977,-1.3015,-1.3173,-1.332,-1.3235,-1.3183,-1.3183,-1.3278,-1.3183,-1.2826,-1.2016,-1.1819,-1.1775,-1.1636,-1.1723,-1.1316,-1.051,-0.9888,-0.9594,-0.9347,-0.9642,-0.9673,-0.9182,-0.7671,-0.7395,-0.7985,-0.8537,-0.8738,-0.865,-0.9209,-0.8722,-0.7062,-0.5834,-0.5316,-0.5947,-0.6019,-0.6012,-0.6044,-0.6022,-0.5899,-0.4908,-0.4134,-0.4063,-0.399,-0.3831,-0.3671,-0.3499,-0.3196,-0.2805,-0.2546,-0.2219,-0.1826,-0.1808,-0.1792,-0.148,-2.5693,-2.5693,-2.5693,-2.5439,-2.5039,-2.4355,-2.3359,-2.2373,-2.2637,-2.2305,-2.1758,-2.2266,-2.2308,-2.1727,-2.1951,-2.1392,-2.0417,-2.0871,-2.1111,-2.1129,-2.1629,-2.2418,-2.3138,-2.212,-2.1822,-2.2129,-2.1254,-2.0592,-2.0246,-1.9415,-1.8966,-1.8687,-1.7539,-1.6836,-1.6662,-1.627,-1.6202,-1.6395,-1.6156,-1.6331,-1.6899,-1.705,-1.6935,-1.6543,-1.5914,-1.5814,-1.6301,-1.6816,-1.7063,-1.7008,-1.7186,-1.7262,-1.7008,-1.481,-1.382,-1.4765,-1.4471,-1.4121,-1.3973,-1.3513,-1.3268,-1.3369,-1.3388,-1.3396,-1.3396,-1.3396,-1.3396,-1.3396,-1.3396,-1.3165,-1.2826,-1.2235,-1.1819,-1.1819,-1.1811,-1.1699,-1.1068,-0.9807,-0.911,-1.025,-1.0345,-0.9623,-0.9133,-0.8763,-0.8512,-0.8102,-0.8819,-0.9303,-0.9397,-0.9705,-0.91,-0.7106,-0.5775,-0.5171,-0.5336,-0.5429,-0.5453,-0.5576,-0.5601,-0.5533,-0.4905,-0.4015,-0.3745,-0.401,-0.3873,-0.3541,-0.3323,-0.2979,-0.2589,-0.2178,-0.1828,-0.1809,-0.1792,-0.1637,-0.1186,-2.5693,-2.5693,-2.5693,-2.5381,-2.4795,-2.3926,-2.2998,-2.2217,-2.1973,-2.1709,-2.1631,-2.2353,-2.2369,-2.1946,-2.2386,-2.2014,-2.093,-2.1648,-2.1878,-2.1659,-2.2438,-2.3293,-2.3831,-2.2898,-2.2485,-2.2514,-2.111,-2.0302,-2.0236,-1.9702,-1.9395,-1.9231,-1.824,-1.7682,-1.7529,-1.7147,-1.7,-1.7183,-1.7046,-1.7092,-1.7614,-1.795,-1.806,-1.7852,-1.7205,-1.6881,-1.7067,-1.7033,-1.7261,-1.7704,-1.7789,-1.7591,-1.694,-1.5206,-1.3887,-1.3557,-1.3939,-1.415,-1.3933,-1.3674,-1.3574,-1.3617,-1.3485,-1.3396,-1.3396,-1.3396,-1.3396,-1.3396,-1.3396,-1.3396,-1.3278,-1.2751,-1.2231,-1.2018,-1.1869,-1.1817,-1.1722,-1.0264,-1.0172,-1.1103,-1.0593,-0.9748,-0.9309,-0.9428,-0.92,-0.8437,-0.9214,-0.9635,-0.9843,-0.983,-0.9126,-0.7089,-0.5775,-0.521,-0.5032,-0.4879,-0.4822,-0.4919,-0.5222,-0.5154,-0.4878,-0.401,-0.3633,-0.3914,-0.382,-0.3447,-0.3086,-0.2719,-0.2331,-0.1896,-0.1813,-0.1816,-0.1637,-0.1367,-0.067,-2.5693,-2.5684,-2.5693,-2.4834,-2.3779,-2.3916,-2.334,-2.2139,-2.1914,-2.2148,-2.2363,-2.2275,-2.2051,-2.1865,-2.2173,-2.1955,-2.1911,-2.2714,-2.2716,-2.2087,-2.2744,-2.3533,-2.4245,-2.3985,-2.3322,-2.2601,-2.1081,-2.0312,-2.0275,-2.0198,-2.0161,-2.0014,-1.9116,-1.8594,-1.8592,-1.7686,-1.7426,-1.783,-1.7468,-1.777,-1.8959,-1.8555,-1.8441,-1.8795,-1.8582,-1.8205,-1.7796,-1.7743,-1.7743,-1.7786,-1.7729,-1.7092,-1.5976,-1.535,-1.4837,-1.3717,-1.3639,-1.3756,-1.3874,-1.3882,-1.38,-1.3745,-1.3553,-1.3495,-1.3413,-1.3396,-1.3396,-1.3396,-1.3396,-1.3396,-1.3405,-1.3174,-1.2877,-1.2399,-1.201,-1.1809,-1.1777,-1.179,-1.1767,-1.1652,-1.0801,-1.0034,-0.978,-0.9589,-0.9403,-0.9547,-0.9464,-0.945,-0.983,-0.9873,-0.8944,-0.7125,-0.5783,-0.5151,-0.473,-0.4338,-0.4255,-0.4263,-0.4628,-0.4779,-0.4506,-0.3872,-0.3579,-0.371,-0.3287,-0.2909,-0.2665,-0.2346,-0.2204,-0.1901,-0.1862,-0.1569,-0.123,-0.0759,0.0178,-2.5654,-2.5615,-2.5049,-2.4893,-2.4668,-2.334,-2.2617,-2.2637,-2.2168,-2.1719,-2.1592,-2.2334,-2.2412,-2.2256,-2.3041,-2.328,-2.2882,-2.4128,-2.4362,-2.3728,-2.4302,-2.4762,-2.4898,-2.4457,-2.3361,-2.1956,-2.0831,-2.0312,-2.0321,-2.0321,-2.0227,-2.002,-1.9745,-1.9468,-1.9261,-1.8946,-1.8874,-1.8855,-1.8684,-1.8849,-1.9268,-1.9066,-1.8943,-1.8991,-1.8914,-1.8613,-1.8112,-1.7905,-1.7811,-1.7777,-1.7304,-1.6585,-1.5663,-1.4623,-1.4123,-1.4122,-1.3713,-1.3612,-1.3856,-1.3883,-1.3921,-1.398,-1.4055,-1.3877,-1.3479,-1.3396,-1.3396,-1.3396,-1.3396,-1.3396,-1.3295,-1.2697,-1.2415,-1.2482,-1.2092,-1.1815,-1.1815,-1.1808,-1.1811,-1.1783,-1.1445,-1.0872,-1.0197,-0.984,-0.9877,-0.9862,-0.9711,-0.9717,-0.9836,-0.983,-0.9047,-0.7068,-0.6018,-0.5098,-0.4853,-0.4671,-0.4565,-0.4255,-0.4285,-0.4435,-0.4164,-0.3897,-0.3629,-0.3263,-0.2824,-0.2476,-0.2211,-0.2062,-0.1962,-0.1542,-0.1164,-0.0871,-0.0601,0.0022,0.0871,-2.5581,-2.5557,-2.5068,-2.4756,-2.4658,-2.3271,-2.2725,-2.2617,-2.2118,-2.1721,-2.1777,-2.2246,-2.2523,-2.2568,-2.347,-2.3785,-2.3718,-2.4763,-2.5085,-2.4898,-2.5261,-2.5542,-2.5416,-2.461,-2.3698,-2.2573,-2.1628,-2.1059,-2.0743,-2.0723,-2.0523,-2.0172,-1.9993,-1.9818,-1.9669,-1.9536,-1.9409,-1.9295,-1.9268,-1.9295,-1.9295,-1.9295,-1.9252,-1.9117,-1.8991,-1.878,-1.8471,-1.7809,-1.7394,-1.7258,-1.6678,-1.628,-1.6233,-1.4865,-1.3906,-1.3963,-1.3949,-1.3868,-1.3913,-1.389,-1.4,-1.4186,-1.4148,-1.3917,-1.3491,-1.3393,-1.3396,-1.3396,-1.3396,-1.3396,-1.3286,-1.287,-1.2433,-1.227,-1.201,-1.1817,-1.1818,-1.1819,-1.1819,-1.1762,-1.1549,-1.1173,-1.0862,-1.0217,-1.0185,-0.9925,-0.9787,-0.9819,-0.9759,-0.9523,-0.8144,-0.6824,-0.5699,-0.5161,-0.5098,-0.5015,-0.4941,-0.4467,-0.4026,-0.4052,-0.3929,-0.3731,-0.3485,-0.3041,-0.2603,-0.2215,-0.1931,-0.1889,-0.176,-0.1161,-0.0403,-0.0089,0.0245,0.0601,0.1274,-2.5493,-2.5516,-2.5498,-2.4648,-2.3623,-2.3906,-2.331,-2.2178,-2.1969,-2.228,-2.2658,-2.212,-2.2257,-2.2919,-2.3182,-2.355,-2.4219,-2.4551,-2.5068,-2.5439,-2.5625,-2.5595,-2.5449,-2.4778,-2.4245,-2.3861,-2.3098,-2.2277,-2.1386,-2.1346,-2.1078,-2.0317,-1.9992,-1.9811,-1.974,-1.949,-1.9326,-1.9305,-1.9295,-1.9295,-1.9295,-1.9295,-1.9289,-1.9265,-1.9013,-1.8841,-1.8556,-1.7327,-1.6551,-1.6498,-1.5962,-1.612,-1.678,-1.5531,-1.4163,-1.3715,-1.4163,-1.4193,-1.4033,-1.3927,-1.4019,-1.4257,-1.3832,-1.3403,-1.3409,-1.3392,-1.3396,-1.3396,-1.3396,-1.3379,-1.3335,-1.3302,-1.2842,-1.2027,-1.1828,-1.181,-1.1819,-1.1819,-1.1819,-1.1703,-1.1347,-1.1048,-1.1341,-1.0512,-1.0179,-0.986,-0.9686,-0.9701,-0.9427,-0.8796,-0.735,-0.6232,-0.5269,-0.5161,-0.5093,-0.5074,-0.5015,-0.4814,-0.4273,-0.4031,-0.3828,-0.3584,-0.3266,-0.2824,-0.2409,-0.1999,-0.1736,-0.1692,-0.1044,-0.0045,0.0492,0.0784,0.103,0.1298,0.1387,-2.5447,-2.5425,-2.4837,-2.4682,-2.4664,-2.3879,-2.3173,-2.2718,-2.2678,-2.2491,-2.2144,-2.1842,-2.2177,-2.2964,-2.303,-2.3485,-2.4258,-2.4971,-2.5391,-2.5654,-2.5693,-2.5615,-2.5547,-2.5313,-2.4793,-2.414,-2.3582,-2.2727,-2.1564,-2.1511,-2.1068,-2.0323,-2.005,-1.989,-1.9788,-1.9595,-1.9438,-1.932,-1.9295,-1.9295,-1.9295,-1.9295,-1.9295,-1.928,-1.9209,-1.8745,-1.7976,-1.6264,-1.5306,-1.532,-1.5537,-1.5172,-1.4799,-1.4551,-1.4384,-1.4275,-1.438,-1.4473,-1.4335,-1.4078,-1.3974,-1.3993,-1.368,-1.3407,-1.3399,-1.3403,-1.3396,-1.3396,-1.3405,-1.3238,-1.299,-1.3166,-1.2824,-1.2035,-1.1809,-1.1819,-1.1819,-1.1819,-1.1819,-1.1776,-1.1623,-1.1235,-1.077,-1.0551,-1.0332,-0.9983,-0.973,-0.961,-0.9274,-0.8281,-0.6964,-0.5913,-0.5127,-0.5122,-0.5093,-0.5093,-0.5074,-0.5049,-0.4686,-0.4264,-0.3903,-0.3485,-0.3092,-0.2632,-0.2241,-0.1828,-0.1626,-0.1491,-0.0334,0.0537,0.1189,0.1368,0.1459,0.1659,0.1569,-2.537,-2.537,-2.4899,-2.4784,-2.4861,-2.4287,-2.3463,-2.2739,-2.3202,-2.2805,-2.1908,-2.1649,-2.2122,-2.2899,-2.2949,-2.346,-2.4329,-2.5199,-2.5615,-2.5684,-2.5693,-2.5459,-2.5145,-2.5021,-2.4688,-2.4216,-2.3928,-2.317,-2.2162,-2.1696,-2.1059,-2.0376,-2.005,-1.988,-1.9788,-1.9572,-1.9423,-1.9311,-1.9295,-1.9295,-1.9295,-1.9295,-1.9295,-1.9295,-1.9231,-1.8532,-1.6575,-1.5481,-1.5075,-1.5071,-1.4857,-1.4277,-1.3624,-1.4078,-1.4485,-1.4533,-1.5084,-1.5276,-1.4584,-1.4275,-1.4066,-1.3834,-1.3552,-1.3415,-1.3404,-1.3396,-1.3396,-1.3396,-1.3396,-1.3238,-1.3013,-1.2974,-1.2573,-1.1962,-1.1819,-1.1819,-1.1819,-1.1819,-1.1819,-1.1754,-1.1549,-1.134,-1.0664,-1.0617,-1.0296,-0.9938,-0.9544,-0.9449,-0.9225,-0.7951,-0.672,-0.5659,-0.5074,-0.5054,-0.5074,-0.5093,-0.4639,-0.4635,-0.4289,-0.4012,-0.3643,-0.3181,-0.2899,-0.2464,-0.207,-0.1718,-0.147,-0.1246,-0.0781,0.0112,0.1118,0.1751,0.1751,0.1591,0.1547,-2.5303,-2.5303,-2.5361,-2.4937,-2.4495,-2.5043,-2.4129,-2.2611,-2.3667,-2.3467,-2.2316,-2.1882,-2.2473,-2.3006,-2.3198,-2.3467,-2.4177,-2.5116,-2.5439,-2.543,-2.5254,-2.4863,-2.4313,-2.461,-2.4552,-2.4409,-2.4274,-2.3631,-2.2776,-2.1984,-2.1174,-2.0444,-1.9981,-1.9832,-1.974,-1.9481,-1.9301,-1.9295,-1.9295,-1.9295,-1.9295,-1.9295,-1.9295,-1.9277,-1.9075,-1.7812,-1.6013,-1.5293,-1.5569,-1.5569,-1.4194,-1.3574,-1.3496,-1.4074,-1.4301,-1.4663,-1.5645,-1.612,-1.5035,-1.4711,-1.4262,-1.3885,-1.3714,-1.3464,-1.3472,-1.3396,-1.3396,-1.3396,-1.3396,-1.3362,-1.3242,-1.2767,-1.2235,-1.1888,-1.1818,-1.1819,-1.1819,-1.1819,-1.1819,-1.1776,-1.1293,-1.1256,-1.112,-1.0729,-0.9944,-0.9938,-0.9595,-0.9433,-0.901,-0.7964,-0.6646,-0.5378,-0.5054,-0.4995,-0.503,-0.5069,-0.4444,-0.4006,-0.3505,-0.3163,-0.2965,-0.2635,-0.2572,-0.2243,-0.1583,-0.1293,-0.1244,-0.1024,-0.0873,-0.0313,0.0717,0.1345,0.1705,0.141,0.1252,-2.5303,-2.5303,-2.5332,-2.5216,-2.5091,-2.5226,-2.4668,-2.3668,-2.4591,-2.4418,-2.3688,-2.3505,-2.3553,-2.3793,-2.3611,-2.3688,-2.3505,-2.4642,-2.5254,-2.4609,-2.3916,-2.3633,-2.3714,-2.4573,-2.5091,-2.4994,-2.5005,-2.4207,-2.3053,-2.2425,-2.1737,-2.0414,-1.9992,-1.98,-1.9755,-1.9495,-1.9295,-1.9295,-1.9314,-1.9295,-1.9295,-1.9295,-1.9295,-1.925,-1.873,-1.7789,-1.6735,-1.6355,-1.6121,-1.5404,-1.4364,-1.3667,-1.3869,-1.3882,-1.4012,-1.4447,-1.5757,-1.668,-1.6255,-1.5243,-1.4381,-1.4152,-1.4385,-1.4409,-1.3464,-1.3413,-1.3405,-1.3396,-1.3396,-1.3396,-1.3337,-1.2684,-1.2204,-1.194,-1.1831,-1.1819,-1.1797,-1.1776,-1.1681,-1.1623,-1.1324,-1.093,-1.0445,-1.0492,-1.0072,-0.9919,-0.9703,-0.9466,-0.873,-0.7859,-0.6614,-0.5239,-0.4971,-0.4893,-0.4918,-0.4744,-0.398,-0.3379,-0.2861,-0.257,-0.2352,-0.2309,-0.2289,-0.1757,-0.0939,0.0,0.0,-0.1137,-0.1054,-0.0358,0.0405,0.1019,0.1432,0.1173,0.1291,-2.5303,-2.5303,-2.5303,-2.5303,-2.5303,-2.5293,-2.4851,-2.436,-2.4966,-2.4841,-2.412,-2.3716,-2.3494,-2.3447,-2.3101,-2.266,-2.2757,-2.3737,-2.4656,-2.4678,-2.4209,-2.3955,-2.4277,-2.49,-2.5286,-2.4851,-2.4707,-2.3957,-2.3044,-2.2348,-2.1488,-2.04,-2.0012,-1.9902,-1.9848,-1.9599,-1.9462,-1.9418,-1.9344,-1.9295,-1.9295,-1.9295,-1.9295,-1.9143,-1.8559,-1.7914,-1.7695,-1.689,-1.6377,-1.583,-1.5164,-1.5216,-1.5877,-1.571,-1.5454,-1.5686,-1.5671,-1.6583,-1.6403,-1.5919,-1.5071,-1.4567,-1.4958,-1.4865,-1.4314,-1.3887,-1.3405,-1.3396,-1.3396,-1.3396,-1.3363,-1.2932,-1.2431,-1.2102,-1.1902,-1.1819,-1.1725,-1.1303,-1.0895,-1.0886,-1.0653,-1.0373,-1.0141,-1.0159,-1.009,-0.9873,-0.9595,-0.933,-0.8442,-0.7548,-0.6445,-0.5409,-0.5001,-0.4805,-0.4806,-0.4361,-0.3454,-0.283,-0.2269,-0.2122,-0.2024,-0.2048,-0.2138,-0.1427,0.0,0.0,0.0,0.0,0.0,0.0469,0.1173,0.1261,0.1343,0.1456,0.1695,-2.5303,-2.5303,-2.5303,-2.5303,-2.5303,-2.5293,-2.4947,-2.4476,-2.4995,-2.4947,-2.4254,-2.338,-2.3158,-2.2726,-2.2275,-2.1902,-2.2101,-2.2314,-2.333,-2.4629,-2.4219,-2.417,-2.4657,-2.5056,-2.5043,-2.4207,-2.4399,-2.3851,-2.2892,-2.2063,-2.1432,-2.0459,-2.0097,-1.9983,-1.9933,-1.9738,-1.9569,-1.9541,-1.9389,-1.9295,-1.9295,-1.9295,-1.9295,-1.9167,-1.8803,-1.8492,-1.8371,-1.7716,-1.694,-1.6588,-1.6554,-1.7459,-1.8289,-1.8367,-1.7388,-1.7117,-1.6319,-1.6746,-1.701,-1.6633,-1.6078,-1.5274,-1.5466,-1.5549,-1.537,-1.4891,-1.4218,-1.3566,-1.3388,-1.3278,-1.3176,-1.2962,-1.2615,-1.2271,-1.1924,-1.1746,-1.1372,-1.0503,-1.0135,-1.0046,-1.0292,-1.028,-1.0053,-0.9964,-0.9919,-0.9841,-0.955,-0.9088,-0.8225,-0.7389,-0.6413,-0.5536,-0.5081,-0.4451,-0.4353,-0.3965,-0.3048,-0.252,-0.1898,-0.1869,-0.1837,-0.1894,-0.187,-0.1294,0.0,0.0,0.0,0.0,0.0,0.0,0.1736,0.1567,0.1664,0.1839,0.2051,-2.5303,-2.5303,-2.5303,-2.5303,-2.5303,-2.5293,-2.5178,-2.5139,-2.5159,-2.5236,-2.4976,-2.4207,-2.3284,-2.2871,-2.2756,-2.2699,-2.2388,-2.206,-2.2256,-2.3623,-2.3594,-2.3711,-2.4092,-2.5029,-2.4976,-2.4543,-2.4524,-2.4101,-2.3093,-2.258,-2.1662,-2.0555,-2.0115,-2.0022,-1.9944,-1.974,-1.9609,-1.9596,-1.9418,-1.9295,-1.9295,-1.9295,-1.9295,-1.9295,-1.9057,-1.9051,-1.9086,-1.8943,-1.8641,-1.8252,-1.8205,-1.8111,-1.8104,-1.7919,-1.68,-1.5803,-1.6822,-1.7729,-1.7702,-1.7634,-1.6895,-1.6167,-1.6296,-1.6528,-1.6401,-1.6413,-1.5473,-1.3921,-1.3295,-1.3057,-1.2173,-1.255,-1.2508,-1.2102,-1.1793,-1.1432,-1.0618,-1.0123,-0.9893,-0.9899,-1.0129,-1.028,-1.0053,-0.9873,-0.9873,-0.9779,-0.9532,-0.8971,-0.8152,-0.748,-0.675,-0.5894,-0.5122,-0.443,-0.3845,-0.3335,-0.2703,-0.2302,-0.189,-0.1904,-0.1882,-0.1811,-0.156,-0.1093,-0.0158,0.0,0.0,0.0,0.0,0.0,0.1726,0.1774,0.1839,0.1925,0.2161,-2.4928,-2.5235,-2.4851,-2.4928,-2.5168,-2.4841,-2.4928,-2.513,-2.4428,-2.4514,-2.4591,-2.3601,-2.2688,-2.2323,-2.1776,-2.191,-2.208,-2.1797,-2.2236,-2.3467,-2.3769,-2.4012,-2.4136,-2.5168,-2.5146,-2.4774,-2.4534,-2.3938,-2.2911,-2.279,-2.1853,-2.0658,-2.0187,-2.0161,-2.0088,-1.9856,-1.9723,-1.9656,-1.9457,-1.9295,-1.9295,-1.9295,-1.9295,-1.9295,-1.9295,-1.9295,-1.9274,-1.9182,-1.8965,-1.8596,-1.8304,-1.807,-1.7892,-1.7664,-1.719,-1.6294,-1.7486,-1.8643,-1.8388,-1.8174,-1.724,-1.6679,-1.6985,-1.7167,-1.715,-1.7173,-1.6297,-1.4257,-1.3078,-1.2923,-1.2713,-1.2492,-1.2221,-1.2117,-1.1908,-1.1358,-1.063,-1.0158,-0.9951,-0.9873,-1.0002,-1.0053,-1.0002,-0.9873,-0.9873,-0.9722,-0.9465,-0.8825,-0.8058,-0.7431,-0.6814,-0.6128,-0.53,-0.4551,-0.3737,-0.3001,-0.2626,-0.2205,-0.1937,-0.195,-0.1906,-0.1845,-0.1491,-0.1026,0.0113,0.1289,0.0,0.0,0.0,0.1616,0.1702,0.1814,0.1896,0.204,0.2244,-2.4562,-2.5226,-2.4428,-2.4572,-2.5139,-2.462,-2.4716,-2.4918,-2.3783,-2.3995,-2.4812,-2.2822,-2.1805,-2.1735,-2.1172,-2.0898,-2.1641,-2.1709,-2.2695,-2.3691,-2.3965,-2.4403,-2.4807,-2.5004,-2.4656,-2.3889,-2.3851,-2.3228,-2.2834,-2.2531,-2.1633,-2.0695,-2.0285,-2.0302,-2.0216,-1.9931,-1.9855,-1.9704,-1.9481,-1.9295,-1.9295,-1.9295,-1.9295,-1.9295,-1.9295,-1.9295,-1.9265,-1.9191,-1.8983,-1.8716,-1.8421,-1.8116,-1.7997,-1.8052,-1.8099,-1.8153,-1.851,-1.8912,-1.8919,-1.8536,-1.7899,-1.7513,-1.7452,-1.761,-1.7254,-1.68,-1.5711,-1.3842,-1.2815,-1.2572,-1.26,-1.2296,-1.2037,-1.203,-1.1896,-1.1534,-1.0902,-1.0373,-0.9938,-0.9873,-0.9873,-0.9873,-0.9873,-0.9667,-0.9635,-0.9323,-0.9044,-0.8585,-0.7842,-0.7314,-0.6748,-0.6189,-0.5487,-0.4702,-0.3827,-0.2799,-0.2514,-0.2335,-0.2089,-0.2009,-0.1936,-0.1865,-0.1445,-0.1011,0.0135,0.1164,0.1535,0.1879,0.1826,0.1781,0.1803,0.1813,0.1859,0.2054,0.2279,-2.4561,-2.5224,-2.4417,-2.4572,-2.5226,-2.512,-2.5159,-2.5101,-2.4159,-2.4437,-2.4861,-2.2726,-2.1643,-2.1681,-2.0958,-2.0641,-2.0957,-2.1631,-2.2402,-2.3242,-2.3379,-2.3441,-2.3381,-2.3292,-2.3137,-2.2726,-2.2776,-2.2863,-2.2575,-2.2014,-2.1278,-2.0465,-2.0302,-2.0302,-2.0259,-1.9952,-1.9821,-1.9731,-1.9458,-1.9295,-1.9295,-1.9295,-1.9295,-1.9295,-1.9295,-1.9295,-1.9295,-1.9236,-1.9132,-1.8983,-1.9057,-1.8886,-1.8661,-1.8912,-1.9081,-1.913,-1.9193,-1.9225,-1.9237,-1.8922,-1.8685,-1.8405,-1.8449,-1.8353,-1.7525,-1.5604,-1.4141,-1.3624,-1.261,-1.2079,-1.2195,-1.194,-1.1833,-1.1854,-1.1854,-1.1512,-1.1015,-1.033,-0.9951,-0.9873,-0.9873,-0.9873,-0.9873,-0.9603,-0.933,-0.8954,-0.8582,-0.8147,-0.7623,-0.7083,-0.6282,-0.5625,-0.5421,-0.4745,-0.3769,-0.2756,-0.2539,-0.244,-0.2318,-0.2149,-0.2032,-0.1891,-0.1559,-0.096,0.0272,0.135,0.2004,0.2226,0.2045,0.1992,0.2016,0.1911,0.1811,0.2024,0.2307,-2.3727,-2.4395,-2.3676,-2.413,-2.5178,-2.4822,-2.462,-2.4332,-2.3216,-2.2928,-2.3072,-2.1658,-2.0947,-2.1045,-2.065,-2.0576,-2.0791,-2.1504,-2.206,-2.2568,-2.2845,-2.3046,-2.3004,-2.2743,-2.2272,-2.2129,-2.1766,-2.1673,-2.171,-2.1678,-2.1087,-2.0417,-2.0302,-2.0302,-2.0259,-1.9961,-1.9843,-1.9707,-1.9485,-1.9301,-1.9295,-1.9295,-1.9295,-1.9295,-1.9295,-1.9295,-1.9295,-1.928,-1.9249,-1.9189,-1.9283,-1.9218,-1.9064,-1.9162,-1.928,-1.928,-1.928,-1.928,-1.9256,-1.9055,-1.8967,-1.8896,-1.8749,-1.8244,-1.7309,-1.5232,-1.3396,-1.3396,-1.2998,-1.2459,-1.1911,-1.1819,-1.1819,-1.1827,-1.1866,-1.1667,-1.1221,-1.0373,-0.9873,-0.9873,-0.9867,-0.9797,-0.9797,-0.9751,-0.9488,-0.9242,-0.8701,-0.8096,-0.7455,-0.6745,-0.5821,-0.4808,-0.4781,-0.473,-0.3681,-0.2684,-0.2627,-0.2572,-0.2579,-0.2386,-0.2162,-0.1945,-0.1531,-0.0442,0.1093,0.1994,0.2551,0.257,0.2355,0.2284,0.2217,0.2079,0.1937,0.2092,0.2469,-2.2457,-2.3216,-2.3141,-2.3879,-2.4937,-2.4341,-2.3975,-2.359,-2.2216,-2.1735,-2.1639,-2.0908,-2.0408,-2.0438,-2.0566,-2.0596,-2.0664,-2.1504,-2.1885,-2.2197,-2.2468,-2.2738,-2.2532,-2.2232,-2.1865,-2.2263,-2.1078,-2.0842,-2.1055,-2.1091,-2.081,-2.0321,-2.0302,-2.0302,-2.0207,-2.0021,-1.9836,-1.9701,-1.9439,-1.9311,-1.9295,-1.9295,-1.9295,-1.9295,-1.9295,-1.9295,-1.9295,-1.9295,-1.928,-1.9289,-1.9289,-1.9256,-1.9249,-1.9265,-1.9295,-1.9295,-1.9295,-1.9295,-1.9218,-1.9092,-1.9021,-1.8968,-1.8774,-1.8293,-1.7733,-1.5314,-1.3396,-1.3396,-1.2908,-1.2447,-1.2058,-1.1819,-1.1711,-1.1841,-1.1987,-1.1842,-1.1491,-1.0449,-0.9848,-0.9848,-0.9765,-0.9548,-0.9586,-0.9791,-0.9712,-0.9483,-0.8896,-0.8083,-0.7248,-0.6369,-0.5573,-0.4561,-0.4146,-0.4181,-0.3423,-0.2688,-0.2681,-0.2631,-0.2631,-0.2543,-0.2264,-0.1764,-0.1275,0.0097,0.1595,0.2292,0.2652,0.2686,0.2654,0.2481,0.2318,0.2203,0.2137,0.2318,0.2671,-2.0791,-2.1886,-2.3356,-2.4023,-2.4185,-2.4148,-2.3619,-2.2831,-2.1908,-2.163,-2.1668,-2.0982,-2.0465,-2.0498,-2.0537,-2.0557,-2.0596,-2.1484,-2.167,-2.1846,-2.2088,-2.1831,-2.1574,-2.1091,-2.0588,-2.0609,-2.0345,-2.0417,-2.0419,-2.0583,-2.0427,-2.0302,-2.0302,-2.0302,-2.0225,-2.0069,-1.9832,-1.9647,-1.9418,-1.9295,-1.9295,-1.9295,-1.9295,-1.9295,-1.9295,-1.9295,-1.9295,-1.9295,-1.9295,-1.9295,-1.9295,-1.9295,-1.9295,-1.9295,-1.9295,-1.9295,-1.9295,-1.9295,-1.9234,-1.9187,-1.9252,-1.915,-1.8913,-1.8528,-1.8104,-1.5395,-1.3812,-1.379,-1.3545,-1.2426,-1.205,-1.1776,-1.1667,-1.1597,-1.17,-1.1638,-1.115,-1.0261,-0.9738,-0.979,-0.9635,-0.9383,-0.8889,-0.8995,-0.9284,-0.9083,-0.8228,-0.7424,-0.6715,-0.5935,-0.5366,-0.4558,-0.378,-0.3404,-0.2969,-0.2684,-0.2688,-0.2555,-0.2455,-0.2394,-0.2275,-0.1707,-0.0863,-0.0133,0.116,0.1974,0.2661,0.265,0.2604,0.2515,0.2436,0.2357,0.2583,0.2899,0.3282,-2.0715,-2.078,-2.2551,-2.3302,-2.3311,-2.3311,-2.2802,-2.2052,-2.1639,-2.1235,-2.0964,-2.0602,-2.0466,-2.0487,-2.0518,-2.0264,-1.9912,-2.0078,-2.0293,-2.0019,-1.9775,-1.9775,-1.9736,-1.9895,-1.9643,-1.969,-2.0019,-2.034,-2.0313,-2.0275,-2.0285,-2.0302,-2.0294,-2.0302,-2.0225,-2.0108,-1.9875,-1.9617,-1.9427,-1.9305,-1.9295,-1.9295,-1.9295,-1.9295,-1.9295,-1.9295,-1.9295,-1.9295,-1.9295,-1.9295,-1.9295,-1.9295,-1.9295,-1.9295,-1.9295,-1.928,-1.9265,-1.9265,-1.9249,-1.9196,-1.9126,-1.9117,-1.8999,-1.8789,-1.8322,-1.6675,-1.6208,-1.5815,-1.4798,-1.362,-1.1992,-1.1813,-1.1689,-1.1457,-1.1314,-1.1265,-1.0762,-0.9869,-0.9164,-0.8975,-0.9106,-0.9139,-0.8557,-0.8039,-0.84,-0.8579,-0.7646,-0.6811,-0.6253,-0.54,-0.4794,-0.4299,-0.3529,-0.3183,-0.2813,-0.2712,-0.2679,-0.248,-0.2281,-0.1711,-0.1379,-0.0975,-0.0201,0.0336,0.0638,0.141,0.2049,0.245,0.2575,0.2574,0.2609,0.2627,0.2958,0.3399,0.3763,-2.0609,-2.0248,-2.1512,-2.2195,-2.2388,-2.2399,-2.1937,-2.1235,-2.1119,-2.0879,-2.031,-2.0191,-2.0085,-2.0103,-1.9814,-1.9512,-1.9014,-1.8965,-1.8838,-1.8662,-1.8447,-1.7949,-1.8076,-1.8419,-1.8794,-1.8953,-1.9506,-1.9902,-1.9835,-2.014,-2.0226,-2.0237,-2.027,-2.0294,-2.0271,-2.0155,-1.995,-1.9684,-1.9504,-1.9344,-1.9311,-1.9295,-1.9295,-1.9295,-1.9295,-1.9295,-1.9295,-1.9295,-1.9295,-1.9295,-1.9295,-1.9295,-1.9295,-1.9295,-1.9295,-1.9249,-1.9187,-1.9164,-1.9212,-1.9081,-1.8983,-1.9026,-1.918,-1.8789,-1.8293,-1.7892,-1.7252,-1.6702,-1.5984,-1.487,-1.2631,-1.2538,-1.1839,-1.1502,-1.0868,-1.068,-1.0191,-0.9437,-0.8673,-0.8104,-0.837,-0.8695,-0.8301,-0.7739,-0.753,-0.7593,-0.6751,-0.6297,-0.6324,-0.5325,-0.4087,-0.3642,-0.3216,-0.2997,-0.2845,-0.2746,-0.2648,-0.2483,-0.1978,-0.0502,0.0,0.0269,0.0134,0.0201,0.0537,0.1007,0.1576,0.2214,0.2515,0.2671,0.2772,0.2894,0.3277,0.3703,0.398,-2.0164,-2.0286,-2.039,-2.0868,-2.1509,-2.1532,-2.1081,-2.0467,-2.0342,-2.03,-2.0144,-1.9572,-1.924,-1.916,-1.873,-1.833,-1.8086,-1.8018,-1.792,-1.7734,-1.7519,-1.6865,-1.6758,-1.708,-1.7932,-1.8113,-1.8794,-1.9289,-1.9168,-1.994,-2.0153,-2.0125,-2.0174,-2.027,-2.0288,-2.0269,-2.0094,-1.9837,-1.963,-1.9438,-1.9326,-1.9295,-1.9295,-1.9295,-1.9295,-1.9295,-1.9295,-1.9295,-1.9295,-1.9295,-1.9295,-1.9295,-1.9295,-1.9295,-1.9295,-1.928,-1.8833,-1.8842,-1.9187,-1.8942,-1.8893,-1.893,-1.9044,-1.8805,-1.8501,-1.8001,-1.6946,-1.588,-1.5692,-1.525,-1.4333,-1.3511,-1.2346,-1.1117,-1.0457,-1.004,-0.9563,-0.8816,-0.7993,-0.7647,-0.7942,-0.8169,-0.7891,-0.75,-0.6963,-0.6515,-0.5776,-0.5654,-0.5975,-0.5234,-0.3856,-0.3239,-0.2907,-0.2338,-0.224,-0.2611,-0.2615,-0.2452,-0.171,-0.0301,0.0737,0.1076,0.084,0.0436,0.0737,0.1408,0.1744,0.2114,0.2545,0.2975,0.3105,0.3296,0.3653,0.4021,0.4337,-2.0241,-2.0302,-2.0302,-2.0456,-2.0695,-2.071,-2.052,-2.0246,-1.9794,-1.9518,-1.937,-1.8688,-1.8378,-1.8281,-1.8086,-1.7617,-1.7178,-1.71,-1.6992,-1.6367,-1.6416,-1.6035,-1.5889,-1.6416,-1.707,-1.7432,-1.8194,-1.8922,-1.9045,-1.9777,-2.0079,-2.0093,-2.0065,-2.0165,-2.0107,-1.9972,-1.9619,-1.971,-1.9559,-1.9359,-1.9295,-1.9295,-1.9295,-1.9295,-1.9295,-1.9295,-1.9295,-1.9295,-1.9295,-1.9295,-1.9295,-1.9295,-1.9295,-1.9295,-1.9289,-1.9104,-1.8643,-1.8322,-1.8671,-1.8717,-1.878,-1.878,-1.8601,-1.8493,-1.8438,-1.7166,-1.5806,-1.4911,-1.5228,-1.471,-1.3593,-1.3341,-1.226,-1.0427,-0.9647,-0.9478,-0.8996,-0.8024,-0.7271,-0.7378,-0.7593,-0.7152,-0.679,-0.6915,-0.6532,-0.5814,-0.5073,-0.5224,-0.5571,-0.4839,-0.3733,-0.314,-0.261,-0.1872,-0.1572,-0.1907,-0.2469,-0.2561,-0.1622,-0.0267,0.067,0.1607,0.1854,0.1617,0.1713,0.1843,0.2166,0.2483,0.2952,0.3335,0.3528,0.3605,0.3804,0.4318,0.4877,-2.0302,-2.0264,-1.9975,-1.986,-1.9906,-2.0169,-2.0132,-1.9669,-1.9004,-1.8685,-1.8509,-1.7867,-1.7508,-1.7461,-1.7178,-1.6924,-1.625,-1.623,-1.6133,-1.542,-1.5439,-1.5459,-1.5664,-1.5967,-1.6143,-1.6604,-1.742,-1.821,-1.8501,-1.94,-1.9838,-1.9951,-1.992,-1.9954,-1.9901,-1.9717,-1.9545,-1.9629,-1.9523,-1.9404,-1.9326,-1.9295,-1.9295,-1.9295,-1.9295,-1.9295,-1.9295,-1.9295,-1.928,-1.928,-1.928,-1.928,-1.928,-1.9289,-1.9227,-1.886,-1.8522,-1.8199,-1.8382,-1.8461,-1.8482,-1.8419,-1.8025,-1.7831,-1.7705,-1.6572,-1.5475,-1.4747,-1.4735,-1.4188,-1.3417,-1.3224,-1.1795,-0.9952,-0.9837,-0.97,-0.8778,-0.7839,-0.6978,-0.7081,-0.6833,-0.6309,-0.5936,-0.602,-0.6048,-0.525,-0.4465,-0.4759,-0.502,-0.4342,-0.3635,-0.3045,-0.2547,-0.1974,-0.1439,-0.1171,-0.1797,-0.2562,-0.1744,-0.0638,0.1236,0.2249,0.2562,0.2762,0.252,0.2399,0.2601,0.2939,0.3219,0.3648,0.4043,0.4112,0.4066,0.4655,0.542,-2.0196,-2.009,-1.9328,-1.8953,-1.9088,-1.9632,-1.9403,-1.8544,-1.8123,-1.7926,-1.7811,-1.7022,-1.666,-1.6484,-1.585,-1.5586,-1.5576,-1.5537,-1.5488,-1.543,-1.541,-1.5449,-1.5566,-1.5713,-1.6035,-1.6026,-1.6672,-1.8018,-1.7943,-1.8952,-1.962,-1.981,-1.972,-1.9735,-1.9712,-1.9641,-1.9544,-1.9585,-1.9523,-1.9404,-1.932,-1.9295,-1.9295,-1.9295,-1.9295,-1.9274,-1.9259,-1.9218,-1.9218,-1.9209,-1.9209,-1.9234,-1.9259,-1.9283,-1.8981,-1.8652,-1.8344,-1.8293,-1.8179,-1.8179,-1.8018,-1.7915,-1.7749,-1.7223,-1.6743,-1.6184,-1.5249,-1.4375,-1.4044,-1.3864,-1.3566,-1.2391,-1.1232,-1.0721,-1.0712,-1.0018,-0.8951,-0.7993,-0.7042,-0.6595,-0.6252,-0.5866,-0.5716,-0.5702,-0.5433,-0.4587,-0.3914,-0.3918,-0.411,-0.4046,-0.3403,-0.292,-0.2485,-0.2178,-0.1642,-0.1077,-0.0101,-0.0582,-0.2162,-0.1432,0.0685,0.2719,0.2893,0.3022,0.2975,0.2939,0.2912,0.3046,0.3295,0.3821,0.4719,0.4844,0.4883,0.5426,0.6019,-1.8453,-1.8421,-1.8164,-1.8061,-1.802,-1.7744,-1.7096,-1.6429,-1.7263,-1.7551,-1.6911,-1.6137,-1.5879,-1.5732,-1.5508,-1.543,-1.541,-1.541,-1.543,-1.543,-1.5508,-1.585,-1.6123,-1.6328,-1.6631,-1.718,-1.7785,-1.8188,-1.8688,-1.9289,-1.9631,-1.9895,-1.9635,-1.9576,-1.9549,-1.9471,-1.9518,-1.9523,-1.9462,-1.938,-1.932,-1.9295,-1.9295,-1.9295,-1.9295,-1.9243,-1.9134,-1.9046,-1.8971,-1.8833,-1.8673,-1.8673,-1.8937,-1.8851,-1.8595,-1.8128,-1.8107,-1.8211,-1.7975,-1.7876,-1.7687,-1.7406,-1.7248,-1.7052,-1.6591,-1.5907,-1.507,-1.424,-1.3598,-1.3425,-1.3308,-1.2418,-1.1394,-1.1009,-1.0876,-1.0244,-0.92,-0.816,-0.7262,-0.6735,-0.6321,-0.5478,-0.5346,-0.511,-0.4748,-0.3886,-0.3403,-0.3354,-0.3333,-0.3331,-0.322,-0.2764,-0.198,-0.1575,-0.158,-0.1125,0.051,0.1296,-0.0204,-0.0813,0.1513,0.3124,0.3248,0.3244,0.3154,0.3092,0.3057,0.3299,0.3675,0.479,0.5615,0.5655,0.5792,0.621,0.6466,-1.7096,-1.7623,-1.7347,-1.7051,-1.6744,-1.6574,-1.6045,-1.5632,-1.643,-1.6527,-1.61,-1.5632,-1.541,-1.5449,-1.543,-1.541,-1.541,-1.541,-1.541,-1.5459,-1.5723,-1.6182,-1.6611,-1.709,-1.7402,-1.8032,-1.8368,-1.8498,-1.9095,-1.9652,-2.0041,-1.9945,-1.9616,-1.9559,-1.9523,-1.9443,-1.9389,-1.9404,-1.9365,-1.9311,-1.9295,-1.9295,-1.9295,-1.9295,-1.9295,-1.9173,-1.9018,-1.8894,-1.878,-1.8623,-1.8442,-1.8489,-1.8643,-1.8461,-1.8249,-1.7852,-1.7774,-1.7743,-1.7532,-1.7375,-1.7199,-1.6986,-1.6833,-1.6401,-1.5736,-1.4932,-1.4383,-1.3815,-1.3416,-1.311,-1.2964,-1.2669,-1.1859,-1.1061,-1.0738,-1.0412,-0.9434,-0.8385,-0.7711,-0.7138,-0.6304,-0.5281,-0.479,-0.4565,-0.4248,-0.3725,-0.3251,-0.2947,-0.2953,-0.3006,-0.2985,-0.2746,-0.1701,-0.0853,-0.0887,-0.0744,0.083,0.2121,0.197,0.1863,0.3285,0.3427,0.3432,0.3401,0.3325,0.3411,0.3563,0.3796,0.4242,0.5369,0.6205,0.6309,0.6365,0.6546,0.6733,-1.6109,-1.7385,-1.6696,-1.6022,-1.5465,-1.6083,-1.5986,-1.5436,-1.5532,-1.5437,-1.5449,-1.542,-1.541,-1.541,-1.541,-1.541,-1.541,-1.541,-1.5576,-1.5518,-1.6182,-1.6748,-1.7363,-1.7712,-1.8239,-1.8164,-1.8345,-1.9016,-1.93,-1.9749,-2.0041,-2.0003,-1.9769,-1.965,-1.9613,-1.9418,-1.9344,-1.932,-1.9311,-1.9295,-1.9295,-1.9295,-1.9295,-1.9295,-1.9265,-1.9196,-1.9043,-1.8931,-1.8852,-1.866,-1.85,-1.8471,-1.8322,-1.7988,-1.7732,-1.7673,-1.7501,-1.715,-1.6986,-1.6834,-1.6696,-1.6581,-1.6509,-1.5907,-1.5121,-1.4232,-1.3703,-1.365,-1.3306,-1.2935,-1.271,-1.2154,-1.1396,-1.0732,-1.0266,-0.9754,-0.8935,-0.8065,-0.7482,-0.685,-0.5957,-0.506,-0.4937,-0.4748,-0.4094,-0.3653,-0.337,-0.2939,-0.2578,-0.2651,-0.2593,-0.252,-0.128,-0.0277,-0.0195,0.019,0.1361,0.2305,0.275,0.3057,0.3422,0.3532,0.3571,0.3639,0.3698,0.4027,0.4234,0.4424,0.4827,0.5682,0.6406,0.682,0.6962,0.6949,0.6926,-1.5436,-1.5792,-1.559,-1.5407,-1.5338,-1.55,-1.555,-1.5416,-1.5412,-1.5414,-1.541,-1.541,-1.541,-1.541,-1.541,-1.541,-1.541,-1.5449,-1.582,-1.6172,-1.6689,-1.7529,-1.8359,-1.8637,-1.9148,-1.9643,-1.9799,-1.9615,-1.9836,-2.0001,-2.005,-2.0116,-1.9823,-1.9572,-1.9695,-1.9457,-1.9295,-1.9295,-1.9295,-1.9295,-1.9295,-1.9295,-1.9295,-1.9295,-1.9265,-1.9155,-1.9,-1.8789,-1.8575,-1.833,-1.81,-1.8014,-1.7949,-1.7376,-1.7361,-1.7557,-1.7191,-1.6747,-1.6405,-1.6313,-1.6274,-1.6226,-1.608,-1.5419,-1.4652,-1.3735,-1.3282,-1.3325,-1.321,-1.2836,-1.2259,-1.1603,-1.0962,-1.0374,-0.9675,-0.8986,-0.8325,-0.7805,-0.7176,-0.6435,-0.5578,-0.5159,-0.5045,-0.4621,-0.3996,-0.3677,-0.3581,-0.3225,-0.2509,-0.2259,-0.222,-0.1888,-0.0628,0.0197,0.0435,0.1005,0.2136,0.2748,0.3209,0.3466,0.3607,0.3619,0.3622,0.3928,0.4156,0.4638,0.4964,0.5,0.5508,0.6179,0.6559,0.6933,0.6975,0.6962,0.6965,-1.5195,-1.5195,-1.5243,-1.5263,-1.5309,-1.5338,-1.5376,-1.5401,-1.5415,-1.5416,-1.541,-1.541,-1.541,-1.541,-1.541,-1.541,-1.541,-1.541,-1.5918,-1.6494,-1.7207,-1.8105,-1.8809,-1.9318,-1.9696,-2.0189,-2.0275,-2.0219,-2.0251,-2.018,-2.0144,-2.0116,-1.971,-1.9549,-1.9701,-1.9457,-1.9295,-1.9295,-1.9295,-1.9295,-1.9295,-1.9295,-1.9295,-1.9295,-1.9249,-1.9132,-1.8878,-1.8632,-1.8284,-1.8023,-1.7816,-1.7549,-1.732,-1.6704,-1.6573,-1.6722,-1.6599,-1.6348,-1.5975,-1.5812,-1.5921,-1.588,-1.5913,-1.5389,-1.5114,-1.4266,-1.3279,-1.3282,-1.3282,-1.2943,-1.1867,-1.1068,-1.0703,-1.0213,-0.8959,-0.7874,-0.7601,-0.735,-0.7079,-0.6838,-0.5822,-0.4728,-0.4586,-0.4359,-0.3791,-0.3641,-0.3571,-0.3363,-0.2684,-0.1638,-0.162,-0.0993,0.0456,0.1486,0.2072,0.239,0.2839,0.3334,0.358,0.3595,0.3619,0.3621,0.3667,0.4102,0.4707,0.5556,0.5816,0.5701,0.5956,0.6553,0.6764,0.6975,0.6975,0.6975,0.6975,-1.5195,-1.5214,-1.5263,-1.5291,-1.5297,-1.5354,-1.5385,-1.5409,-1.541,-1.541,-1.541,-1.541,-1.541,-1.541,-1.541,-1.541,-1.541,-1.541,-1.5947,-1.6728,-1.7539,-1.8369,-1.8994,-1.9494,-1.996,-2.02,-2.0292,-2.0312,-2.0285,-2.0186,-2.0086,-2.0012,-1.9869,-1.9713,-1.96,-1.9433,-1.9295,-1.9295,-1.9295,-1.9295,-1.9295,-1.928,-1.9265,-1.9274,-1.9227,-1.9042,-1.8762,-1.845,-1.806,-1.7757,-1.7541,-1.74,-1.6994,-1.6466,-1.6067,-1.606,-1.6077,-1.5839,-1.5558,-1.5232,-1.5385,-1.5526,-1.5625,-1.5453,-1.5117,-1.4445,-1.3482,-1.3135,-1.3135,-1.2573,-1.1494,-1.0687,-1.0356,-0.9701,-0.8263,-0.7088,-0.7001,-0.67,-0.6498,-0.6468,-0.5564,-0.4316,-0.4138,-0.3915,-0.3746,-0.3587,-0.3188,-0.3148,-0.2676,-0.1306,-0.0569,0.0617,0.2171,0.3029,0.3342,0.3328,0.3354,0.3442,0.3621,0.3588,0.358,0.358,0.3842,0.4362,0.505,0.6079,0.6337,0.6167,0.655,0.6846,0.6891,0.6975,0.6975,0.6975,0.6975,-1.5195,-1.5195,-1.5205,-1.5243,-1.5289,-1.5311,-1.5346,-1.5401,-1.541,-1.541,-1.541,-1.541,-1.541,-1.541,-1.541,-1.541,-1.541,-1.542,-1.5947,-1.6728,-1.7588,-1.8467,-1.9238,-1.9805,-2.0234,-2.0305,-2.026,-2.0302,-2.0285,-2.0169,-2.0123,-2.0178,-1.9795,-1.9695,-1.9695,-1.9513,-1.932,-1.9323,-1.939,-1.9436,-1.9409,-1.935,-1.9207,-1.9143,-1.9052,-1.8861,-1.8623,-1.8391,-1.8039,-1.7651,-1.7223,-1.7167,-1.6893,-1.6359,-1.5934,-1.5704,-1.5667,-1.518,-1.4883,-1.4742,-1.4854,-1.504,-1.4982,-1.4557,-1.4218,-1.386,-1.3145,-1.2832,-1.2609,-1.1898,-1.0971,-1.0283,-0.9818,-0.8841,-0.7596,-0.6952,-0.6564,-0.5505,-0.4615,-0.4618,-0.436,-0.384,-0.3796,-0.3571,-0.3258,-0.264,-0.1117,-0.1029,-0.1251,-0.0402,0.0538,0.1924,0.3499,0.3592,0.3542,0.353,0.3519,0.3578,0.3672,0.3755,0.3753,0.3624,0.3928,0.4705,0.5604,0.6634,0.6719,0.6547,0.6719,0.6933,0.6933,0.6975,0.6975,0.7101,0.7185]}]]